GFSWCAN_250_rhum_051.txt.gz
RH
6 6 7 6 6 6 6 6 7 6 6 7 8 8 8 8 8 8 10 10 8 8 11 14 20 24 22 19 41 56 67 78 79 77 79 95 94 97 99 100 100 96 89 86 80 76 69 75 77 87 100 97 86 77
6 6 6 6 6 6 6 7 7 6 6 7 7 8 7 7 7 8 10 10 9 11 10 11 16 19 18 14 24 53 58 64 71 72 77 91 96 97 97 98 100 100 98 89 81 71 76 84 88 93 100 100 93 84
6 6 6 6 6 6 6 7 7 6 6 7 8 7 7 6 6 8 9 9 10 10 10 11 11 11 10 10 17 31 45 68 74 76 83 91 99 98 98 96 100 98 96 90 81 80 84 85 92 100 100 98 90 88
6 6 6 7 6 6 7 7 6 5 6 6 8 7 6 5 6 8 8 7 8 7 8 8 6 6 7 8 15 21 54 68 80 84 82 91 95 98 99 95 92 98 91 87 80 80 89 84 98 100 100 97 87 69
6 6 7 7 6 6 7 7 6 5 6 6 7 7 6 4 5 6 6 6 6 6 6 5 4 5 6 8 16 17 35 78 81 84 84 85 95 100 100 100 93 99 90 94 86 95 82 82 99 100 100 93 78 73
6 7 7 7 6 7 7 7 6 6 6 7 7 6 5 5 5 5 5 5 6 6 5 4 4 5 6 12 17 18 25 63 90 87 83 86 94 100 100 86 89 99 99 95 82 75 82 89 97 100 100 96 85 71
6 6 7 7 7 7 7 7 6 6 5 6 7 6 6 5 5 5 5 6 6 7 6 4 5 5 10 15 18 17 19 29 70 82 91 90 99 100 100 80 94 96 100 93 79 79 82 88 89 100 100 91 83 71
6 6 6 6 6 6 6 6 6 5 6 7 7 6 6 5 6 6 8 8 7 8 7 8 9 11 14 16 17 17 18 19 27 54 72 93 100 94 96 82 100 94 100 94 82 84 87 93 98 95 97 88 81 77
5 5 5 5 5 6 6 6 6 5 6 7 8 7 8 6 6 6 8 8 8 10 8 10 13 16 17 18 20 21 21 21 21 27 42 68 99 100 96 87 98 97 98 94 87 96 94 100 100 100 92 93 100 86
4 4 4 5 5 6 6 6 6 6 6 7 8 8 8 8 8 8 9 9 9 10 11 11 15 18 22 25 23 22 21 20 20 20 24 34 69 99 100 97 100 100 97 97 91 100 100 100 100 99 95 100 100 93
4 4 5 5 5 6 6 6 6 6 7 8 9 9 10 10 9 9 10 10 10 12 13 12 17 23 23 26 26 26 26 26 25 23 22 23 34 56 92 93 97 100 94 90 92 100 100 100 100 100 100 100 100 98
4 5 5 5 6 6 6 7 7 7 8 9 10 10 10 14 12 11 11 11 12 13 16 16 17 25 33 36 35 32 30 31 31 32 32 28 26 28 43 83 96 95 98 100 100 100 100 100 98 99 100 100 100 100
4 5 5 5 6 6 7 8 8 8 9 10 10 11 13 20 19 12 12 16 15 15 17 20 19 24 38 44 52 50 44 44 45 49 52 51 43 35 30 32 53 90 96 100 100 99 100 100 100 99 100 99 100 99
4 5 5 6 6 7 8 9 9 9 10 11 14 14 16 22 28 23 18 18 19 18 19 21 22 30 37 54 64 71 69 68 73 75 81 86 79 70 55 46 43 42 50 76 94 99 99 99 99 96 100 99 98 100
5 5 6 6 8 9 10 11 11 11 11 15 15 15 23 24 35 31 28 22 22 25 21 23 26 27 36 53 73 85 93 82 83 95 95 99 99 96 88 80 74 54 55 59 62 66 71 78 84 100 98 89 89 90
6 6 7 8 10 10 12 13 14 14 14 17 18 19 25 26 32 37 37 39 27 28 27 23 29 30 32 36 42 64 78 82 87 88 90 93 97 94 85 84 79 82 90 91 86 80 94 94 92 95 93 82 80 82
7 8 9 10 12 13 14 15 17 16 18 28 23 22 28 30 36 46 49 38 38 35 28 24 26 34 37 36 37 44 40 50 78 87 89 89 89 88 92 94 92 96 91 94 99 98 92 93 95 96 93 96 90 84
8 9 11 12 15 16 17 18 19 21 25 27 24 32 32 32 43 47 70 47 35 35 35 28 25 27 33 44 44 36 49 62 73 80 86 91 88 84 87 90 97 99 99 99 97 93 94 96 96 93 86 87 95 100
10 11 13 14 16 17 19 21 22 27 28 28 27 29 32 30 46 52 84 74 53 41 34 33 29 26 26 32 36 45 47 48 48 56 66 72 76 79 84 82 82 84 88 93 95 97 98 98 97 96 96 99 100 99
12 13 15 16 18 19 22 25 28 30 32 31 32 36 37 35 43 53 69 75 75 62 51 40 36 32 29 27 30 33 37 49 56 55 50 47 58 69 82 87 81 74 73 76 77 78 81 84 87 91 94 96 95 94
13 14 15 17 19 21 24 26 29 32 33 32 33 34 39 40 41 46 53 54 72 79 60 48 48 40 30 29 28 30 36 36 33 36 43 61 67 60 47 44 51 64 66 74 80 76 71 66 67 72 74 76 77 80
13 14 15 18 20 22 22 25 28 29 32 34 36 36 39 43 46 46 46 61 69 61 61 54 53 48 35 30 28 27 26 30 35 37 37 37 37 39 41 52 65 68 64 54 50 51 53 57 61 66 72 77 79 76
12 13 15 18 20 20 21 25 24 26 29 29 32 34 37 38 38 39 47 60 58 33 43 48 48 48 34 30 29 26 25 25 25 28 30 31 33 36 37 38 38 38 37 39 47 51 54 52 51 48 41 40 46 54
12 13 14 17 21 22 20 20 22 25 26 30 32 32 34 34 34 38 45 45 35 32 39 38 37 37 33 31 31 28 25 23 23 23 25 27 26 25 25 25 26 28 33 31 29 31 32 29 27 29 35 43 50 54
11 11 14 17 20 22 21 21 23 26 29 31 32 32 34 32 33 36 39 33 30 31 32 33 32 32 31 30 29 27 25 24 23 22 24 27 27 25 25 26 25 24 25 26 22 20 20 23 26 26 25 24 24 24
11 13 16 19 19 20 20 21 24 28 30 31 33 31 31 33 35 37 31 28 29 30 30 30 30 29 30 29 27 26 24 22 21 19 20 22 24 25 24 23 22 20 21 21 20 19 18 18 19 20 22 22 23 23
12 15 16 18 19 18 19 20 24 27 28 30 30 30 31 34 32 29 28 28 28 28 28 27 26 27 27 25 24 25 23 21 19 18 19 19 20 21 22 22 20 17 16 16 18 18 18 17 17 18 19 19 19 20
15 18 21 17 18 19 19 20 22 24 26 25 25 27 29 29 28 29 28 27 26 27 26 26 26 25 24 24 23 23 22 20 18 18 18 17 18 19 20 19 18 16 16 16 15 14 16 17 18 18 18 19 19 19
16 18 20 16 15 14 18 21 21 22 24 26 27 27 28 27 28 28 27 26 26 25 25 24 23 23 23 23 22 20 18 17 17 17 18 18 18 17 17 16 15 16 17 16 14 14 15 16 17 18 17 16 17 18
8 7 6 7 8 12 15 15 20 22 25 25 26 26 25 24 26 27 26 25 25 24 23 23 23 23 23 22 20 18 17 16 17 18 18 17 15 13 13 15 16 16 16 16 15 14 14 15 14 15 18 20 22 23
6 7 7 7 8 9 12 14 17 22 24 25 26 26 24 25 25 26 24 24 24 22 21 22 23 21 20 18 16 15 16 17 17 17 15 14 13 13 14 13 13 14 14 14 14 15 20 25 27 29 30 31 33 37
10 10 8 9 10 11 13 16 18 21 24 26 25 24 25 25 23 24 23 24 22 21 22 21 20 20 17 15 15 16 16 16 15 14 13 14 14 14 13 13 13 13 14 18 21 21 21 19 16 12 10 10 10 12
8 7 8 8 10 15 17 17 20 21 21 22 22 23 23 23 23 22 24 22 21 21 20 20 19 16 15 16 17 16 14 14 13 14 14 14 14 14 14 14 14 20 21 19 15 11 8 6 5 5 5 5 6 6

GFSWCAN_250_rhum_054.txt.gz
RH
10 9 9 9 9 8 7 7 6 6 6 6 6 7 7 6 5 6 7 9 9 8 8 9 12 18 22 22 26 27 44 94 88 70 66 74 87 83 90 83 75 69 73 78 80 81 85 86 80 73 76 82 93 98
10 9 9 9 9 8 8 7 6 6 7 6 6 7 7 6 6 6 7 8 8 7 6 8 8 10 20 22 23 27 22 63 92 79 69 72 71 80 85 81 73 75 80 78 76 80 81 77 69 68 76 91 96 88
10 8 9 8 8 7 8 7 7 6 7 6 6 7 6 6 6 6 7 8 8 7 6 8 7 8 11 15 17 20 22 22 60 95 80 76 78 84 86 86 88 81 83 81 82 85 86 79 75 85 93 97 100 99
10 9 8 8 7 7 7 7 7 7 7 6 6 7 6 6 5 6 8 7 7 7 8 9 9 8 8 8 10 12 17 16 40 95 93 81 85 84 94 100 97 95 85 85 94 98 93 82 77 93 99 92 98 99
9 8 8 8 6 6 6 6 6 6 6 6 6 6 6 5 5 6 7 7 6 7 7 7 7 6 5 6 6 8 11 13 24 70 95 90 91 94 96 100 98 100 100 100 97 94 98 88 81 84 100 100 100 97
8 7 7 7 6 6 6 6 5 6 5 5 5 6 6 5 5 6 7 6 6 5 5 5 5 5 4 4 6 7 9 14 23 63 89 100 95 95 98 96 100 100 100 99 94 92 93 94 87 86 99 100 100 100
6 6 6 6 5 5 6 5 5 5 5 5 5 6 6 5 5 6 6 6 6 5 5 6 5 4 4 5 6 7 10 16 20 47 85 93 100 98 95 92 99 100 100 98 89 94 98 100 86 79 90 91 99 100
5 5 5 5 5 5 5 5 5 5 5 5 5 6 6 5 6 6 6 6 6 6 6 6 6 6 7 7 8 10 15 17 19 32 63 81 98 100 100 81 97 100 100 100 93 94 99 100 92 84 82 84 94 99
5 5 4 5 5 5 5 5 5 5 5 5 6 6 6 6 6 6 6 7 6 6 7 8 8 8 10 13 15 17 19 19 19 24 34 61 87 100 93 85 97 100 100 100 96 92 95 94 92 92 93 87 84 88
4 4 4 4 5 5 5 5 5 5 5 6 6 6 6 6 6 6 7 7 7 7 8 10 10 11 12 16 17 18 20 21 21 21 24 36 61 85 94 85 89 100 100 98 93 92 88 97 92 83 92 99 99 97
4 4 4 4 5 5 5 5 5 5 6 6 6 6 7 6 7 7 8 8 8 9 9 11 13 13 14 17 20 21 22 22 22 23 24 23 30 52 80 99 98 100 98 90 92 98 98 91 86 88 90 94 97 94
4 4 4 4 5 5 5 5 5 6 6 6 7 8 8 8 10 9 10 10 10 9 10 13 15 14 16 19 22 25 25 25 26 26 26 24 25 27 43 86 100 100 100 100 96 96 98 100 100 94 89 94 99 98
4 4 4 5 5 6 5 6 6 6 7 7 8 9 9 9 13 14 10 11 12 11 12 14 16 18 18 22 29 32 32 32 34 35 34 34 32 28 28 33 61 90 98 100 100 100 100 100 100 100 100 100 100 100
5 4 5 5 6 6 6 6 6 7 8 8 10 10 12 11 14 22 18 14 15 15 14 18 17 20 22 23 30 37 42 52 48 52 53 51 48 44 36 30 31 42 65 88 96 98 100 99 100 100 100 100 100 98
5 5 5 6 6 6 6 6 7 8 9 10 11 12 14 15 16 23 31 23 18 20 19 20 23 21 24 26 27 34 47 59 71 69 67 68 66 63 59 53 46 37 36 38 49 77 97 99 100 100 100 100 100 100
6 5 6 6 6 6 7 7 8 9 10 12 14 16 16 18 21 23 41 41 40 29 30 26 26 24 24 27 29 31 34 44 69 80 83 86 82 88 89 86 87 88 86 74 52 44 46 55 68 74 85 93 94 92
6 6 6 6 7 8 8 9 10 10 12 15 16 18 18 20 23 27 36 53 57 51 46 38 33 32 27 27 28 27 26 42 69 81 95 100 100 100 94 92 88 83 84 90 96 95 80 62 60 64 67 70 73 80
7 7 8 8 9 9 9 10 12 14 18 19 19 18 21 22 28 34 34 51 70 59 58 62 45 38 34 28 26 32 35 38 58 73 88 94 99 98 99 100 100 97 90 83 84 94 97 99 100 100 100 97 97 99
8 9 9 9 10 11 11 12 16 19 20 20 22 22 24 24 25 32 34 48 70 80 76 68 63 52 44 36 30 29 28 33 39 42 49 59 71 82 88 91 92 93 98 100 98 93 88 86 90 94 97 96 96 97
9 11 12 12 13 14 14 14 17 18 20 22 24 25 26 27 31 33 37 43 63 80 79 61 74 73 56 54 48 34 30 29 30 37 46 49 47 47 50 59 72 80 86 91 93 97 98 96 94 91 89 86 85 87
11 12 12 13 14 16 16 16 17 18 20 24 23 24 29 33 34 31 37 41 59 70 61 63 72 85 73 58 56 55 40 31 29 30 35 36 42 48 51 54 50 46 47 50 52 62 73 82 86 88 89 91 92 91
12 12 13 14 14 15 16 17 18 20 21 21 23 24 28 33 33 35 37 44 54 49 49 52 66 79 73 73 63 54 46 37 33 30 30 34 38 38 36 36 39 44 51 62 68 63 57 52 50 48 48 53 61 65
13 14 15 14 14 15 16 18 20 22 23 24 24 25 27 28 31 35 43 52 53 39 44 59 59 67 70 64 62 59 57 40 31 31 30 29 29 31 36 41 38 37 36 36 34 30 29 30 33 36 36 36 40 45
13 14 15 14 15 16 18 20 20 22 23 26 27 27 28 30 32 38 45 49 45 48 46 51 47 47 59 60 50 49 49 42 34 30 29 28 27 26 26 27 29 32 34 33 32 34 34 32 29 27 26 24 22 23
13 14 15 15 15 16 17 19 21 22 24 26 27 28 30 32 35 41 42 40 44 44 43 46 46 44 45 47 47 42 38 35 32 30 28 27 24 23 22 22 22 23 26 27 27 27 28 29 28 28 27 25 22 19
13 14 16 16 17 16 15 16 18 20 22 24 25 28 31 33 37 41 37 40 41 42 41 40 41 40 40 40 39 36 34 32 30 30 28 26 24 22 20 19 18 19 21 22 23 23 22 22 21 20 19 19 19 20
14 16 16 16 15 15 16 16 17 18 20 21 23 27 30 33 36 38 40 38 39 38 38 38 37 36 35 34 33 32 30 29 29 28 25 24 24 23 22 20 18 17 17 18 20 21 20 19 18 18 18 18 18 17
12 15 16 13 13 12 13 14 15 16 18 19 21 24 27 30 32 33 36 36 35 36 36 36 35 34 32 31 30 28 27 26 26 24 23 22 23 23 21 18 17 16 16 17 16 16 15 16 16 17 17 17 16 17
15 16 15 11 9 9 11 12 13 14 15 18 22 25 28 28 29 32 32 33 33 34 34 34 32 31 30 29 28 27 26 24 23 23 22 22 22 20 17 16 15 15 16 15 14 14 15 16 16 15 16 16 16 17
10 7 5 5 4 6 8 9 10 9 13 18 22 25 26 27 30 33 32 32 32 32 30 28 27 26 26 26 26 25 24 24 23 23 22 19 16 15 14 15 15 14 14 15 15 14 14 14 14 15 14 15 16 16
4 3 3 4 4 5 5 6 6 8 12 17 18 21 23 28 29 30 29 29 29 27 26 25 24 23 23 23 24 24 25 24 22 20 17 14 13 13 13 13 13 14 15 14 14 14 14 14 14 14 14 14 14 15
6 5 6 6 6 7 8 8 9 11 14 18 19 20 23 26 26 26 24 25 26 25 23 22 23 22 22 23 22 22 22 20 19 15 14 13 13 13 13 14 13 13 13 13 13 13 13 13 14 15 17 18 19 20
6 7 9 8 7 7 10 12 14 17 16 17 20 22 22 24 24 23 24 26 23 20 21 22 22 22 22 22 21 20 19 16 14 13 13 13 13 14 13 13 13 13 13 12 12 12 15 15 14 13 11 9 8 7

GFSWCAN_250_rhum_057.txt.gz
RH
13 13 15 10 12 14 12 15 12 10 8 7 7 6 6 6 6 7 7 8 8 8 8 8 8 9 14 21 24 20 22 28 27 52 80 90 86 75 83 96 100 98 97 97 99 100 100 100 98 96 97 96 100 100
12 12 11 10 11 12 12 13 10 8 7 6 6 6 6 6 6 6 6 7 8 8 7 8 8 7 10 13 17 22 20 22 26 31 58 82 77 73 93 99 93 85 87 95 91 86 83 82 88 92 91 93 99 100
11 8 9 10 10 11 10 10 8 7 7 6 6 5 5 5 5 5 6 7 7 7 7 7 7 7 8 8 12 16 18 18 22 25 34 73 74 84 99 100 86 76 73 75 80 82 88 92 88 81 77 77 77 86
7 8 9 10 10 10 8 8 7 6 6 5 5 5 5 5 4 5 6 7 6 7 7 7 6 7 7 8 11 11 13 13 19 23 28 63 76 82 96 98 82 75 80 82 81 87 88 86 85 78 71 73 80 95
6 8 8 8 9 9 7 6 6 5 6 5 5 5 5 4 4 5 6 7 6 7 7 7 6 7 7 8 9 8 7 8 14 20 23 54 82 83 90 99 89 87 80 82 84 83 84 85 87 86 88 90 94 96
7 8 8 7 8 7 6 6 5 5 5 5 5 5 4 4 4 5 6 6 6 6 6 6 6 6 7 7 6 5 5 7 10 16 20 41 78 83 95 100 100 94 92 84 85 89 96 100 100 94 88 93 100 99
5 5 6 7 7 6 5 6 5 5 5 5 4 5 4 4 4 5 6 6 6 6 6 6 5 5 6 6 5 4 5 6 9 14 19 30 64 95 96 96 100 99 100 95 97 93 96 100 99 91 87 80 85 96
5 5 5 6 6 5 5 5 4 5 5 5 4 5 4 4 4 5 6 6 6 6 7 6 5 6 6 6 6 5 6 7 9 11 14 26 57 96 97 79 99 100 100 100 95 100 100 100 100 98 92 89 86 87
5 5 5 5 5 4 5 5 4 5 5 4 5 5 5 4 5 5 7 6 7 7 7 6 5 6 7 7 7 9 9 10 10 13 16 25 47 81 78 81 98 100 100 99 98 92 98 100 100 97 99 95 98 93
5 4 4 5 4 4 5 4 4 5 5 5 5 5 5 5 5 6 7 7 8 8 7 7 6 7 8 9 10 12 14 16 17 18 19 25 34 54 74 77 85 99 100 99 100 100 93 98 100 100 100 100 97 98
4 4 4 4 4 4 4 4 5 5 5 5 5 6 5 5 5 6 7 8 8 8 8 7 8 8 10 11 13 16 18 19 21 21 22 22 25 39 56 78 86 98 100 100 100 100 100 100 100 100 100 100 100 99
3 4 3 3 4 4 4 4 5 5 5 6 6 6 6 6 6 7 8 8 9 9 9 9 9 10 12 13 15 18 21 23 23 23 23 22 24 28 43 63 82 90 99 98 97 99 100 100 100 100 100 100 100 100
3 3 3 3 4 4 4 4 5 6 6 6 6 7 7 7 8 8 9 9 10 11 11 11 11 12 15 16 18 20 22 25 26 27 27 25 25 25 26 34 55 83 93 100 100 94 94 99 100 100 100 98 97 100
2 3 3 4 5 4 4 5 6 6 6 6 6 7 8 9 9 9 11 13 12 14 14 14 13 16 16 18 21 23 25 29 28 29 31 30 30 28 25 25 28 36 60 82 98 100 99 94 95 99 100 100 100 100
2 3 4 5 4 4 5 6 6 7 7 7 8 8 10 10 11 11 14 17 14 14 16 17 17 17 20 20 25 28 28 31 34 37 39 40 39 37 34 30 28 27 27 33 52 77 96 100 98 97 100 100 100 100
3 4 5 5 4 5 6 6 7 7 7 9 10 12 12 12 14 16 19 31 25 19 20 22 23 21 21 21 24 27 26 40 52 55 56 62 62 57 50 43 44 40 33 30 29 30 43 72 93 98 100 100 100 100
5 6 6 5 5 6 7 7 8 8 9 12 14 14 13 15 19 22 24 37 50 41 37 31 29 25 25 26 23 25 38 49 75 90 88 74 81 81 84 82 80 77 73 76 68 51 40 35 37 45 59 76 87 91
6 6 6 6 6 7 8 8 9 10 12 13 14 14 14 17 22 25 27 29 48 66 66 57 46 42 38 32 31 26 26 38 44 40 50 73 89 96 97 98 96 96 98 96 94 94 93 87 85 86 74 61 53 53
7 7 6 6 7 8 9 9 11 12 13 14 15 16 17 20 23 26 31 36 39 48 78 77 67 59 56 51 43 40 33 29 32 44 48 46 52 74 91 98 100 99 97 96 98 97 96 93 93 95 94 94 94 95
7 7 7 8 8 9 10 10 12 14 15 16 16 18 20 23 29 29 34 43 57 53 70 70 63 74 64 61 70 60 60 56 42 32 33 36 46 51 51 56 68 78 88 96 98 99 100 99 97 98 98 99 98 98
7 8 8 8 9 10 11 13 14 15 16 18 18 19 20 24 29 35 38 38 66 76 66 51 66 90 77 67 69 74 72 77 75 63 45 34 34 36 39 45 53 55 53 52 53 57 66 77 84 88 91 93 94 95
8 9 10 11 11 13 14 14 14 16 17 18 20 22 24 28 35 39 38 44 70 68 61 47 63 79 82 76 79 78 77 75 70 70 73 58 39 33 31 31 34 35 36 38 41 46 52 56 55 53 50 51 54 55
9 10 12 13 14 14 15 15 16 17 18 21 23 24 25 26 31 37 44 50 49 53 52 54 59 65 71 66 62 61 67 77 80 81 79 71 61 44 35 32 30 29 28 29 30 32 32 32 31 31 31 30 31 35
11 12 13 13 14 15 16 16 17 17 19 21 22 23 25 29 30 35 38 36 42 52 47 46 48 55 61 58 62 66 65 66 72 72 68 69 68 56 45 35 31 30 29 28 26 24 23 23 25 27 28 30 31 29
11 11 11 12 13 15 16 16 17 19 20 20 22 24 26 28 29 30 30 36 40 44 48 49 51 55 57 55 56 54 50 50 48 46 47 51 49 42 37 32 29 28 28 26 24 24 23 23 22 22 23 24 25 24
12 12 11 11 13 15 16 17 17 18 20 20 21 22 24 25 27 29 31 34 35 37 40 43 45 50 49 46 46 45 43 42 41 39 39 37 36 34 31 29 28 27 27 25 24 22 21 20 20 20 20 21 22 23
14 13 13 13 14 14 14 15 16 16 18 19 20 22 22 22 22 24 27 30 32 35 38 40 42 44 46 45 43 40 40 38 36 34 34 32 30 29 29 28 26 25 24 24 23 22 21 19 18 18 18 17 17 18
12 12 11 10 11 11 11 12 12 13 14 15 16 19 20 19 20 23 25 27 29 32 36 38 39 39 39 38 38 37 35 34 32 30 28 27 27 28 27 24 24 23 22 22 21 19 17 16 15 15 15 16 17 17
11 11 10 8 8 8 9 9 10 10 11 12 14 16 19 20 21 24 26 27 28 30 33 36 37 36 35 35 34 32 31 30 28 25 25 25 24 24 24 23 23 23 22 19 16 14 14 14 14 15 16 16 15 15
7 6 6 5 6 7 8 8 9 9 10 11 13 15 17 17 18 23 27 28 27 28 30 31 31 33 33 32 31 30 28 26 25 25 24 23 23 23 23 22 21 19 17 14 13 13 14 15 14 14 14 14 14 14
7 6 6 6 7 8 8 8 10 10 10 10 12 14 15 16 19 22 26 26 24 26 28 29 29 28 29 29 28 27 27 26 24 24 24 23 21 20 19 18 17 14 14 14 15 14 14 14 14 14 13 13 13 13
4 4 4 5 5 4 5 5 6 7 7 8 11 14 16 16 18 20 22 22 25 28 29 26 25 27 28 27 26 25 24 24 24 23 21 20 19 18 17 14 13 14 14 14 14 14 14 13 13 13 12 12 13 13
5 6 7 9 8 8 8 6 7 8 9 13 15 16 16 16 17 16 15 22 27 26 24 25 28 27 26 24 23 23 24 23 21 20 19 18 17 15 13 13 13 13 13 14 14 13 13 12 12 12 14 17 17 16

GFSWCAN_250_rhum_060.txt.gz
RH
23 9 9 12 14 11 19 12 14 12 11 11 11 9 8 7 6 6 5 5 5 6 8 8 8 8 8 12 21 20 19 20 19 18 27 58 77 96 89 86 86 88 90 98 99 100 98 100 100 99 98 99 100 100
12 12 7 15 16 18 9 13 14 10 9 9 9 8 7 7 6 5 5 5 5 6 7 8 7 7 9 9 10 18 22 20 20 20 22 31 63 82 90 90 94 92 92 92 90 100 97 100 99 99 98 91 93 98
16 8 8 9 10 9 11 15 12 9 9 9 8 7 6 6 6 5 4 5 5 6 6 7 6 7 8 7 9 12 14 20 23 20 20 26 44 67 82 84 90 91 91 92 97 100 86 93 97 98 95 94 99 99
28 12 6 11 7 9 8 8 8 8 9 8 8 6 6 6 6 4 4 5 5 6 6 6 6 6 7 7 8 8 10 13 20 22 19 20 27 65 66 82 87 92 91 95 100 92 86 85 82 85 89 92 94 93
29 12 9 22 9 8 8 8 9 6 7 8 7 6 6 6 5 4 4 4 5 5 6 6 6 6 6 7 7 7 8 10 13 18 16 18 24 58 65 88 87 95 91 86 85 80 80 81 81 82 85 79 69 72
19 22 12 11 9 8 10 9 6 6 6 7 6 5 5 6 5 4 4 4 5 5 5 5 6 6 6 6 6 7 8 9 9 10 11 14 22 45 68 90 83 91 83 83 90 90 84 79 81 88 85 81 78 86
30 19 19 11 9 11 7 7 8 6 6 6 5 5 5 6 5 4 4 4 5 5 5 6 5 6 6 6 6 7 8 7 6 7 8 10 20 39 68 85 75 91 86 95 94 89 86 86 85 81 88 93 89 91
39 57 18 15 16 12 8 8 7 6 6 6 5 5 5 5 5 4 4 5 4 5 5 5 5 5 6 6 6 7 7 6 6 6 7 9 20 36 73 52 84 93 91 91 100 99 98 99 96 90 92 98 100 100
65 29 17 16 15 11 6 7 6 5 5 5 5 5 6 5 5 4 5 5 5 5 5 5 6 6 6 6 6 7 7 7 6 6 8 11 22 37 40 63 88 96 96 91 96 100 100 100 100 98 98 99 99 100
32 28 14 13 9 7 6 6 5 4 5 4 5 6 6 5 5 5 5 5 5 6 6 6 6 7 6 6 7 8 9 9 9 8 9 12 19 23 32 68 72 95 94 94 96 100 99 100 100 100 99 100 100 100
25 21 14 9 7 6 5 4 4 5 4 4 5 6 6 5 5 5 6 6 6 6 6 7 7 7 7 7 8 9 10 12 13 13 12 12 14 18 28 64 84 83 93 98 97 100 100 98 100 100 96 100 100 100
12 11 6 5 5 4 4 4 4 4 4 5 5 6 6 5 6 6 6 6 8 8 8 8 9 8 8 8 9 11 12 14 15 16 17 17 18 19 22 40 67 87 86 90 97 95 99 99 100 100 100 99 100 100
7 5 5 4 4 4 4 4 4 4 5 5 6 6 6 6 7 6 7 7 9 10 10 10 11 10 9 10 11 14 15 16 18 19 20 20 21 21 25 30 40 64 89 95 98 94 89 92 100 100 99 100 99 99
4 4 4 3 3 4 4 5 5 4 5 6 6 6 7 8 8 7 8 9 11 12 12 12 14 12 11 13 14 16 19 22 23 23 23 22 22 23 23 26 32 40 58 79 95 98 97 93 90 100 100 100 100 99
3 3 3 4 4 4 5 6 5 5 6 6 7 7 9 9 8 9 9 11 12 13 14 15 17 16 14 15 16 18 23 24 32 33 30 29 26 27 26 24 24 24 26 34 51 72 91 95 94 95 100 100 100 100
3 4 4 4 4 5 6 5 5 6 7 7 8 9 10 9 10 10 11 12 16 18 18 20 22 21 20 18 18 21 27 39 51 48 45 44 40 37 37 35 31 29 27 26 26 29 37 57 84 95 97 95 96 98
4 4 4 5 5 6 6 5 7 8 9 9 9 8 10 10 12 13 14 14 18 23 22 24 28 28 26 24 24 22 31 35 49 48 59 65 72 60 66 75 69 66 62 50 43 36 32 29 30 35 50 79 94 95
4 4 5 6 6 7 5 6 8 9 9 8 10 10 11 11 13 16 16 17 21 31 32 27 25 30 33 31 26 25 27 30 43 48 46 46 54 65 66 75 87 85 87 95 95 94 88 82 74 63 46 38 38 43
5 6 7 7 7 6 6 7 9 10 10 10 12 12 13 13 16 20 23 23 26 33 46 55 44 35 41 43 42 35 33 32 29 35 43 47 51 60 72 82 88 91 94 97 98 100 100 100 100 100 100 100 98 94
6 7 7 7 7 6 6 8 10 12 12 13 14 15 15 15 18 23 29 30 34 39 57 68 47 68 60 57 55 53 48 44 37 37 34 31 35 44 52 56 65 78 87 89 88 89 88 88 88 90 94 96 99 99
7 7 8 8 7 7 8 10 12 13 14 14 16 17 18 17 20 27 35 38 48 65 70 54 52 99 89 61 71 67 64 68 70 64 53 49 46 40 34 35 43 50 57 58 60 65 74 79 77 78 82 82 84 86
9 9 9 7 7 8 9 11 13 15 16 17 18 18 20 20 21 31 38 44 57 63 59 56 56 70 80 79 70 71 78 81 77 75 76 76 77 70 66 60 44 34 33 36 39 43 47 51 52 52 52 52 53 54
10 10 7 7 8 10 11 13 15 16 17 17 17 18 22 23 22 25 34 42 46 49 68 49 60 63 61 61 75 77 84 92 88 74 74 77 71 68 66 64 62 58 49 40 36 32 29 28 27 29 30 33 34 33
9 8 9 10 11 12 13 14 16 16 16 17 18 19 21 23 25 26 28 37 44 45 50 46 58 75 72 67 81 84 81 84 89 86 81 78 71 67 61 55 50 51 51 48 39 33 31 30 29 28 27 26 25 24
9 9 11 12 13 13 13 13 15 16 16 17 18 20 21 22 22 24 28 31 36 39 42 40 44 58 66 66 64 69 73 77 80 71 67 62 53 50 52 49 43 43 42 38 35 33 32 30 28 27 26 25 24 24
10 11 11 12 13 13 13 14 14 16 16 17 18 19 20 21 23 25 27 28 32 35 38 40 41 45 49 54 57 60 64 65 63 58 53 46 43 42 42 41 40 39 36 32 30 29 28 28 27 26 25 25 25 24
9 9 9 9 10 11 11 12 13 14 15 16 17 17 17 19 21 23 25 29 31 31 34 39 41 43 47 48 50 56 58 57 53 48 44 39 36 34 34 35 33 31 31 29 27 26 24 24 24 23 23 22 22 22
10 8 8 8 9 11 11 11 11 12 13 15 16 17 17 18 19 21 23 25 26 29 32 34 35 37 38 41 46 49 49 46 42 39 35 33 32 32 32 30 29 28 27 26 26 25 24 22 21 21 20 20 18 17
7 7 7 8 10 11 12 12 12 13 14 15 16 16 18 17 18 20 21 23 25 27 28 30 32 32 35 40 42 42 40 39 37 33 32 31 30 30 31 28 27 26 25 23 22 21 21 21 20 19 17 15 14 13
6 6 6 7 8 8 8 9 10 10 11 12 13 14 16 16 16 19 19 20 21 22 25 28 29 31 34 35 34 34 33 32 32 32 30 28 27 27 27 26 25 24 22 22 21 20 20 18 15 13 13 13 13 13
7 6 7 8 8 8 8 8 9 10 10 11 12 13 13 13 13 14 16 16 17 18 20 25 29 28 28 29 28 29 30 31 30 29 28 27 25 24 22 22 22 23 22 21 19 17 15 13 12 13 12 12 12 12
7 7 7 7 6 5 5 5 6 7 7 8 8 8 8 9 12 12 13 13 13 16 18 23 23 22 24 23 26 28 28 29 29 28 27 24 23 21 21 21 21 20 18 16 14 13 12 12 12 12 12 12 12 12
7 6 5 5 6 6 6 7 8 9 9 9 10 10 11 12 14 14 14 12 14 16 19 18 16 18 21 22 24 26 26 27 27 25 23 22 21 21 20 19 18 16 14 13 12 13 12 12 11 11 11 11 12 14

GFSWCAN_250_rhum_063.txt.gz
RH
28 29 17 11 18 10 14 14 13 22 22 28 17 34 13 13 15 14 9 9 8 7 6 6 6 6 6 8 9 10 11 13 20 20 21 23 28 64 71 80 83 77 70 65 86 82 85 88 94 96 96 90 95 99
35 32 19 18 16 14 10 24 15 14 16 23 14 13 11 12 12 16 9 8 7 7 6 6 6 6 7 7 8 9 13 15 17 19 22 23 27 37 78 80 83 81 79 84 77 86 86 86 86 83 84 85 83 86
52 38 24 29 29 22 10 17 15 10 16 14 19 17 10 10 10 11 8 8 7 6 6 5 5 6 6 6 8 9 9 12 17 20 20 24 26 28 44 82 77 84 87 87 89 84 82 96 100 95 90 87 89 93
54 29 42 41 22 35 13 11 26 18 21 18 14 12 12 10 9 8 8 6 6 6 6 5 6 6 6 6 8 8 8 11 12 15 20 22 24 27 29 56 80 72 82 84 85 88 93 92 92 94 93 87 83 83
46 47 57 53 40 37 22 18 17 24 18 16 16 8 8 9 8 8 7 6 6 6 5 5 5 5 6 6 7 7 8 9 9 10 14 21 25 23 26 30 71 70 66 84 86 94 93 99 94 92 93 95 96 95
63 59 50 34 43 42 14 27 25 20 18 18 10 9 7 7 7 6 6 5 5 5 5 5 5 5 5 6 7 7 7 7 8 9 12 16 22 22 24 28 41 73 60 75 88 96 98 94 90 91 92 87 90 87
65 56 62 69 40 28 21 51 24 38 25 12 10 8 8 6 6 6 5 5 5 5 5 5 5 5 5 6 6 7 7 6 8 8 11 12 14 17 20 25 25 70 60 81 84 90 83 84 76 78 85 86 82 79
64 74 68 59 46 16 48 38 64 30 26 17 12 7 7 6 6 6 4 4 4 5 5 5 5 5 6 6 6 7 7 7 7 9 9 8 8 11 17 17 21 70 69 86 85 80 78 77 82 85 83 84 87 83
61 78 90 40 50 42 62 55 35 26 14 17 7 7 6 6 6 5 4 4 4 5 5 5 5 5 5 5 6 6 6 6 8 8 8 7 8 10 10 11 22 64 70 84 85 80 84 93 93 92 92 90 90 91
78 74 58 70 46 56 48 44 27 17 8 7 6 6 6 5 6 5 4 5 5 5 5 5 6 6 6 6 6 6 6 7 8 8 8 8 7 7 10 12 28 71 71 83 92 88 100 99 98 100 96 90 82 81
82 74 37 68 58 72 48 22 14 6 7 5 6 5 5 5 6 5 5 5 6 6 6 6 6 6 6 6 6 6 6 7 8 9 9 8 7 8 9 15 28 72 76 76 97 98 98 100 100 96 97 99 94 93
63 44 30 33 34 25 15 8 5 4 4 5 5 5 5 6 6 6 6 6 6 6 7 7 8 7 7 7 7 7 7 9 10 11 12 12 10 9 10 17 25 62 84 78 87 100 100 96 100 100 99 94 93 96
32 34 34 21 18 8 4 4 3 4 5 5 5 5 6 6 6 7 7 7 7 8 9 9 9 8 9 8 8 8 8 10 12 13 15 16 16 14 13 18 25 42 88 87 83 84 92 100 98 99 100 100 99 94
32 16 9 8 5 6 4 4 4 5 5 5 5 6 7 7 7 7 8 9 8 9 10 10 10 10 10 10 10 9 11 12 15 17 20 20 20 19 18 17 22 28 63 93 89 87 91 91 93 100 100 99 99 98
9 9 9 5 4 5 5 4 5 6 6 5 5 7 7 8 8 8 9 9 10 12 12 12 12 12 12 13 12 12 12 15 17 20 22 24 24 23 22 21 21 24 34 64 94 99 98 92 90 90 96 100 100 100
8 8 5 5 5 5 5 5 6 5 5 5 6 7 8 8 8 9 11 12 12 14 14 14 15 15 15 16 16 18 17 17 17 21 25 28 29 28 26 25 26 25 26 33 44 59 76 90 96 96 95 95 96 99
6 5 5 5 5 5 6 6 5 5 5 6 7 8 9 9 9 11 12 15 15 16 18 18 17 18 19 21 21 23 20 17 22 24 28 34 40 42 39 35 31 32 31 30 30 30 31 33 38 51 68 85 94 98
5 5 6 5 5 5 5 4 5 5 6 6 8 9 10 10 11 14 16 17 17 19 21 24 23 23 23 26 30 28 27 23 24 25 31 27 30 39 47 46 41 42 43 45 48 48 42 37 34 32 31 32 34 38
5 6 5 5 4 4 4 4 5 6 7 8 10 11 11 12 14 17 19 18 18 22 28 32 31 31 33 36 37 37 34 31 29 31 30 36 37 42 48 55 62 64 61 67 74 74 78 84 86 86 82 76 73 67
6 4 4 4 4 4 5 5 6 7 8 10 12 12 14 14 16 19 21 20 23 28 38 43 31 37 41 37 39 44 49 54 47 40 36 31 34 40 44 46 49 51 55 62 72 78 80 80 80 80 83 90 94 93
3 4 4 4 5 6 6 7 7 8 10 11 12 15 16 17 18 21 23 22 26 41 51 31 32 66 68 43 33 37 47 56 63 67 56 50 52 55 48 36 34 36 41 46 51 56 61 64 70 77 80 81 84 85
4 4 5 6 7 8 8 8 8 9 11 13 15 16 17 18 19 21 22 26 34 38 45 27 36 77 89 78 63 56 60 69 76 75 69 66 70 74 72 67 62 58 55 43 35 34 36 39 42 45 48 49 49 49
4 5 5 6 8 8 8 7 8 10 13 15 17 18 19 19 18 19 24 27 30 32 39 45 47 50 58 67 62 58 75 92 95 94 89 90 84 74 72 72 70 66 61 57 58 58 55 48 39 35 32 31 30 29
4 4 5 7 8 8 7 8 10 12 14 16 18 19 20 20 20 20 23 28 30 34 42 43 44 50 49 52 68 83 70 73 92 93 91 92 89 85 76 68 64 60 57 54 54 52 50 51 49 45 39 35 32 30
4 5 6 7 7 7 8 10 10 12 14 17 18 19 20 19 20 21 22 24 28 32 34 36 44 45 52 56 55 58 64 67 75 87 81 80 84 81 77 73 68 61 52 44 42 39 36 34 36 38 37 34 30 28
5 5 6 7 7 8 10 10 12 13 14 16 19 20 19 19 20 22 23 24 26 30 32 36 38 45 52 56 60 60 70 76 77 76 79 78 77 82 85 77 67 61 50 42 36 35 34 33 32 32 30 29 28 28
5 5 6 7 8 10 11 12 12 13 14 15 17 19 20 20 20 22 23 24 25 27 29 30 31 36 40 42 48 57 64 69 72 71 69 70 70 72 75 74 62 51 43 36 35 34 33 32 30 29 28 26 26 25
5 6 7 8 8 10 11 11 11 12 12 13 15 17 19 20 20 20 21 22 23 24 26 28 29 31 32 34 37 42 47 48 49 51 53 56 58 57 57 54 45 40 37 35 34 32 30 28 27 25 24 23 22 23
6 7 8 10 11 11 10 10 10 10 11 12 12 14 16 18 18 18 19 19 20 21 21 22 22 25 27 30 33 36 39 43 46 46 45 45 45 42 42 39 40 36 34 32 30 28 26 25 24 22 22 21 20 19
5 5 6 7 8 8 9 10 10 10 10 10 11 12 13 14 16 18 18 18 18 17 17 17 18 19 21 24 26 29 32 35 37 38 38 37 35 33 34 34 34 34 30 28 25 23 22 21 20 20 19 19 17 16
5 5 6 6 6 6 8 9 10 10 10 11 11 12 12 12 13 14 16 15 14 15 16 16 18 20 21 24 25 26 28 30 30 30 30 28 27 28 30 31 31 30 27 24 22 20 19 18 18 16 15 13 12 12
7 7 7 7 7 7 7 7 7 8 7 8 8 8 8 9 10 10 10 9 9 10 11 15 19 21 24 23 22 25 25 26 26 25 24 24 25 26 25 25 25 23 22 21 20 19 18 17 14 13 12 12 13 13
7 6 5 4 4 4 5 5 6 8 9 9 9 8 9 9 10 11 9 9 10 12 14 17 20 22 21 20 18 21 23 22 22 22 23 24 25 24 23 22 21 19 18 18 18 16 14 12 12 12 12 13 13 13

GFSWCAN_250_rhum_066.txt.gz
RH
75 65 57 46 29 25 25 34 28 22 19 20 25 26 22 34 35 46 42 34 23 17 9 9 5 5 6 7 8 7 8 8 10 12 14 16 21 22 24 40 69 54 51 48 47 52 70 65 69 85 76 72 88 97
71 64 51 39 29 31 37 32 35 30 16 19 33 26 23 19 17 36 14 14 9 15 7 7 5 5 5 6 8 8 8 8 10 12 14 18 21 22 24 27 50 70 65 60 59 54 61 78 85 78 77 83 100 100
64 50 40 37 37 38 42 31 30 31 26 32 27 33 35 27 22 41 23 14 9 13 9 5 5 4 5 6 8 8 7 7 8 10 13 18 22 25 27 27 30 59 77 65 66 67 63 70 96 98 87 83 80 89
63 58 51 54 32 41 39 36 32 36 31 43 36 32 28 28 33 53 20 9 6 5 5 4 5 4 5 6 7 7 7 8 8 9 13 17 23 30 29 28 32 37 64 76 79 80 82 84 82 84 94 96 89 86
65 58 58 42 44 49 49 43 34 31 47 28 36 44 29 20 26 24 21 9 7 5 4 4 4 4 4 6 7 7 7 7 8 9 10 13 18 22 35 38 34 33 34 78 81 90 84 88 88 87 88 83 83 85
82 63 60 48 51 58 42 51 34 25 29 30 27 38 34 44 37 29 62 13 6 5 4 4 3 4 4 6 7 7 6 6 7 8 9 11 15 19 28 37 32 29 34 37 81 81 96 87 95 98 95 85 81 83
91 74 65 60 61 53 57 48 19 35 29 31 33 42 45 32 21 19 15 17 6 4 3 3 3 4 4 6 7 6 6 6 6 8 9 10 12 14 21 27 25 28 31 32 58 80 89 93 86 90 91 86 85 83
88 70 66 65 53 68 56 35 20 27 24 35 33 62 47 41 20 18 10 5 5 4 4 3 3 4 5 6 6 7 6 6 6 8 9 9 10 13 17 20 18 22 26 29 31 71 81 95 90 89 87 85 86 90
75 70 68 60 56 43 62 34 25 30 26 38 40 43 56 34 24 20 5 4 5 4 4 4 3 4 5 6 6 6 6 7 7 8 9 9 11 14 15 10 12 16 19 23 25 55 69 85 88 86 92 85 82 81
84 66 65 52 64 66 52 26 36 26 32 30 34 35 51 48 53 12 5 4 5 4 4 4 4 4 4 6 6 6 7 7 7 8 8 10 12 9 9 10 9 11 13 18 23 51 67 82 80 76 84 76 78 83
100 88 66 56 56 52 42 16 28 30 29 34 52 44 45 38 21 7 5 4 5 5 4 4 5 5 5 6 6 6 6 7 7 7 9 9 8 9 10 8 8 9 11 16 22 54 72 80 76 72 76 80 80 79
100 87 84 73 70 60 31 23 28 28 43 33 26 24 20 13 6 7 5 5 6 5 5 6 6 6 7 7 7 7 7 7 7 8 8 10 11 11 11 10 8 10 12 16 22 56 79 86 79 78 84 86 86 88
91 71 85 79 56 26 26 34 29 21 37 34 16 12 6 6 7 6 6 6 6 6 6 6 7 7 8 8 8 8 8 9 9 9 10 11 12 14 14 13 12 13 15 21 26 61 89 98 92 90 95 94 90 93
77 84 81 42 23 21 18 17 22 22 20 12 9 6 6 6 6 6 6 7 8 7 6 7 9 9 9 8 9 8 10 10 9 10 11 13 14 16 17 16 13 14 22 28 37 64 96 100 100 100 100 100 100 99
77 77 58 26 22 10 14 14 14 13 10 7 6 6 6 6 6 6 7 8 8 8 8 9 11 11 10 10 11 11 12 12 11 10 13 15 16 18 20 20 19 18 25 35 44 75 97 100 100 100 100 100 100 100
64 42 56 26 21 15 10 9 8 6 5 6 6 6 6 6 6 6 7 9 9 9 10 11 14 13 12 12 12 13 14 13 13 13 15 18 21 23 25 23 22 23 24 29 38 56 92 96 99 100 100 100 100 100
38 34 21 27 16 8 16 8 6 6 6 6 6 6 6 6 6 7 9 10 11 11 11 14 16 15 15 13 14 20 19 16 18 17 17 19 21 22 29 28 28 26 25 26 32 43 65 90 93 96 99 100 100 100
13 12 20 10 9 15 8 7 6 6 6 6 6 5 6 6 7 8 10 12 13 13 15 17 19 18 15 16 24 24 22 22 20 20 20 22 23 24 26 34 36 33 31 28 28 29 32 42 58 73 83 87 88 88
11 13 10 8 8 7 7 6 6 6 6 5 4 5 6 8 8 10 12 14 14 16 19 23 26 25 21 32 32 31 30 30 28 27 25 25 29 38 41 42 46 48 48 40 37 38 36 33 30 30 31 32 32 32
8 8 7 7 7 7 6 6 6 5 4 4 5 6 8 9 10 12 14 15 18 20 26 33 32 26 33 39 42 41 36 35 38 36 33 30 29 27 30 37 40 47 53 59 66 74 74 68 63 64 69 72 75 74
6 6 6 6 6 5 5 5 4 4 4 4 6 8 10 11 12 13 16 18 21 27 32 26 24 32 47 54 43 40 45 51 56 55 55 51 44 40 38 33 32 31 32 37 43 46 48 53 60 66 74 80 83 85
6 6 6 5 4 4 4 4 4 4 4 6 8 10 11 12 14 14 16 22 25 25 28 24 28 55 63 53 49 49 52 53 58 62 62 62 70 76 75 68 60 59 58 52 48 42 38 35 36 38 40 43 46 47
4 4 4 3 3 3 4 4 4 4 6 7 10 12 13 13 14 16 19 22 25 25 28 31 37 51 67 63 57 60 62 60 57 58 62 63 68 66 68 69 68 67 68 64 62 62 60 60 59 58 57 56 53 49
3 3 3 3 3 4 4 4 5 5 5 8 11 12 12 13 14 17 19 21 25 28 28 30 36 46 51 63 66 64 67 70 74 75 73 73 72 71 74 78 79 74 69 67 65 63 61 57 52 48 45 43 40 40
3 3 3 4 4 4 4 5 4 4 5 8 12 14 14 15 16 18 19 22 25 26 29 30 34 42 51 52 56 57 56 59 60 71 78 83 84 82 82 83 87 84 78 76 77 75 72 64 57 53 47 40 39 40
4 4 5 5 5 5 5 4 4 4 8 11 13 14 16 16 17 18 19 21 22 25 28 29 27 28 39 49 46 44 50 52 54 53 56 57 66 84 93 98 98 91 79 74 70 68 66 64 61 54 45 41 42 40
6 5 5 5 6 6 5 4 4 6 8 11 13 14 14 15 15 16 18 20 22 23 23 25 26 25 26 31 38 40 42 45 46 48 55 56 56 68 75 79 78 77 73 70 66 64 61 55 48 39 37 38 38 37
5 5 5 5 5 5 4 4 5 7 9 10 12 13 13 13 14 15 17 19 20 20 19 20 22 23 23 24 25 29 32 32 34 38 41 43 48 55 65 70 68 66 66 60 52 46 44 39 36 36 35 34 32 31
4 5 6 6 5 5 5 5 7 8 10 11 12 13 14 14 14 14 15 16 16 17 18 17 18 19 20 22 23 26 30 32 33 34 34 34 39 46 53 55 58 53 47 42 38 35 34 33 33 33 31 29 27 26
5 5 5 5 5 5 6 7 9 10 10 11 11 12 12 12 12 14 13 13 14 14 14 16 17 18 18 20 20 23 26 28 31 32 34 36 37 40 48 50 46 39 35 32 30 30 30 30 29 26 25 23 22 23
4 4 5 5 5 6 7 8 8 8 8 9 9 10 10 9 10 11 11 10 9 9 10 11 13 14 16 18 20 22 23 26 28 29 30 30 30 32 33 32 30 30 30 29 28 29 28 26 23 21 20 21 20 20
5 5 5 5 5 5 6 6 6 7 6 7 6 6 7 7 8 7 8 8 8 8 9 11 14 14 16 17 17 18 19 20 22 24 25 25 24 23 22 23 25 26 26 27 28 26 24 22 21 22 20 17 16 14
6 6 6 5 4 4 5 5 6 6 6 6 6 6 7 7 9 10 8 7 9 11 11 12 14 15 16 17 18 18 20 20 21 22 22 20 19 19 20 22 23 23 24 23 22 22 22 21 19 17 16 13 12 12

GFSWCAN_250_rhum_069.txt.gz
RH
75 75 71 65 55 57 54 52 49 51 43 39 25 24 30 21 18 26 28 42 52 71 51 36 25 17 6 6 5 4 6 6 6 7 8 10 11 14 15 18 21 26 42 57 47 37 36 44 53 59 54 50 54 55
96 93 86 75 71 71 65 54 53 51 42 33 28 30 28 24 23 27 35 47 56 81 64 43 27 16 7 5 5 4 5 6 6 7 8 9 11 13 15 19 22 28 31 48 62 49 42 41 51 69 74 71 69 69
100 100 100 93 88 73 66 61 52 41 41 34 27 31 29 24 22 26 40 60 59 54 55 44 16 6 5 5 5 4 4 6 6 7 8 10 13 14 17 18 25 28 31 34 69 70 62 57 58 67 85 84 77 75
100 100 98 90 86 78 65 58 46 46 41 30 29 31 24 24 26 37 35 43 48 42 47 21 11 5 4 5 4 4 4 6 6 7 7 10 12 14 18 23 23 32 33 36 48 79 81 71 57 62 80 98 100 90
100 100 100 94 86 67 58 58 50 43 34 26 40 41 26 26 26 32 39 56 42 36 24 12 6 4 5 4 4 4 4 6 6 7 8 10 11 13 18 29 26 27 33 41 40 59 86 82 78 77 78 87 94 91
100 100 93 94 82 66 68 64 56 48 37 24 37 28 19 19 25 45 45 47 42 30 14 8 4 4 4 4 4 4 5 6 6 6 7 9 11 12 18 34 26 30 36 40 41 42 64 100 82 72 74 86 93 95
100 100 94 88 86 80 79 65 64 60 47 32 22 24 23 35 37 31 42 41 32 14 12 8 5 4 4 4 4 4 5 6 6 7 8 8 10 13 23 31 27 32 36 46 40 36 43 75 93 85 81 71 81 88
97 97 100 93 84 82 81 73 59 51 56 52 32 27 37 31 28 38 46 39 32 15 9 6 4 4 4 5 4 5 6 6 6 6 7 9 9 13 23 27 17 22 30 35 49 45 32 38 74 86 83 80 76 80
100 100 100 97 91 86 81 63 55 49 51 38 20 26 29 33 36 38 47 42 15 11 8 5 4 4 5 5 5 6 6 6 6 6 7 9 10 13 20 12 9 15 21 23 29 37 25 29 34 71 85 81 71 74
100 100 96 100 100 89 77 74 51 45 38 28 24 31 29 41 34 49 36 26 11 8 6 5 5 5 5 6 6 6 6 6 6 6 8 9 10 10 10 10 11 16 16 18 19 23 21 22 29 39 73 83 83 73
100 100 100 100 96 79 79 71 48 34 35 16 31 28 25 31 41 55 49 11 14 7 6 6 5 5 6 6 8 8 7 7 7 7 8 8 8 9 11 14 14 14 13 15 14 12 12 16 26 36 65 71 81 79
100 100 99 94 89 74 63 57 54 31 17 30 34 28 34 30 52 57 29 20 7 7 6 6 5 6 6 6 7 8 8 8 8 9 8 8 10 11 12 13 13 13 12 10 11 11 11 15 24 42 69 77 88 92
98 98 90 83 87 71 48 52 39 34 20 27 30 27 30 46 24 13 12 7 6 7 6 6 6 7 7 7 7 7 7 7 8 8 10 9 10 10 12 13 13 12 11 9 9 10 12 19 24 59 75 88 91 87
100 100 95 80 99 99 80 59 28 25 22 18 30 35 39 20 33 16 6 6 7 7 6 6 7 8 8 9 9 8 8 8 7 9 9 9 10 11 12 14 15 14 12 11 11 12 16 23 34 73 85 93 95 88
100 94 100 100 86 90 57 27 23 24 23 29 33 20 19 21 13 6 6 6 7 7 6 7 8 9 10 10 10 9 8 8 9 10 10 11 11 14 16 16 17 18 15 12 12 14 20 27 54 88 96 98 99 98
100 100 100 82 80 75 39 17 16 25 30 34 26 21 18 8 6 6 6 7 6 6 6 8 10 11 12 12 11 10 10 11 11 12 13 14 13 15 19 20 21 21 20 20 20 23 26 35 57 93 95 99 100 100
100 100 94 52 60 61 26 25 17 22 44 28 31 29 11 6 6 6 6 6 6 6 7 10 12 13 13 14 12 14 14 13 15 15 15 16 16 19 22 22 26 26 24 23 24 33 41 46 57 79 98 97 100 100
100 98 64 54 47 34 28 29 28 36 30 22 33 7 6 6 7 6 6 5 6 7 10 12 13 15 14 15 17 20 17 17 20 20 19 20 20 25 29 28 28 31 32 29 25 25 31 42 54 71 75 89 94 99
86 70 43 34 27 33 36 34 24 30 32 48 10 6 6 6 6 5 4 6 8 10 12 15 18 17 16 20 25 27 19 22 24 25 25 26 25 24 25 34 37 37 38 41 41 37 32 29 32 39 46 55 65 75
67 45 35 34 34 28 29 32 35 45 15 6 6 6 6 6 5 4 5 7 11 13 15 19 19 17 18 21 27 28 25 26 25 30 35 36 31 27 25 30 36 41 51 57 60 64 62 54 50 50 48 45 42 40
37 28 31 24 26 38 34 14 7 6 6 6 6 6 5 4 4 5 6 9 14 15 15 17 16 18 19 22 27 26 25 35 43 43 37 37 38 38 34 34 32 31 34 40 42 46 53 63 68 69 71 72 74 76
16 19 18 14 11 10 8 6 5 5 6 6 5 4 4 4 5 7 8 11 13 14 16 17 19 22 28 28 30 32 34 46 50 45 47 51 54 55 51 48 45 44 46 43 40 41 42 41 43 44 45 46 49 50
7 7 8 7 5 4 4 4 5 5 5 4 4 4 4 5 6 8 10 11 13 15 16 17 22 28 26 32 40 40 42 40 40 49 55 61 63 64 62 64 65 66 66 65 66 68 70 71 70 70 71 70 70 70
5 4 4 4 4 4 4 5 4 4 4 3 4 4 4 5 7 10 11 12 13 14 15 16 20 26 29 32 44 47 52 42 40 46 56 66 71 70 63 66 67 67 68 69 69 69 67 67 67 65 63 62 60 58
4 4 4 4 4 4 4 4 3 3 3 4 4 4 4 6 8 10 12 12 13 14 16 17 18 23 27 25 30 40 42 48 53 59 67 64 64 67 68 68 67 68 72 74 74 75 79 79 78 76 73 69 66 61
4 4 4 4 4 3 3 3 3 3 4 3 3 4 4 6 8 10 11 12 14 15 15 17 19 20 23 25 23 27 37 41 46 55 59 59 60 64 70 74 80 87 80 79 85 90 91 90 89 86 84 81 69 60
3 3 3 3 3 3 4 4 4 4 4 4 4 4 5 6 9 12 14 14 15 15 16 17 19 20 21 22 24 26 29 36 39 41 44 49 54 54 56 55 58 62 61 70 84 87 88 90 87 79 70 65 66 63
4 4 4 4 4 4 4 4 5 5 5 4 4 5 6 8 10 12 14 15 16 17 17 17 17 18 20 22 24 26 27 29 32 36 43 44 46 46 50 51 52 56 58 63 68 73 77 74 67 63 60 55 47 41
5 5 5 5 5 5 5 5 6 6 6 5 6 6 7 9 11 12 13 13 13 13 13 13 14 15 17 18 19 20 23 26 27 26 27 28 30 35 45 41 43 44 47 51 52 55 55 56 53 50 46 38 34 33
5 5 5 5 6 6 6 6 6 5 5 5 6 6 7 8 9 11 11 10 10 10 10 11 11 12 13 15 16 17 19 20 20 21 24 25 25 29 36 38 38 37 38 39 41 41 39 39 37 35 30 28 29 29
4 4 4 4 5 5 5 5 5 5 5 5 5 5 6 7 7 8 8 7 7 7 8 9 10 11 13 14 15 16 17 18 19 19 20 21 21 24 26 28 30 31 31 30 29 29 29 28 26 25 25 25 25 26
4 4 4 4 5 5 5 5 5 5 4 4 5 6 6 6 6 6 6 7 9 10 10 11 11 11 12 13 14 15 15 14 17 18 19 21 21 22 23 24 26 29 28 27 26 24 23 22 22 23 23 24 24 22
4 5 5 4 4 4 4 4 4 4 4 5 5 5 5 5 6 6 6 6 6 7 7 7 7 8 8 9 10 11 12 13 14 16 18 19 19 20 18 17 20 20 21 21 21 21 21 21 21 23 24 21 18 16

GFSWCAN_250_rhum_072.txt.gz
RH
65 65 85 89 87 78 62 47 42 48 53 64 64 68 69 69 69 45 30 32 44 52 37 48 58 73 41 22 11 8 5 5 6 6 5 6 8 9 11 13 17 19 18 20 30 44 47 41 39 40 52 54 53 49
93 97 92 83 67 63 59 60 59 64 70 74 73 75 63 60 54 42 40 36 37 35 53 46 38 55 23 15 11 7 4 5 6 6 6 7 7 8 10 14 18 20 22 21 21 32 49 52 46 42 45 53 60 57
87 81 76 74 66 68 66 69 76 79 76 75 83 72 62 51 41 39 30 35 30 41 37 37 40 48 27 11 8 5 4 5 6 6 7 7 8 8 10 11 16 24 26 27 26 29 42 61 56 46 47 53 61 68
87 95 92 91 80 84 77 86 82 78 79 77 71 65 60 47 42 32 26 36 20 24 38 48 47 42 19 8 6 4 4 5 5 6 6 8 9 8 10 11 12 20 28 32 30 28 35 36 64 65 57 70 77 86
94 93 97 95 92 87 78 84 83 78 80 83 68 59 50 48 43 26 38 37 24 33 51 43 44 29 13 7 5 4 4 5 5 6 7 8 10 10 10 13 13 15 19 26 32 34 30 38 51 80 70 63 74 94
100 100 100 93 100 100 100 91 91 89 84 76 70 61 50 44 35 23 30 31 31 40 57 43 39 24 13 6 4 4 5 5 4 5 6 8 8 8 10 16 14 16 23 26 32 41 45 42 42 49 88 89 77 72
100 100 100 100 97 93 90 88 87 90 80 80 63 51 47 39 39 29 34 25 24 38 53 35 25 18 11 6 4 4 5 5 5 5 8 8 7 8 11 16 15 16 26 34 35 40 48 44 49 45 55 88 90 81
100 100 100 100 100 99 100 95 93 100 86 68 55 44 38 35 45 46 28 31 28 45 39 32 21 16 9 6 4 4 5 5 5 6 6 7 7 9 14 17 12 16 26 31 40 57 65 53 43 46 44 48 84 94
100 100 100 100 100 100 100 100 98 87 83 67 55 46 30 38 43 50 30 29 39 46 41 52 26 9 6 6 5 5 5 6 6 6 6 7 9 14 17 12 11 14 26 29 42 61 67 62 59 51 41 40 43 83
100 100 100 100 100 100 100 86 82 79 70 72 63 40 26 42 36 37 37 29 39 48 58 39 21 8 5 5 5 6 6 6 7 7 6 9 11 10 10 9 11 13 25 36 41 42 43 43 51 56 45 25 33 39
100 100 100 100 100 98 91 90 88 73 67 71 54 38 23 26 32 40 27 40 57 65 70 32 11 6 6 5 6 7 6 6 7 7 7 8 8 9 11 13 13 15 19 19 19 21 22 23 24 27 22 20 28 31
100 100 100 100 100 100 99 97 90 71 66 60 48 22 15 28 28 36 33 47 51 75 74 44 8 6 6 5 6 7 6 6 7 7 7 7 8 9 12 13 12 12 13 14 15 15 15 16 15 15 16 15 24 27
100 100 100 100 100 100 100 99 90 71 65 57 42 31 24 34 32 29 36 60 58 71 51 20 7 7 6 6 7 8 8 8 8 8 8 9 9 9 10 11 12 13 14 13 14 14 13 11 10 10 11 13 22 25
100 100 100 100 100 99 90 86 74 65 50 45 29 27 21 26 27 40 39 48 46 44 34 7 7 7 6 7 8 8 9 10 10 11 10 10 10 10 11 12 12 13 15 16 16 15 13 11 10 11 12 14 22 26
100 100 100 100 99 89 97 81 72 56 36 37 20 19 25 29 34 42 41 38 53 49 7 7 8 7 7 8 8 9 10 11 12 12 12 12 12 12 11 13 15 17 18 18 17 15 12 12 13 14 18 21 24 46
100 100 100 100 100 91 78 56 55 41 36 26 22 22 35 34 32 34 30 46 54 10 7 7 7 7 8 8 9 11 13 14 13 14 13 13 13 14 14 15 18 19 19 19 18 16 14 13 16 20 24 26 42 67
100 100 100 92 86 80 61 57 46 38 29 14 19 31 48 34 41 37 32 28 10 7 7 7 7 7 8 10 11 13 15 15 15 16 15 14 14 15 15 16 18 21 23 23 22 20 20 22 24 27 30 45 75 88
100 100 100 100 98 86 62 52 42 45 46 38 54 51 39 46 36 37 30 7 6 7 7 7 7 8 9 11 15 16 17 15 15 17 18 18 18 18 17 20 22 24 26 28 26 24 24 25 29 33 43 59 67 87
100 100 100 100 100 94 72 61 52 48 47 55 55 49 45 60 44 65 13 5 7 7 7 6 7 9 10 13 16 20 18 17 17 19 22 24 24 22 21 23 26 28 29 30 34 34 31 30 30 32 37 42 52 67
100 100 100 100 100 89 68 67 53 53 50 44 50 48 50 56 53 12 6 6 7 7 6 6 8 9 12 15 19 22 20 18 20 21 25 30 32 26 22 24 25 27 38 42 42 44 50 48 41 39 38 38 40 46
100 90 83 80 82 66 53 51 59 63 61 58 60 62 54 25 6 5 5 6 6 5 6 6 9 11 15 20 24 26 24 19 21 23 24 31 42 36 31 30 27 28 30 32 36 46 52 56 61 65 62 56 56 58
93 96 85 79 68 43 27 39 42 42 59 55 56 45 13 5 5 5 5 6 5 5 6 7 10 13 14 17 20 31 38 31 23 25 25 26 38 45 42 37 36 35 34 34 34 35 38 43 47 50 54 58 62 65
51 56 55 45 27 21 41 44 41 47 47 20 8 6 5 4 5 5 5 5 4 5 6 8 10 12 13 16 19 26 31 28 27 33 32 31 33 34 42 44 44 48 52 50 51 55 57 61 66 70 70 69 69 69
23 19 16 12 18 29 27 23 11 8 7 6 5 4 4 4 5 4 4 4 5 5 8 11 12 13 15 16 17 20 24 26 28 36 41 40 44 42 38 42 48 52 54 60 65 67 69 74 78 79 77 75 74 73
5 6 7 10 10 8 7 6 6 5 5 5 4 4 4 4 4 4 4 5 5 6 8 10 13 15 15 16 17 18 20 24 27 31 38 45 49 50 49 47 50 56 58 59 63 66 67 66 70 74 75 73 71 71
6 7 7 6 6 6 5 5 5 5 5 4 4 4 4 4 4 4 5 5 6 7 8 10 13 15 16 16 17 19 21 25 29 30 34 39 46 48 54 55 57 61 57 61 66 65 66 65 68 74 78 82 85 87
6 6 6 6 6 5 5 5 5 5 4 4 4 4 4 4 4 5 6 6 6 7 8 10 12 14 15 15 15 16 19 22 25 28 32 35 39 45 52 54 55 53 50 52 56 61 65 70 73 75 82 86 85 83
6 6 6 6 6 5 5 5 4 4 4 4 4 4 5 6 5 6 6 6 6 7 9 11 12 13 13 14 15 16 17 19 21 22 24 25 29 34 36 38 43 48 48 51 54 57 59 61 63 65 68 70 73 69
6 6 6 5 5 5 5 5 5 4 4 5 6 7 7 6 5 6 6 5 5 6 8 10 11 12 12 13 14 14 15 16 18 19 21 22 21 21 23 27 31 35 37 38 40 42 45 47 49 52 50 46 43 42
5 5 5 6 6 6 6 6 6 8 8 7 6 6 5 4 4 4 4 4 4 5 6 7 8 10 10 11 12 12 13 14 14 15 16 17 18 20 22 22 22 25 30 34 36 39 41 42 42 40 37 34 33 32
6 6 7 7 8 8 8 7 6 6 5 4 4 4 4 3 3 3 3 4 4 5 6 6 7 8 8 8 9 10 10 12 14 15 16 16 17 18 21 23 25 27 28 29 31 34 37 37 34 32 29 27 26 26
7 8 7 7 7 6 5 4 4 3 3 3 4 4 4 3 4 3 4 5 6 6 7 8 8 8 9 9 10 10 11 11 13 14 16 18 18 19 20 23 25 27 28 26 25 25 23 22 22 21 20 21 22 23
7 6 6 5 4 3 3 3 4 4 4 4 4 4 4 4 4 4 4 4 5 6 7 7 6 6 6 7 7 7 8 8 9 11 13 14 15 17 18 19 20 21 22 21 20 20 19 19 19 19 21 21 20 18

GFSWCAN_250_rhum_075.txt.gz
RH
100 95 100 99 100 100 97 69 87 95 90 76 64 59 56 56 54 59 68 84 83 71 68 51 37 46 52 47 41 22 12 6 4 4 4 5 6 7 8 8 9 13 15 17 20 22 31 45 45 39 39 46 49 44
100 99 100 100 100 94 75 98 98 83 66 66 62 59 55 58 62 67 76 71 75 81 71 45 36 43 53 48 45 21 10 5 4 4 4 5 6 8 9 8 9 11 11 18 22 20 25 39 44 43 40 39 37 45
98 100 100 99 92 92 100 92 79 73 66 72 66 56 55 60 68 65 70 65 80 69 66 56 36 42 63 52 33 16 10 5 4 4 4 5 6 7 9 10 9 12 13 14 22 23 22 28 42 57 49 44 44 46
100 100 100 100 97 85 80 82 79 78 77 66 57 58 52 56 53 62 82 76 81 56 56 48 40 43 47 43 31 14 10 5 4 4 4 5 5 6 8 8 11 14 18 13 15 21 26 26 30 41 61 53 44 43
100 100 100 96 90 88 86 93 92 90 80 77 68 70 58 48 45 62 83 93 59 46 52 42 37 37 53 41 24 16 8 5 5 5 5 5 5 6 7 9 9 10 13 17 17 26 26 31 32 32 39 66 68 56
100 100 94 97 95 94 99 88 90 100 83 71 77 76 73 52 40 54 81 76 54 42 40 43 38 32 45 43 22 17 5 5 5 5 5 5 5 6 7 10 8 8 12 15 18 27 31 36 37 36 40 46 70 77
100 100 100 100 100 100 100 96 94 95 88 78 76 80 69 62 51 57 57 49 44 46 39 46 32 49 50 40 23 18 5 5 5 5 5 5 5 6 10 11 9 9 12 15 16 20 24 34 45 51 52 49 54 66
100 100 100 100 100 100 100 100 100 93 88 78 72 68 65 58 57 53 52 64 48 36 48 52 29 42 48 52 26 19 5 5 6 5 6 7 8 9 12 11 10 9 11 14 19 22 24 31 38 45 56 64 60 58
100 100 100 100 100 100 100 100 98 93 82 75 74 74 70 59 56 42 51 44 47 49 45 30 40 52 62 42 25 11 5 5 6 6 7 10 10 12 10 9 9 10 13 14 22 31 34 36 42 51 56 56 62 64
100 100 100 100 100 100 100 100 100 100 92 92 92 85 71 62 52 40 47 40 50 41 36 39 51 51 49 35 21 9 6 6 6 7 7 9 10 8 8 8 8 10 13 16 22 31 38 42 43 49 61 63 58 59
100 100 100 100 100 100 100 100 100 100 100 98 92 78 70 59 47 44 48 50 47 47 46 51 57 65 69 35 16 6 6 6 7 7 8 8 9 10 10 10 10 10 12 17 25 27 30 34 41 50 54 54 59 55
100 100 100 100 100 100 100 100 100 100 96 95 91 86 70 65 53 47 39 54 55 62 43 41 58 60 71 46 9 6 6 7 8 8 7 8 10 12 11 11 12 14 17 20 22 24 26 28 32 34 36 36 35 32
100 100 100 100 100 100 100 99 94 99 100 100 100 92 78 72 60 37 49 43 47 40 50 54 52 74 49 15 7 7 6 7 8 9 9 9 10 13 13 13 14 15 16 17 18 18 19 21 25 25 22 18 16 16
100 100 100 100 100 100 100 100 98 100 100 100 91 81 74 63 37 36 46 49 40 64 59 59 71 98 54 7 6 6 6 7 8 9 10 10 11 11 12 13 14 15 15 15 16 17 18 17 17 17 16 15 13 11
100 100 100 100 100 100 100 100 100 100 100 96 89 75 64 44 25 40 43 30 43 64 59 59 49 50 55 8 7 6 7 8 9 10 11 12 12 12 13 13 14 15 15 15 16 17 17 18 18 18 15 13 12 12
100 100 100 100 100 100 100 100 100 100 100 98 90 61 51 32 38 33 41 45 49 53 60 52 51 75 22 8 7 7 8 10 10 11 13 14 13 13 15 14 14 15 15 15 17 18 19 19 20 16 15 15 17 18
100 100 100 100 100 100 100 100 100 94 92 75 58 44 49 35 36 48 50 51 44 57 63 41 44 18 7 8 7 7 8 11 12 15 16 17 16 18 18 17 16 16 17 18 20 21 21 20 18 17 19 20 24 28
100 100 100 100 100 96 98 98 90 76 71 67 52 41 28 23 35 41 40 47 57 61 77 46 21 6 6 7 7 8 10 12 14 18 22 22 21 22 22 20 19 20 20 22 24 24 26 24 22 22 22 25 30 38
97 96 96 89 85 91 88 82 81 72 74 57 40 39 37 42 62 57 45 53 64 61 32 20 6 6 7 7 7 8 11 14 16 20 23 24 24 25 27 25 22 22 24 28 30 30 32 31 28 29 31 33 33 37
100 100 100 100 95 98 83 67 62 60 79 80 53 48 38 44 32 33 61 65 60 29 10 6 6 6 7 7 7 10 14 16 16 23 25 26 26 33 33 31 27 26 26 28 34 35 35 35 34 35 36 38 41 47
100 100 100 100 100 100 100 100 100 78 57 49 33 30 36 32 36 57 62 40 16 6 5 5 6 6 6 6 7 9 14 17 18 21 24 26 34 32 37 37 35 32 29 29 30 34 45 46 46 49 50 45 44 43
100 100 100 100 100 96 86 83 75 77 54 50 38 32 34 43 52 49 19 7 5 5 5 5 6 6 6 6 7 10 13 16 18 24 26 30 36 46 36 33 34 37 34 34 32 32 39 39 48 56 59 61 64 65
100 100 100 100 94 90 85 67 51 40 36 36 29 33 35 29 16 8 6 5 5 4 5 6 6 6 6 6 7 9 12 16 17 24 26 25 37 48 55 47 36 36 37 37 35 37 37 36 37 39 42 45 45 46
46 36 33 32 27 31 24 20 19 20 18 33 35 21 10 7 6 5 4 4 4 5 5 6 5 5 5 5 7 10 13 16 18 20 25 24 26 37 42 46 54 53 48 44 39 40 41 44 41 42 50 55 59 62
26 23 18 18 21 17 12 9 8 12 11 9 7 6 5 5 5 5 5 5 5 5 5 6 6 5 5 6 7 11 14 16 20 21 24 24 26 28 30 37 43 45 46 45 50 49 46 49 52 57 60 62 63 66
6 6 6 6 6 6 7 10 10 8 6 5 5 5 5 5 5 5 5 5 5 5 5 6 6 6 6 6 8 11 14 16 17 19 21 24 26 27 28 31 38 42 40 46 50 52 54 52 50 55 60 62 63 66
5 5 7 8 11 10 7 6 6 5 5 5 5 6 6 6 5 5 4 4 5 5 6 7 6 5 6 6 8 11 13 14 15 16 19 21 22 26 28 28 30 33 36 42 46 52 58 62 62 58 57 58 58 56
9 10 8 7 6 6 6 6 6 5 5 6 6 5 5 4 5 5 5 4 5 6 7 6 6 5 5 5 7 10 12 13 13 14 14 16 18 20 22 25 30 32 33 33 34 38 44 50 51 50 50 52 56 57
7 7 6 6 6 5 6 6 6 6 6 6 5 5 5 5 5 4 4 4 5 6 6 6 6 5 4 4 6 8 10 11 11 12 12 13 15 16 18 20 22 23 26 30 34 35 37 39 42 46 48 50 52 55
6 6 6 6 6 6 6 6 6 6 6 6 6 5 5 5 5 5 5 6 6 6 5 5 5 5 4 4 5 7 8 9 10 10 11 12 13 15 17 19 22 23 24 25 26 29 32 35 40 42 43 44 43 41
6 6 6 6 6 6 6 6 6 6 6 6 6 6 6 5 5 5 5 5 4 4 4 4 5 4 4 4 5 6 7 8 9 9 10 9 10 12 14 17 19 21 24 28 30 31 31 32 34 35 34 33 32 29
6 6 6 6 6 7 6 6 6 6 6 6 5 5 4 4 4 4 4 4 4 4 5 5 4 4 4 4 5 6 6 6 8 8 8 9 10 11 13 15 16 18 19 20 22 24 26 26 26 26 25 24 23 22
6 6 7 7 7 6 6 5 5 5 4 4 4 4 4 4 4 4 3 4 4 4 4 3 3 3 4 4 5 5 6 5 5 6 6 6 7 8 10 11 13 14 16 17 17 17 17 16 15 16 18 19 19 21

GFSWCAN_250_rhum_078.txt.gz
RH
73 97 100 100 100 100 100 100 100 100 100 100 99 81 77 84 82 68 66 56 55 79 74 47 65 73 64 62 55 64 61 41 14 12 8 4 4 4 5 5 6 8 10 10 12 19 14 22 32 39 48 50 48 61
74 83 92 100 100 100 100 100 100 100 99 97 92 86 84 79 65 61 57 50 59 91 89 54 64 80 69 72 57 60 62 38 17 11 8 4 4 4 6 5 6 8 9 10 15 16 15 19 20 28 39 47 46 47
83 82 95 97 100 100 97 99 100 94 87 96 98 98 90 79 65 67 55 48 55 60 85 63 73 96 79 79 55 70 61 41 17 11 6 4 4 4 6 6 6 8 10 10 12 14 17 20 20 23 28 37 47 44
100 93 92 95 99 100 98 97 90 89 96 99 97 94 78 68 74 62 58 50 57 53 68 72 72 79 72 56 63 50 64 32 14 10 5 4 4 5 5 7 8 8 10 10 11 12 17 24 27 25 23 29 44 53
100 100 100 100 100 100 100 100 100 100 99 99 93 93 75 66 56 69 65 63 59 57 70 90 67 70 80 59 70 58 45 33 15 9 4 4 5 6 6 8 10 8 8 9 10 16 22 25 24 27 28 33 38 59
100 100 100 100 100 100 100 100 100 89 98 94 93 85 71 78 75 71 69 65 61 60 68 73 63 62 65 64 47 50 58 34 14 8 6 4 5 6 7 10 10 10 10 12 14 20 19 20 26 31 32 32 30 39
100 100 100 100 100 100 100 100 100 100 100 100 100 92 85 76 69 61 41 43 51 62 74 70 67 56 65 59 47 50 55 32 16 11 6 5 6 7 8 10 8 9 11 12 12 14 20 34 38 32 31 34 37 33
100 100 100 100 100 100 100 100 100 100 100 100 97 85 85 71 60 43 45 48 50 61 71 60 64 58 56 65 49 48 63 31 17 9 8 6 6 7 7 5 8 9 11 12 12 12 14 17 30 39 43 42 43 47
100 100 100 100 100 100 100 100 100 100 100 100 92 79 73 64 61 56 48 45 52 68 68 65 58 63 71 46 46 48 56 38 16 7 7 7 7 6 5 7 8 9 12 13 13 12 13 15 20 27 34 41 44 46
100 100 100 100 100 100 100 100 100 100 100 93 100 83 72 60 68 61 59 46 53 60 63 58 63 67 73 51 48 65 53 42 14 6 6 8 7 7 7 8 11 12 13 14 14 14 16 17 20 27 38 50 56 56
100 100 100 100 100 100 100 100 100 100 100 100 99 90 80 80 74 62 69 52 52 59 66 74 68 69 64 46 52 75 77 48 14 6 5 8 7 8 9 10 10 12 13 14 14 14 16 17 20 24 32 41 47 52
100 100 100 100 100 100 100 100 100 100 100 100 100 100 82 82 73 71 60 52 60 69 70 76 68 69 57 47 66 68 61 38 12 6 5 7 8 9 10 12 12 12 12 14 17 21 22 23 26 28 33 40 45 51
100 100 100 100 100 100 100 100 100 100 100 100 100 96 95 95 83 66 61 63 65 64 81 64 78 46 45 55 72 77 63 20 9 6 6 7 8 9 11 11 12 12 14 17 19 22 26 27 29 30 32 36 36 35
100 100 100 100 100 100 100 100 100 100 100 100 99 93 84 81 78 76 70 66 62 69 68 81 77 50 49 66 64 37 36 11 6 6 6 7 8 10 12 13 13 14 17 21 23 24 25 25 25 26 27 28 26 25
100 100 100 100 100 100 100 100 100 100 100 100 100 99 84 89 94 82 68 65 64 68 72 81 52 43 57 57 62 35 20 8 5 6 6 7 9 11 13 14 15 17 18 19 20 20 19 18 19 20 21 22 22 20
100 100 100 100 100 100 100 100 100 100 100 100 100 98 98 99 92 87 79 71 68 75 68 45 45 45 71 59 33 36 10 6 5 6 6 7 10 11 13 14 17 17 16 17 17 17 18 19 20 20 20 21 20 20
100 100 100 100 100 100 100 100 100 100 100 100 100 100 100 100 100 87 78 82 67 69 50 36 54 54 60 55 36 13 6 5 6 6 6 8 11 12 14 16 17 17 18 17 17 17 17 17 18 21 22 22 21 17
100 100 100 100 100 100 100 100 100 100 100 100 100 100 100 100 99 78 68 69 63 40 52 46 47 63 38 35 19 7 5 5 7 6 6 8 11 13 16 19 20 20 20 19 18 18 19 19 22 23 24 24 23 20
100 100 100 100 100 100 100 100 100 100 100 100 100 100 100 91 80 76 69 44 45 55 60 53 62 55 51 24 10 6 5 6 7 6 6 9 12 14 18 23 23 26 25 23 23 24 23 24 26 26 28 28 26 28
100 100 100 100 100 100 100 100 100 100 100 100 98 86 78 74 66 54 45 40 56 51 48 53 49 32 19 10 7 5 5 6 7 7 7 10 14 16 20 30 29 29 33 31 32 32 30 32 34 32 32 33 32 30
100 100 100 100 100 100 100 100 100 100 95 90 82 75 63 48 47 42 49 50 54 52 66 43 14 12 7 6 6 5 5 6 7 7 8 10 14 18 23 27 33 32 35 37 38 36 35 33 37 40 38 39 34 33
100 100 100 100 100 100 100 96 82 72 71 71 66 58 50 41 45 32 38 47 52 58 28 10 6 6 6 5 5 5 6 6 7 8 9 9 12 20 27 37 37 44 38 32 36 36 37 38 36 38 46 45 41 42
91 81 75 80 85 86 92 94 90 84 74 68 54 52 43 35 30 33 33 55 46 19 8 6 5 5 5 5 5 5 6 6 6 7 8 9 10 15 21 28 38 43 49 45 36 32 34 35 34 36 37 36 40 44
99 100 100 100 99 86 79 82 72 51 45 41 35 32 29 25 18 28 55 28 10 7 5 4 4 5 5 5 6 5 5 5 5 6 8 10 12 14 18 22 29 38 40 39 42 41 45 46 41 37 38 35 34 32
91 77 76 75 68 58 47 48 47 36 27 25 21 22 28 21 20 21 12 7 6 5 5 5 5 5 5 6 5 4 4 4 5 6 6 10 14 19 21 26 35 45 46 39 42 41 41 43 44 46 47 48 51 51
54 53 55 67 59 41 36 32 26 23 16 12 13 16 16 13 9 8 6 5 5 5 5 5 5 4 4 5 4 4 3 4 5 5 6 8 12 16 19 20 22 28 38 40 40 44 45 46 47 49 51 55 58 57
12 13 13 14 12 11 10 10 10 10 12 13 12 9 7 6 6 6 5 5 5 5 5 4 4 4 4 4 4 4 3 4 5 5 6 7 10 12 15 17 20 21 27 33 38 39 43 44 42 42 43 51 56 57
10 9 8 8 8 8 10 14 16 12 8 7 7 6 5 5 5 5 5 5 5 4 4 4 4 4 4 4 4 4 4 4 4 5 6 6 8 11 13 15 17 18 20 22 28 34 36 38 39 42 44 45 47 50
8 10 13 14 12 12 9 8 7 7 6 6 5 5 5 6 5 5 4 4 4 4 4 4 4 4 4 4 5 5 5 4 4 4 4 4 5 8 12 12 14 14 16 18 21 24 28 32 33 33 37 40 42 42
12 10 10 9 8 7 7 6 6 5 5 5 6 6 5 4 4 4 5 6 5 4 4 4 4 4 5 5 5 4 4 4 4 4 4 4 5 6 8 10 12 13 13 14 16 18 20 24 28 31 35 38 40 41
7 6 6 6 6 5 6 6 6 6 6 6 5 4 4 4 5 6 6 5 5 5 5 5 5 5 5 5 4 4 3 3 4 4 4 4 5 6 8 9 9 10 12 12 13 14 16 19 20 22 24 26 27 29
6 6 5 5 5 5 6 6 6 5 5 4 4 4 4 5 5 5 5 5 4 4 4 4 4 3 3 3 3 3 3 3 2 3 4 4 5 5 6 8 9 9 10 11 12 14 16 18 19 20 21 23 23 23
5 5 5 6 6 5 5 5 4 4 4 4 5 5 5 5 4 3 3 3 4 4 3 3 4 4 4 4 3 3 4 4 4 4 5 5 5 5 6 6 7 7 7 8 10 11 13 15 16 17 17 17 17 18

GFSWCAN_250_rhum_081.txt.gz
RH
50 64 53 53 64 84 98 100 96 89 100 100 100 100 100 100 98 97 90 91 97 84 65 47 58 52 54 59 54 51 62 75 66 59 19 12 12 6 5 4 4 5 6 7 9 9 9 7 18 18 27 31 37 41
54 70 63 74 78 82 98 98 95 96 99 100 100 100 99 100 98 89 86 95 92 81 56 48 58 57 52 56 51 58 62 66 72 51 34 11 14 7 4 5 5 6 6 7 10 11 10 11 15 17 20 24 30 36
66 73 76 82 86 80 85 100 97 99 100 98 100 100 100 99 92 81 86 99 91 95 84 65 60 61 66 56 57 53 51 58 62 57 48 15 16 9 5 6 6 6 8 8 10 10 11 13 17 21 23 25 27 34
78 90 94 100 99 82 80 90 96 90 98 100 100 96 96 88 87 87 87 74 72 94 96 67 66 68 58 58 53 59 58 53 62 60 61 18 16 9 5 6 6 7 8 8 8 8 12 14 21 23 21 22 22 25
83 100 100 100 100 98 93 94 92 96 100 100 96 88 90 94 90 78 65 63 79 70 74 54 61 55 55 59 60 52 62 59 70 56 51 18 12 9 6 6 6 6 7 8 7 14 16 18 20 18 21 26 26 26
100 100 100 100 100 100 100 100 100 100 100 100 100 88 99 100 82 78 76 76 72 68 56 60 67 59 56 62 65 51 59 52 70 62 46 22 14 10 5 4 6 6 6 9 9 14 14 14 14 18 28 34 32 31
100 100 100 100 100 100 100 100 100 100 100 100 100 99 100 100 89 88 79 72 65 65 57 66 68 66 65 71 62 50 58 59 57 56 48 20 12 11 5 5 8 8 8 9 10 14 14 16 16 16 22 32 46 54
100 100 100 100 100 100 100 100 100 100 100 100 93 99 100 89 100 89 78 67 62 58 70 69 74 67 65 70 58 59 60 62 56 51 43 15 8 8 6 6 7 8 10 9 10 12 15 14 14 14 19 23 34 53
100 100 100 100 100 100 100 100 100 100 100 100 100 100 100 94 89 87 76 65 52 57 76 68 68 64 61 66 58 64 57 66 60 55 40 20 8 6 6 6 7 8 9 13 13 12 14 15 16 18 18 25 32 48
100 100 100 100 100 100 100 100 100 100 100 100 100 100 100 100 97 83 74 63 54 77 72 70 65 72 67 56 65 63 64 72 60 50 57 39 9 5 6 6 7 9 10 13 14 13 14 15 16 16 18 20 27 38
100 100 100 100 100 100 100 100 100 100 100 100 100 100 100 100 94 75 74 70 74 70 72 70 72 72 75 66 61 65 66 74 58 34 34 23 9 6 6 6 7 9 11 12 13 14 14 14 15 16 16 18 21 26
100 100 100 100 100 100 100 100 100 100 100 100 100 100 100 99 92 82 80 74 64 67 74 74 66 72 80 69 64 59 69 66 59 39 18 14 7 6 6 6 8 9 11 14 14 15 15 16 17 17 19 21 23 27
100 100 100 100 100 100 100 100 100 100 100 100 100 100 100 88 93 93 84 70 70 79 82 70 73 77 74 55 60 61 77 58 42 30 18 10 7 6 6 7 8 10 12 14 16 17 18 20 20 21 25 28 30 33
100 100 100 100 100 100 100 100 100 100 100 100 100 96 99 100 99 82 100 100 88 81 73 73 72 70 66 59 67 81 68 43 25 20 15 9 6 5 6 7 8 11 13 15 18 21 24 24 23 24 25 27 29 31
100 100 100 100 100 100 100 100 100 100 100 100 89 100 100 94 88 89 94 94 88 78 75 75 62 64 70 76 74 66 52 42 22 13 10 8 6 5 6 7 8 10 14 16 16 19 21 22 21 22 22 23 23 23
100 100 100 100 100 100 100 100 100 100 97 97 100 100 99 100 100 98 92 95 79 82 78 72 65 74 69 77 77 66 38 34 27 16 10 7 5 5 7 8 8 13 14 15 16 18 20 20 20 20 21 21 22 22
100 100 100 100 100 100 96 100 100 100 100 100 100 100 87 92 100 100 100 91 78 80 83 80 76 74 78 81 64 39 24 32 20 19 9 6 5 5 6 8 9 11 14 19 23 23 22 22 22 22 22 22 24 24
100 100 100 100 100 100 94 100 100 100 100 100 100 100 100 100 100 100 96 89 77 82 81 88 83 75 86 74 39 33 32 20 20 13 7 6 5 5 7 8 8 10 15 18 20 21 23 23 23 23 23 23 23 24
100 100 100 100 100 100 100 100 100 100 100 100 100 100 100 100 100 99 89 86 92 95 93 79 70 82 80 47 41 26 23 17 14 8 7 6 5 6 7 8 9 12 16 19 21 22 23 23 24 24 25 25 25 26
100 100 100 100 100 100 100 100 100 100 100 100 100 100 100 100 98 95 90 93 98 87 86 71 70 65 49 39 32 18 12 9 7 6 6 6 6 6 7 8 8 12 18 22 25 26 28 28 27 27 28 28 30 30
100 100 100 100 100 100 100 100 100 100 100 100 100 98 98 100 99 89 80 79 80 78 67 76 52 38 38 35 23 14 8 7 6 6 6 6 6 6 7 8 9 13 18 23 26 27 26 29 29 33 34 34 37 40
100 100 100 100 100 100 100 100 100 100 100 100 100 100 100 99 88 83 78 75 75 76 78 41 41 42 30 28 13 8 7 6 6 6 6 6 6 6 6 8 9 9 16 25 28 32 32 32 29 31 34 42 51 54
100 100 100 100 100 100 100 100 100 100 100 100 100 100 100 94 87 79 81 84 81 49 42 42 50 40 26 11 8 6 6 6 6 5 5 6 6 6 7 7 8 8 12 17 25 25 32 40 36 32 34 34 34 36
100 100 100 100 100 100 100 100 100 100 100 100 100 86 77 78 76 86 84 53 38 36 54 45 35 26 12 7 6 6 5 6 6 5 5 5 5 6 6 6 7 8 10 16 24 25 29 38 40 40 42 43 46 46
100 100 100 100 100 100 100 100 97 91 87 84 88 87 86 77 65 47 43 36 40 40 36 13 8 7 6 6 5 5 5 6 6 6 5 5 5 5 6 6 7 8 10 14 23 33 36 35 43 48 48 47 46 41
100 100 100 100 100 97 96 92 89 90 89 87 77 62 49 43 36 39 41 45 26 10 8 6 6 6 5 5 5 5 5 6 6 6 5 4 5 5 5 6 6 7 8 12 16 21 27 32 34 35 42 47 48 47
93 95 94 86 85 88 82 76 66 53 51 45 39 35 37 43 36 25 15 11 8 6 6 6 5 6 5 5 5 5 5 6 6 6 5 4 4 5 5 6 6 6 7 8 11 14 16 19 26 31 30 35 42 41
46 35 31 28 27 28 31 33 33 38 38 30 24 20 18 17 14 10 7 6 6 5 5 5 5 5 6 6 5 5 5 5 4 4 4 4 4 5 6 5 5 6 6 7 10 12 13 15 16 20 24 26 29 32
15 14 14 16 16 15 15 15 14 14 14 14 14 13 10 8 6 6 5 5 5 5 4 5 6 6 6 5 5 4 4 4 4 4 4 4 4 5 6 5 5 5 5 5 8 10 12 13 15 16 16 19 23 27
14 12 13 16 16 14 15 13 14 16 17 14 10 7 5 5 5 5 4 5 5 6 6 6 5 5 5 5 5 5 6 5 5 5 4 4 3 3 4 5 4 4 4 5 6 8 10 11 12 14 16 16 18 21
17 17 17 17 17 16 16 18 16 13 10 7 6 6 5 4 4 5 5 6 5 5 5 4 5 5 6 6 5 4 3 3 3 3 4 4 4 3 3 3 4 4 4 4 5 6 8 9 11 12 13 15 18 21
17 16 16 14 14 12 11 9 8 7 6 5 5 4 4 4 4 5 5 5 5 4 5 6 6 5 4 3 3 3 3 3 3 3 3 3 3 3 3 3 3 4 4 5 6 7 8 8 9 10 12 14 16 19
8 8 7 7 6 6 6 5 5 5 4 4 4 4 4 4 5 5 5 5 6 6 5 4 3 3 3 3 4 4 4 4 3 3 3 4 4 4 4 4 4 4 5 5 5 5 7 8 9 10 10 12 14 15

GFSWCAN_250_rhum_087.txt.gz
RH
48 61 65 80 91 76 55 62 71 78 68 75 87 100 100 100 100 100 100 100 90 89 79 90 82 91 76 72 61 51 43 36 36 37 46 44 56 59 16 9 10 10 6 5 5 6 7 6 7 9 12 13 16 22
57 67 65 78 58 53 56 61 62 72 66 74 97 100 100 100 100 100 100 98 88 94 87 83 95 89 70 64 62 56 52 48 36 40 45 42 52 54 47 10 9 8 8 6 5 5 6 6 8 10 12 14 15 18
66 56 52 66 63 59 67 58 63 68 60 73 84 100 100 100 100 100 100 90 88 91 71 93 91 71 73 72 70 54 51 48 34 39 44 45 50 54 48 12 7 8 8 6 6 6 7 7 8 10 13 13 12 13
51 52 59 73 72 74 82 97 75 64 64 61 85 98 100 100 100 100 97 91 88 74 82 84 76 75 77 71 68 55 54 46 37 42 39 43 49 60 60 17 9 8 8 6 6 6 6 8 9 11 12 12 13 14
56 62 72 86 80 78 77 87 87 63 58 70 78 92 100 100 100 100 100 87 89 82 88 78 85 83 70 68 68 58 60 47 42 39 42 41 45 56 69 32 11 8 8 6 6 7 6 8 9 10 11 14 14 15
64 73 88 98 83 84 84 74 76 63 70 76 79 95 100 100 100 100 100 93 92 79 73 80 85 71 75 68 65 65 72 58 45 41 38 34 45 56 66 53 11 8 7 6 5 7 7 6 10 12 12 14 15 17
77 80 93 100 100 93 90 87 73 65 76 85 93 91 98 100 100 100 100 94 85 76 79 90 75 72 74 73 74 74 67 62 48 39 34 32 42 50 63 38 13 6 6 6 5 6 8 7 8 13 13 13 15 18
85 89 100 100 100 95 92 94 75 69 74 96 100 100 98 100 100 100 100 91 76 86 90 89 73 75 80 77 75 92 76 72 51 36 31 32 34 49 62 49 17 8 7 7 5 6 8 9 7 13 15 16 16 17
100 100 100 100 100 97 98 96 89 82 88 100 100 100 100 100 100 100 100 94 92 99 96 78 78 88 88 86 95 89 88 64 46 38 34 32 35 44 58 58 27 10 8 7 5 5 8 10 11 11 17 18 19 20
100 100 100 100 100 100 100 100 97 95 100 100 100 100 100 100 100 100 100 100 95 100 99 85 84 99 97 88 94 93 76 63 50 40 33 32 36 47 59 58 31 9 9 6 6 6 7 9 11 13 16 18 20 20
100 100 100 100 100 100 100 100 100 100 100 100 100 100 100 100 100 100 100 100 100 100 98 92 99 100 98 99 99 89 76 58 45 37 32 34 37 47 63 52 23 12 7 7 5 6 7 9 13 15 17 19 19 20
100 100 100 100 100 100 100 100 100 100 100 100 100 100 100 100 100 100 100 100 100 100 100 97 100 91 99 100 94 70 55 54 43 37 38 36 40 49 64 74 30 15 9 8 5 5 7 9 13 16 18 19 20 23
100 100 100 100 100 100 100 100 100 100 100 100 100 100 100 100 100 100 100 100 100 100 99 100 100 100 96 91 74 61 60 55 41 36 40 41 43 55 60 70 21 17 13 9 6 5 6 9 12 17 19 21 24 26
100 100 100 100 100 100 100 100 100 100 100 100 100 100 100 100 100 100 100 100 100 100 97 100 99 90 82 84 76 67 59 54 44 44 43 42 47 58 64 65 23 16 12 8 6 5 6 8 12 18 22 24 25 26
100 100 100 100 100 100 100 100 100 100 100 100 100 100 100 100 100 100 100 100 100 100 100 99 94 88 77 76 80 71 62 66 65 45 42 43 50 63 75 56 41 19 9 7 6 6 6 8 11 16 22 22 22 22
100 100 100 100 100 100 100 100 100 100 100 100 100 100 100 100 100 100 100 100 100 95 92 87 83 73 75 84 71 66 56 54 55 45 41 44 56 64 78 58 49 21 9 6 6 6 7 8 10 14 21 25 29 33
100 100 100 100 100 100 100 100 100 100 100 100 100 100 100 100 100 100 100 100 99 97 85 91 84 75 75 86 74 68 54 54 46 46 50 50 61 68 78 70 31 13 8 6 6 6 7 8 9 11 17 24 27 29
100 100 100 100 100 100 100 100 100 100 100 100 100 100 100 100 100 100 100 97 91 94 92 81 74 73 80 82 66 70 64 54 47 45 50 53 68 71 79 82 22 11 8 7 6 6 7 7 8 10 15 22 27 31
100 100 100 100 100 100 100 100 100 100 100 100 100 100 100 100 100 100 92 87 92 100 93 79 89 95 70 69 74 76 66 58 47 52 54 63 70 79 78 80 18 11 8 7 6 7 7 7 8 9 12 17 23 27
100 100 100 100 100 100 100 100 100 100 100 100 100 100 100 100 86 81 91 98 100 98 82 82 90 78 82 87 83 71 60 57 57 59 61 69 75 76 83 36 12 9 8 7 6 7 7 7 8 10 12 15 22 26
100 100 100 100 100 100 100 100 100 100 100 100 100 96 96 100 100 100 100 100 98 89 98 97 85 80 96 79 70 69 68 62 63 63 73 76 78 68 50 13 9 8 7 6 6 7 7 8 9 9 11 13 19 29
100 100 100 100 100 100 100 100 100 100 100 100 99 100 100 100 100 100 98 96 95 98 100 96 93 91 74 75 69 74 68 71 69 71 75 78 92 52 15 12 8 7 6 6 6 7 8 8 9 9 11 13 16 21
100 100 100 100 100 100 100 100 100 100 100 100 100 100 100 100 100 98 100 100 100 100 92 89 79 75 78 77 77 70 75 71 73 79 78 77 61 23 11 8 8 6 5 6 7 7 7 8 8 9 10 11 13 14
100 100 100 100 100 100 100 100 100 100 100 94 98 100 100 100 100 100 100 100 93 81 85 80 72 70 71 76 76 76 80 82 80 76 75 45 28 13 8 8 7 6 6 6 7 7 7 7 8 8 8 8 10 12
100 100 100 100 100 100 100 100 100 100 100 99 100 100 100 100 100 100 99 89 80 77 78 76 79 84 86 90 79 80 76 83 78 79 51 43 16 12 8 6 5 6 6 7 7 7 6 7 7 6 6 7 7 9
100 100 100 100 100 100 100 100 100 100 100 100 100 100 100 100 98 96 93 90 84 82 83 85 88 90 86 81 76 79 76 70 64 33 27 14 12 9 7 6 5 6 6 6 6 6 5 6 6 6 5 6 6 6
100 100 100 100 100 100 100 100 100 100 100 100 100 100 99 96 95 98 95 95 94 92 93 87 77 77 71 72 70 66 58 33 18 10 10 10 8 7 6 5 5 5 6 6 6 6 5 5 5 5 5 5 5 6
100 100 100 100 100 100 100 100 100 100 100 100 100 97 94 94 95 97 95 91 83 79 77 72 67 66 73 68 48 29 18 9 9 9 8 6 5 5 5 5 5 6 6 7 7 8 8 6 6 6 6 6 6 6
91 98 100 100 100 100 100 100 100 100 100 100 93 89 93 92 87 85 79 74 68 68 68 71 79 69 47 22 11 8 8 9 9 6 4 4 4 4 5 6 6 6 6 5 4 4 4 4 4 4 4 5 5 6
96 94 93 99 98 99 98 99 100 98 93 90 86 84 85 86 83 82 84 71 53 44 47 45 31 14 10 9 8 9 8 6 4 4 4 4 4 4 4 4 3 3 4 4 4 4 4 4 3 3 3 4 4 4
75 66 78 89 98 96 92 91 87 86 84 86 88 84 74 66 46 32 27 26 26 22 17 12 8 8 8 8 8 5 4 4 4 4 5 5 4 3 3 3 3 3 3 3 3 3 3 4 4 3 3 3 3 4
40 47 59 74 86 92 87 84 76 71 59 44 34 23 18 18 20 18 16 13 10 8 7 8 7 7 7 5 4 4 4 4 4 4 4 3 3 3 3 4 4 4 4 4 4 4 4 4 3 3 3 3 3 4
14 14 16 18 19 19 19 19 18 17 16 15 14 13 12 13 12 10 8 7 6 6 6 6 5 4 3 4 4 4 4 4 3 3 3 3 4 4 4 4 4 5 4 4 4 4 4 4 4 5 4 4 4 4

GFSWCAN_250_rhum_090.txt.gz
RH
3 6 28 71 99 100 87 63 69 81 80 74 89 88 88 89 100 100 100 100 100 100 85 91 82 87 90 78 67 66 53 51 41 37 38 32 35 37 50 60 33 9 7 6 8 6 6 6 6 7 11 13 12 13
3 14 49 71 100 100 86 70 78 73 73 86 94 92 87 95 100 100 100 100 100 100 94 88 84 82 79 73 62 59 59 48 46 46 46 38 35 38 46 55 48 16 7 5 6 7 5 6 6 7 10 13 14 14
5 24 54 95 100 99 84 95 86 82 85 83 86 92 88 99 100 100 100 100 100 100 92 92 82 78 80 74 58 61 59 57 49 47 53 45 39 33 39 60 68 30 16 6 6 6 6 6 7 7 10 12 13 15
11 38 98 93 89 86 80 78 80 83 77 81 82 86 88 100 100 100 98 100 100 100 88 90 88 81 76 69 56 60 60 66 50 54 56 54 41 32 38 55 69 56 21 9 6 6 5 6 6 7 8 10 12 16
32 74 100 85 82 73 83 81 82 83 78 82 80 84 82 99 99 96 100 100 100 100 90 98 89 88 75 61 62 62 63 75 61 60 56 52 41 35 38 54 68 71 29 9 6 6 5 5 6 7 8 10 12 14
36 88 97 98 86 73 85 85 87 83 80 79 80 78 80 86 97 100 100 100 97 94 94 100 96 93 73 65 68 70 71 69 72 61 62 56 40 33 35 47 64 76 43 13 7 5 5 5 6 7 9 10 11 13
55 100 100 95 87 82 82 96 93 89 88 90 84 84 79 85 100 100 100 91 94 94 95 99 98 90 72 73 73 67 75 74 74 69 65 60 40 34 36 48 60 73 59 13 6 5 5 4 6 8 10 10 12 12
61 100 100 100 97 94 96 90 95 98 95 97 88 74 83 91 100 100 100 86 83 96 95 97 100 81 74 77 72 76 73 69 82 72 70 57 41 34 35 49 62 74 67 18 6 5 5 4 5 7 10 12 12 14
87 100 100 100 100 100 94 94 100 100 96 84 77 79 87 100 100 100 100 95 87 82 93 100 84 72 85 78 83 75 81 77 75 79 68 54 42 33 34 44 53 67 68 29 7 5 5 5 4 7 8 12 14 14
86 100 100 100 100 100 100 100 100 100 97 77 70 88 100 100 100 100 100 100 99 100 100 96 82 77 76 88 86 76 80 76 82 79 66 51 40 34 35 45 49 71 74 33 18 7 5 5 4 6 9 11 15 15
100 100 100 100 100 100 100 100 100 100 96 81 77 90 100 100 100 100 100 100 100 100 100 98 87 78 78 90 84 78 82 82 80 76 62 48 39 34 36 45 56 70 68 71 31 8 6 6 5 6 9 12 14 18
100 100 100 100 100 100 100 100 100 100 100 100 100 100 100 100 100 100 100 100 100 100 100 100 88 80 92 97 78 83 82 85 79 65 61 46 39 38 39 47 56 62 68 66 36 9 6 6 6 6 8 12 16 17
100 100 100 100 100 100 100 100 100 100 100 100 100 100 100 100 100 100 100 100 100 100 100 100 100 99 93 95 87 86 85 80 71 71 60 41 36 35 40 49 60 66 73 67 36 11 8 6 7 6 7 11 16 20
100 100 100 100 100 100 100 100 100 100 100 100 100 100 100 100 100 100 100 100 100 100 100 100 100 90 93 90 90 92 82 80 74 67 53 43 39 36 43 55 58 70 78 63 43 15 8 7 7 7 7 8 14 21
100 100 100 100 100 100 100 100 100 100 100 100 100 100 100 100 100 100 100 100 100 100 100 100 100 94 91 94 93 86 81 75 67 67 53 43 39 40 50 55 58 70 74 72 64 23 8 8 8 7 7 8 13 19
100 100 100 100 100 100 100 100 100 100 100 100 100 100 100 100 100 100 100 100 100 100 100 100 100 99 96 96 99 86 69 71 63 57 56 42 47 53 55 59 60 71 75 87 81 30 9 8 8 8 7 8 10 15
100 100 100 100 100 100 100 100 100 100 100 100 100 100 100 100 100 100 100 100 100 100 100 100 100 86 94 100 100 83 68 60 63 56 56 49 54 52 58 61 68 86 80 87 81 32 8 8 8 8 8 8 9 12
100 100 100 100 100 100 100 100 100 100 100 100 100 100 100 100 100 100 100 100 100 100 100 97 92 100 100 98 79 71 60 69 65 62 54 54 53 64 65 69 71 81 91 81 66 29 9 8 8 8 8 9 9 10
100 100 100 100 100 100 100 100 100 100 100 100 100 100 100 100 100 100 100 100 100 100 97 94 100 96 85 77 76 77 76 76 70 60 59 67 67 70 69 79 84 85 89 57 34 16 10 9 7 8 8 9 9 10
100 100 100 100 100 100 100 100 100 100 100 100 100 100 100 100 100 100 100 100 99 99 94 90 88 83 80 85 86 78 77 72 72 66 64 65 70 76 78 76 92 72 85 31 16 10 8 9 8 7 8 9 9 10
100 100 100 100 100 100 100 100 100 100 100 100 100 100 100 100 100 100 100 97 100 96 83 90 87 86 84 82 76 80 79 76 71 65 65 73 73 79 82 73 79 77 60 18 11 9 8 8 8 8 8 9 10 11
100 100 100 100 100 100 100 100 100 100 100 100 100 100 100 100 98 95 92 86 87 88 98 93 83 77 79 77 75 80 80 74 68 70 73 75 82 77 79 74 69 85 25 14 10 9 7 7 7 8 9 9 10 10
100 100 100 100 100 100 100 100 100 100 100 100 98 100 99 90 91 88 91 97 96 96 93 80 82 81 82 85 84 81 80 74 79 80 80 84 79 78 66 63 58 30 15 11 9 8 7 7 7 8 8 9 9 9
100 100 100 100 100 100 100 100 100 100 100 92 92 92 96 100 96 94 96 90 91 94 94 93 91 91 84 83 87 82 80 83 84 79 84 85 76 72 58 58 24 12 10 9 8 8 7 7 7 7 7 8 8 7
100 100 100 100 100 100 100 100 100 100 99 100 100 98 99 99 100 100 97 96 94 90 93 91 91 96 89 84 82 80 78 81 71 80 78 72 70 60 25 19 12 10 8 7 7 6 6 7 7 7 7 7 8 7
100 100 100 100 100 100 100 100 100 100 96 96 99 100 98 100 100 100 95 95 93 94 95 96 95 91 88 81 84 80 70 75 76 76 74 71 42 24 14 10 10 8 7 6 6 6 6 6 7 7 8 8 8 8
100 100 100 100 100 100 100 100 100 99 99 100 100 100 100 100 100 100 98 98 94 96 94 96 95 86 84 85 82 78 72 72 70 67 61 37 18 10 9 8 8 7 6 6 6 6 5 5 6 6 6 6 7 7
100 100 100 100 100 100 100 100 100 100 100 100 100 99 100 100 99 95 98 96 93 91 84 84 88 84 79 75 67 72 70 53 53 47 24 13 9 8 7 7 6 6 5 5 5 5 5 5 5 4 4 4 4 5
100 100 100 100 100 100 100 100 100 100 100 100 100 94 95 99 99 93 92 94 90 89 86 81 82 77 70 71 72 58 56 54 30 11 10 9 6 5 6 6 5 5 4 4 4 5 4 4 4 4 4 4 4 4
94 96 99 95 92 97 94 94 97 92 90 93 94 94 97 99 95 89 87 87 87 87 83 78 76 79 79 73 62 59 41 21 11 9 8 5 5 5 5 4 4 4 4 4 4 3 3 4 4 4 4 4 4 4
71 73 81 84 84 91 95 98 98 96 97 97 95 93 88 82 81 78 76 78 78 81 83 82 73 64 61 48 35 18 12 10 8 6 6 5 5 4 4 4 4 4 3 3 3 4 4 4 4 5 5 4 4 4
88 84 84 90 85 75 72 81 83 82 82 82 85 86 89 85 83 88 84 83 84 83 78 64 56 39 21 15 12 10 8 6 5 5 4 4 4 4 4 3 3 4 4 4 4 4 5 5 4 4 4 4 4 4
99 98 93 86 88 85 81 79 82 86 89 90 89 88 84 85 84 82 68 58 46 37 33 20 15 15 12 9 7 6 6 6 5 4 4 4 4 3 3 4 4 4 4 4 4 4 4 4 4 4 4 4 4 5

GFSWCAN_250_rhum_093.txt.gz
RH
4 4 4 5 4 17 45 76 100 100 88 78 60 74 94 96 100 99 96 95 100 100 88 78 77 92 93 93 85 78 71 56 47 50 45 46 37 36 38 43 51 58 47 21 11 10 5 4 5 6 5 6 7 9
4 5 5 5 15 37 53 84 96 98 82 74 67 76 87 100 99 100 100 100 100 100 91 73 71 87 94 97 84 75 69 56 51 46 49 49 42 38 35 40 45 62 60 39 19 10 6 4 5 5 6 6 6 6
5 6 5 5 26 38 66 100 100 87 80 62 76 82 82 90 100 97 92 100 100 100 94 79 71 95 93 98 85 74 66 56 53 48 57 53 47 44 38 35 47 60 67 71 27 14 6 4 4 5 5 6 6 6
6 6 5 7 26 47 79 100 98 84 70 71 81 90 92 93 82 91 100 100 100 100 91 84 79 85 97 97 85 77 63 61 55 54 59 54 51 48 40 38 46 56 70 74 58 18 10 5 4 4 5 6 7 7
7 6 5 9 23 75 86 97 90 80 84 86 84 85 92 91 84 92 100 100 100 99 87 85 81 90 97 92 88 81 72 58 56 58 57 56 50 47 41 36 43 56 63 73 67 30 10 5 4 4 5 6 6 8
8 7 6 12 36 88 89 96 84 84 84 90 86 89 88 88 87 94 95 95 99 100 90 74 75 96 87 85 87 86 73 56 55 58 56 63 58 46 45 35 40 50 65 72 65 37 15 6 4 4 4 6 6 8
8 12 19 44 63 72 88 93 89 87 87 95 87 94 96 95 86 87 91 90 100 100 98 81 94 95 92 96 88 92 68 58 60 63 60 61 61 51 43 38 37 42 59 66 78 50 21 8 5 5 4 5 7 8
9 19 53 68 67 74 90 95 96 96 99 93 94 95 86 83 83 88 85 98 100 97 90 99 100 98 90 89 98 93 67 63 63 62 63 57 60 56 46 46 36 43 54 70 75 48 24 12 5 4 5 5 7 8
10 46 75 83 97 99 100 100 100 99 100 97 91 80 71 71 82 89 93 93 97 99 95 100 100 98 91 87 95 91 68 68 68 69 64 58 62 60 47 41 36 41 52 68 71 56 35 11 5 4 4 5 6 9
17 54 100 100 100 100 100 100 100 94 97 100 96 96 85 85 92 100 100 96 95 92 98 100 100 100 91 86 90 86 80 81 72 64 59 60 65 67 54 43 43 43 54 68 70 60 39 20 7 4 4 5 5 9
27 47 88 100 100 100 100 100 98 87 97 97 96 94 98 82 95 100 100 99 92 91 98 98 100 100 92 91 87 96 89 84 67 61 58 56 60 66 56 44 36 49 52 64 67 62 49 21 10 5 4 5 6 7
39 68 100 100 100 100 100 100 96 92 97 100 100 100 98 76 97 100 100 100 100 100 95 98 100 95 91 91 100 98 90 75 64 62 57 60 72 69 57 48 36 45 56 63 74 71 56 21 13 5 5 5 6 7
65 94 100 100 100 100 100 100 100 100 100 99 94 97 88 94 100 100 100 100 100 100 100 99 93 86 99 100 100 100 79 68 60 60 70 70 80 71 58 46 42 47 57 62 69 75 49 28 13 8 5 5 6 7
82 100 100 100 100 100 100 100 100 100 100 95 100 100 100 100 100 100 100 100 100 100 100 100 94 100 100 100 100 100 83 65 62 70 74 91 78 63 51 46 43 51 62 67 81 82 45 35 18 10 6 5 6 7
100 100 100 100 100 100 100 100 100 100 100 100 100 100 100 100 100 100 100 100 100 100 100 100 99 100 100 100 98 84 73 59 65 80 91 89 70 63 52 45 50 53 64 66 82 82 58 45 20 10 7 6 6 8
100 100 100 100 100 100 100 100 100 100 100 100 100 100 100 100 100 100 100 100 100 100 100 100 100 100 100 93 86 82 62 65 76 86 84 81 64 59 50 44 54 57 65 70 76 86 72 56 19 11 8 7 6 7
100 100 100 100 100 100 100 100 100 100 100 100 100 100 100 100 100 100 100 100 100 100 100 100 100 100 90 96 79 72 73 71 86 84 90 71 66 62 50 54 65 57 70 70 75 85 84 54 17 9 9 8 7 7
100 100 100 100 100 100 100 100 100 100 100 100 100 100 100 100 100 100 100 100 100 100 100 100 96 93 94 99 86 80 87 90 86 97 80 65 70 59 55 56 55 67 67 77 84 78 90 48 18 10 9 9 8 7
100 100 100 100 100 100 100 100 100 100 100 100 100 100 100 100 100 100 100 100 100 100 100 100 100 100 100 90 89 93 94 97 96 84 69 70 63 54 56 57 64 57 71 66 82 86 85 35 17 11 10 9 8 7
100 100 100 100 100 100 100 100 100 100 100 100 100 100 100 100 100 100 100 100 100 100 100 100 100 100 96 98 98 99 99 94 78 78 68 60 55 58 58 69 60 64 68 75 82 88 52 18 13 11 10 8 8 9
100 100 100 100 100 100 100 100 100 100 100 100 100 100 100 100 100 100 100 100 100 100 100 100 100 97 96 100 100 96 94 80 78 71 64 52 53 63 65 60 70 68 83 88 94 69 21 13 10 10 9 8 8 8
100 100 100 100 100 100 100 100 100 100 100 100 100 100 100 100 100 100 100 100 100 100 100 100 100 100 99 98 94 87 80 75 63 64 59 60 66 61 66 66 66 82 90 91 76 34 14 10 9 8 8 7 7 7
100 100 100 100 100 100 100 100 100 100 100 100 100 100 100 100 100 100 100 100 100 100 94 99 100 98 87 83 78 76 78 66 66 69 63 65 59 74 70 69 80 93 92 90 51 17 10 9 8 7 6 6 7 7
100 100 100 100 100 100 100 100 100 100 100 100 100 100 100 100 100 100 100 100 100 95 92 92 88 85 82 78 74 75 68 62 66 64 66 61 65 70 68 77 90 96 83 61 20 11 8 7 6 5 5 5 6 6
100 100 100 100 100 100 100 100 100 100 100 100 100 100 100 100 100 100 100 91 92 94 94 88 88 87 80 80 80 72 65 66 60 61 59 74 68 68 74 81 92 92 67 54 12 8 7 6 5 5 5 5 6 6
100 100 100 100 100 100 100 100 100 100 100 100 100 100 100 98 100 92 81 89 97 95 97 98 92 83 79 78 72 71 67 60 62 62 67 71 72 73 84 86 78 51 45 13 7 6 5 5 4 4 5 5 6 6
100 100 100 100 100 100 100 100 100 100 100 100 100 100 99 98 97 98 98 99 99 97 96 90 85 74 72 70 67 59 58 64 71 78 67 67 71 81 71 73 37 35 10 6 5 5 5 4 4 4 4 4 5 4
100 100 100 100 100 100 100 100 100 100 100 100 100 100 100 100 100 98 100 99 92 86 83 78 74 69 68 63 65 65 67 67 68 73 68 63 79 66 56 46 37 10 5 4 4 4 4 4 4 4 4 3 3 4
100 100 100 100 100 100 100 98 99 100 100 100 100 100 100 98 96 92 89 87 83 82 79 71 68 68 63 68 62 68 72 69 71 65 66 71 59 42 42 22 6 5 5 4 4 4 4 4 4 4 4 4 4 4
99 96 100 100 100 100 100 100 100 97 97 98 95 91 88 86 84 79 75 71 71 74 70 67 69 67 67 68 65 65 67 62 60 71 62 54 44 28 10 5 5 4 4 4 4 4 4 4 4 4 4 4 4 5
86 88 91 89 85 88 93 91 98 92 90 90 83 78 76 74 74 77 77 75 70 66 68 71 72 71 70 66 65 68 70 65 51 62 55 34 20 7 5 4 4 4 4 4 3 4 4 4 4 5 5 5 5 5
73 73 76 80 78 77 79 84 88 88 90 91 85 79 86 89 88 83 78 78 77 76 75 72 64 64 67 64 53 61 41 54 44 33 27 8 5 5 4 4 4 4 3 3 4 4 5 5 5 5 5 5 5 4
74 72 74 73 73 71 71 77 78 80 82 84 83 79 78 77 76 73 75 74 72 71 70 68 63 55 52 52 34 31 31 26 21 9 5 5 4 4 4 4 3 3 4 5 5 5 5 5 5 5 5 5 5 5

GFSWCAN_250_rhum_096.txt.gz
RH
2 3 4 4 6 5 9 7 16 38 76 100 100 100 100 93 73 74 72 86 66 82 99 100 100 98 98 91 100 100 92 72 64 59 47 41 36 38 39 36 38 44 47 51 51 32 19 13 10 5 3 4 5 6
2 4 5 5 6 5 9 9 32 70 98 100 100 100 97 80 71 79 74 89 84 92 100 100 94 97 90 91 100 100 92 77 67 64 50 45 39 38 41 40 39 40 46 62 55 54 25 14 15 9 4 4 4 6
2 4 6 6 8 6 7 12 51 98 100 100 100 100 82 72 70 71 83 96 94 100 100 99 83 79 86 95 97 100 90 77 78 65 54 47 45 40 40 42 41 41 48 60 67 60 42 20 14 14 5 4 4 5
2 4 6 7 10 7 6 27 75 100 100 100 100 88 77 77 75 72 84 90 99 100 100 92 79 73 77 97 98 96 86 81 82 71 57 47 45 50 44 45 47 45 50 55 68 69 52 25 17 13 8 4 4 4
2 4 7 8 10 8 6 42 90 100 100 100 98 83 74 76 74 72 82 88 100 100 97 86 87 82 73 91 91 93 86 79 71 69 56 51 50 50 46 45 48 49 47 52 64 72 63 36 21 15 9 4 4 4
2 4 8 9 10 7 6 39 92 100 100 100 90 82 72 66 69 74 80 83 100 100 95 92 98 92 76 92 97 98 88 78 72 84 62 52 52 52 48 48 48 57 44 50 62 74 61 41 24 15 10 5 4 4
2 4 7 11 10 9 13 40 99 100 100 100 90 78 63 70 77 88 99 94 100 100 95 96 100 93 85 99 99 93 84 75 75 90 72 55 55 54 45 44 50 66 46 47 59 69 63 37 21 12 9 4 4 4
2 4 8 11 10 10 27 62 97 100 100 95 96 67 57 67 92 88 89 86 86 88 88 94 100 96 100 96 98 95 89 72 76 81 62 56 58 54 48 46 58 65 44 47 53 70 74 39 20 10 8 4 4 4
3 4 9 10 9 15 64 83 100 100 94 94 81 69 71 84 99 91 78 87 96 98 100 99 93 99 100 100 98 94 93 79 84 73 60 54 57 56 51 52 64 60 44 45 51 62 71 62 18 11 10 6 4 5
3 5 8 10 12 35 77 100 100 100 98 94 80 75 84 89 82 62 60 86 98 100 100 98 100 100 100 100 97 96 95 87 88 66 56 54 58 58 53 57 55 58 46 41 49 60 70 76 42 12 9 8 5 5
3 5 13 12 23 61 93 100 100 100 96 90 81 79 84 68 60 62 78 88 100 100 100 100 100 100 100 97 95 99 97 100 92 62 55 55 60 59 57 59 60 60 51 45 50 61 77 78 64 30 11 8 7 6
4 10 18 21 53 80 100 100 100 100 99 97 87 86 71 63 80 95 94 100 99 100 100 100 100 100 93 88 91 92 100 98 79 58 55 63 60 58 62 64 64 61 52 50 52 63 74 81 80 39 16 10 7 7
8 15 21 42 83 100 100 100 100 100 100 97 80 68 63 91 100 100 100 100 100 100 100 100 100 99 82 79 90 97 97 97 78 58 68 63 58 61 65 71 69 69 56 54 60 64 73 84 76 40 23 11 8 8
14 20 46 85 100 100 100 100 100 100 100 96 81 76 97 100 100 100 100 100 100 100 100 100 100 88 79 88 90 79 93 100 67 67 67 60 60 68 69 75 71 73 52 45 58 68 79 84 88 59 59 13 9 8
30 36 78 100 100 100 100 100 100 100 96 98 99 100 100 100 100 100 100 100 100 100 100 100 96 87 94 93 88 97 93 82 66 67 62 60 72 79 68 76 65 68 51 50 63 68 80 92 92 83 77 14 9 8
57 70 100 100 100 100 100 100 100 98 100 100 100 100 100 100 100 100 100 100 100 100 100 96 99 100 98 84 81 90 92 81 74 60 61 69 84 82 79 71 68 60 56 53 66 69 76 99 90 76 74 20 10 9
74 98 100 100 100 100 100 100 100 100 100 100 100 100 100 100 100 100 100 100 100 100 100 100 99 95 77 87 100 100 83 74 65 64 74 80 72 78 84 66 67 54 56 53 66 72 75 94 95 68 79 26 10 8
100 100 100 100 100 100 100 100 100 100 100 100 100 100 100 100 100 100 100 100 100 100 100 100 100 100 100 96 93 84 77 70 70 76 70 73 71 82 72 62 61 51 59 59 64 82 81 95 98 59 77 25 10 8
100 100 100 100 100 100 100 100 100 100 100 100 100 100 100 100 100 100 100 100 100 100 100 100 100 100 99 98 92 92 86 86 84 82 86 88 85 83 72 58 60 58 58 66 65 78 87 97 96 61 54 17 10 8
100 100 100 100 100 100 100 100 100 100 100 100 100 100 100 100 100 100 100 100 100 100 100 100 100 100 98 93 94 90 82 79 84 85 86 87 88 75 68 66 53 54 55 58 68 79 88 97 79 67 50 13 8 9
100 100 100 100 100 100 100 100 100 100 100 100 100 100 100 100 100 100 100 100 100 100 100 100 100 100 98 97 88 85 86 88 91 92 87 90 74 69 63 56 52 53 56 62 66 78 96 92 77 73 26 10 8 8
100 100 100 100 100 100 100 100 100 100 100 100 100 100 100 100 100 100 100 100 100 100 100 100 100 99 100 98 91 86 88 86 92 91 80 76 70 65 57 58 62 60 61 65 74 80 97 91 59 51 16 8 7 7
100 100 100 100 100 100 100 100 100 100 100 100 100 100 100 100 100 100 100 100 100 100 100 100 100 99 97 93 76 80 78 85 89 81 74 65 65 58 60 64 58 61 61 73 78 95 89 64 54 24 9 7 6 6
100 100 100 100 100 100 100 100 100 100 100 100 100 100 100 100 100 100 100 100 100 100 100 100 97 95 87 80 84 88 86 87 80 74 66 66 60 57 60 57 63 63 70 79 88 95 72 62 26 10 6 6 6 5
100 100 100 100 100 100 100 100 100 100 100 100 100 100 100 100 100 100 100 100 100 100 100 100 100 98 87 86 86 89 88 81 70 66 56 52 54 56 50 63 66 65 80 89 84 71 47 26 8 5 5 5 5 5
100 100 100 100 100 100 100 100 100 100 100 100 100 100 100 100 100 100 100 100 100 100 100 100 99 94 92 87 88 78 74 78 68 60 58 56 53 55 58 65 76 91 90 81 69 48 18 9 5 5 4 4 5 5
100 100 100 100 100 100 100 100 100 100 100 100 100 100 100 100 100 100 100 100 100 100 99 97 93 97 95 91 78 69 71 63 63 56 56 52 51 56 68 74 87 90 73 50 41 18 7 5 4 4 4 4 4 4
100 100 100 100 100 100 100 100 100 100 100 100 100 100 100 100 100 98 100 98 91 91 96 97 89 82 81 73 68 64 61 63 56 57 50 53 57 67 82 84 92 64 49 27 12 7 5 4 4 4 4 4 4 4
100 100 100 100 100 100 100 100 100 100 100 100 100 100 99 98 93 88 92 97 93 89 84 80 74 68 67 65 66 62 62 61 57 49 51 60 70 74 87 82 49 47 23 10 5 4 4 4 4 4 4 4 4 5
100 100 100 100 100 100 100 100 100 100 100 100 100 100 97 97 99 97 93 86 86 82 78 76 71 62 61 53 53 56 55 51 49 57 64 70 77 90 55 37 25 16 7 4 4 3 3 3 3 4 5 5 5 5
98 100 100 100 100 100 98 100 100 100 100 100 100 100 100 100 95 92 93 89 87 80 76 73 65 62 57 53 52 46 49 56 63 70 75 85 61 48 32 16 8 4 4 4 3 3 3 3 4 5 5 5 6 6
84 93 91 88 90 95 99 99 93 93 95 95 95 94 91 87 85 83 82 84 84 76 69 58 57 57 52 49 51 57 63 66 72 81 87 47 27 12 8 5 4 4 3 3 3 3 4 4 5 5 5 5 6 6
75 82 78 78 85 88 96 93 87 83 82 85 89 91 88 84 84 87 80 74 70 68 64 54 53 58 59 60 61 63 71 73 76 46 41 18 9 6 4 3 3 3 3 3 3 4 5 5 5 6 5 5 5 5

GFSWCAN_250_rhum_099.txt.gz
RH
17 10 6 4 5 5 5 9 12 15 9 29 66 78 100 100 100 100 100 99 91 89 92 91 100 100 100 90 97 96 91 85 76 66 67 54 56 50 41 37 40 44 43 44 49 54 49 29 14 15 11 10 8 4
9 7 6 4 5 9 10 16 16 13 14 35 84 85 88 100 100 100 100 93 82 95 100 100 100 100 96 93 100 100 92 82 70 69 66 55 54 50 48 40 42 48 45 50 48 55 57 24 16 16 12 9 8 5
7 5 6 4 5 10 11 16 15 14 20 37 61 74 93 100 100 100 100 75 74 98 100 100 99 95 90 99 100 96 90 75 62 69 62 50 48 50 47 45 46 44 45 45 51 54 62 41 24 20 10 8 7 5
6 4 6 4 4 8 9 16 16 14 27 72 56 75 98 100 100 100 86 67 69 99 100 98 88 93 91 95 99 97 84 76 63 68 58 49 47 51 48 46 47 45 47 52 50 58 64 59 42 24 14 10 7 6
4 4 6 3 4 6 12 18 16 23 48 70 73 82 99 100 100 100 74 65 79 99 100 96 83 79 85 89 94 89 80 70 62 61 55 52 53 53 49 50 49 47 44 52 52 55 67 68 55 37 18 11 7 7
4 3 4 3 4 7 12 16 18 47 51 65 68 96 100 100 100 91 64 67 82 94 100 96 90 92 86 88 91 93 86 74 66 59 60 56 55 54 52 51 50 49 54 50 51 54 68 74 66 39 24 13 7 6
3 3 2 3 5 7 10 17 22 53 54 68 70 100 100 100 99 76 79 73 82 92 100 94 96 87 89 98 99 99 89 79 68 66 69 60 57 59 55 52 50 49 56 52 57 50 62 71 71 50 30 12 9 6
2 2 2 3 4 7 14 15 36 57 69 76 88 100 100 100 96 76 73 75 74 84 93 93 94 92 100 97 99 92 91 85 76 68 68 58 57 57 54 49 49 48 55 53 58 57 54 73 72 58 32 16 10 7
2 2 2 3 3 6 12 13 40 64 74 90 100 100 100 90 77 66 78 86 76 75 81 90 92 96 100 98 96 93 89 85 78 69 66 56 53 56 55 52 51 56 53 48 58 57 53 69 64 65 26 18 13 8
2 1 2 3 3 7 11 13 49 79 86 100 100 100 99 77 83 69 76 76 88 96 94 96 100 100 100 100 92 89 89 92 83 75 68 62 53 57 57 55 56 57 60 53 61 59 55 64 69 69 46 26 18 9
1 1 2 3 4 10 13 28 62 95 88 95 92 100 95 80 71 62 70 77 92 100 97 100 100 100 100 99 96 96 93 93 92 81 74 61 57 62 55 55 59 61 66 55 70 61 49 62 68 69 67 47 46 17
1 2 3 4 6 12 18 53 76 100 99 100 100 100 100 81 63 61 64 79 92 97 100 99 100 100 100 100 99 94 90 89 87 79 73 58 63 60 58 56 56 53 61 63 68 65 58 55 64 70 78 79 47 36
2 4 4 6 12 16 35 90 100 100 100 98 96 100 94 86 62 59 76 87 99 96 96 100 100 100 97 100 97 85 75 77 83 78 65 64 61 58 60 55 52 55 73 77 71 65 60 52 67 72 63 94 64 68
3 4 5 10 16 25 55 100 100 100 100 100 100 100 91 83 76 97 94 94 100 100 100 100 100 100 100 96 83 73 74 86 85 69 72 65 64 57 55 54 58 63 81 88 70 67 61 58 74 69 76 85 82 74
5 5 10 18 23 45 98 100 100 100 100 100 100 100 96 95 82 84 100 100 100 100 100 100 100 98 93 79 77 78 87 85 73 77 71 77 66 53 51 52 65 65 71 86 69 65 64 70 70 72 87 91 89 58
6 9 12 28 52 78 100 100 100 100 100 100 100 99 100 91 84 100 100 100 100 100 100 100 100 100 94 89 84 82 87 92 84 77 78 70 59 57 57 59 58 66 83 80 68 66 65 71 71 79 80 98 82 63
15 26 47 81 84 99 100 100 100 100 100 100 100 100 100 100 100 100 100 100 100 100 100 100 100 100 99 96 98 100 96 90 87 82 71 64 59 53 60 70 70 84 87 85 69 61 65 68 75 90 78 97 91 66
12 34 78 96 100 100 100 100 100 100 100 100 100 100 100 100 100 100 100 100 100 100 100 100 100 100 100 100 100 100 100 90 83 67 68 68 58 60 66 72 66 75 79 74 78 71 74 67 68 91 80 98 86 57
37 86 100 100 100 100 100 100 100 100 100 100 100 100 100 100 100 100 100 100 100 100 100 100 100 100 100 100 100 98 88 82 70 68 69 56 55 68 67 70 75 76 75 75 71 70 66 66 67 75 92 90 80 63
99 100 100 100 100 100 100 100 100 100 100 100 100 100 100 100 100 100 100 100 100 100 100 100 100 100 100 100 98 94 82 69 69 74 67 59 65 64 62 75 74 66 75 72 62 79 68 64 70 78 99 90 79 49
100 100 100 100 100 100 100 100 100 100 100 100 100 100 100 100 100 100 100 100 100 100 100 100 100 100 98 99 97 88 80 68 70 72 72 63 65 73 62 76 69 71 65 74 78 72 76 65 70 88 91 68 55 26
100 100 100 100 100 100 100 100 100 100 100 100 100 100 100 100 100 100 100 100 100 100 100 100 100 100 100 100 96 85 78 80 92 78 78 69 71 70 66 68 73 73 76 66 69 72 64 69 74 88 83 60 26 19
100 100 100 100 100 100 100 100 100 100 100 100 100 100 100 100 100 100 100 100 100 100 100 100 100 100 100 98 90 86 88 89 84 82 71 88 76 77 80 74 74 74 63 73 63 64 64 73 81 77 51 26 19 14
100 100 100 100 100 100 100 100 100 100 100 100 100 100 100 100 100 100 100 100 100 100 100 100 100 100 100 100 91 85 89 86 80 91 83 79 76 85 65 63 65 59 70 50 60 58 60 78 65 56 24 17 12 7
100 100 100 100 100 100 100 100 100 100 100 100 100 100 100 100 100 100 100 100 100 100 100 100 100 100 100 96 94 93 88 87 75 92 85 80 76 67 57 60 61 67 54 57 59 61 72 63 71 28 14 9 6 5
100 100 100 100 100 100 100 100 100 100 100 100 100 100 100 100 100 100 100 100 100 100 100 100 100 96 100 100 96 98 96 92 88 81 70 69 60 56 55 60 60 65 60 57 62 67 80 62 40 16 8 5 4 4
100 100 100 100 100 100 100 100 100 100 100 100 100 100 100 100 100 100 100 100 100 100 100 100 100 100 100 100 97 95 86 86 71 67 72 52 49 53 62 59 62 61 58 59 70 76 76 38 17 6 5 4 4 4
100 100 100 100 100 100 100 100 100 100 100 100 100 100 100 100 100 100 100 100 100 100 100 100 100 100 100 99 96 89 76 73 70 63 51 52 52 58 65 64 60 54 59 66 66 72 52 18 7 4 4 4 4 4
100 100 100 100 100 100 100 100 100 100 100 100 100 100 100 100 100 100 100 100 100 100 100 100 100 97 94 91 79 80 77 67 58 55 49 50 53 63 72 58 54 59 62 67 57 32 17 6 4 4 4 4 4 4
100 100 100 100 100 100 100 100 100 100 100 100 100 100 100 100 100 100 100 100 100 100 98 88 87 82 80 80 76 72 63 59 55 53 52 54 65 67 64 59 62 69 70 74 39 15 6 4 4 4 3 3 4 4
100 100 100 100 100 100 100 100 100 100 100 100 100 100 100 100 100 100 97 98 97 94 88 84 79 69 68 69 62 61 63 52 57 58 57 62 62 62 65 70 70 61 48 32 12 5 4 4 4 3 3 4 5 5
100 100 96 100 100 99 97 100 100 100 97 100 100 100 100 100 100 100 97 92 85 79 74 70 68 65 62 60 57 55 58 54 60 60 58 63 66 75 76 54 52 31 15 8 5 4 4 4 3 3 4 5 5 5
84 91 93 95 96 96 100 100 100 100 100 100 99 94 96 97 100 98 96 90 83 76 74 73 70 67 68 66 60 57 58 60 61 72 71 74 76 56 45 29 18 10 5 4 4 4 4 4 4 5 6 6 6 6

GFSWCAN_250_rhum_102.txt.gz
RH
70 70 49 27 30 8 5 4 6 10 21 19 14 18 22 35 77 100 100 91 94 99 93 97 99 100 99 97 95 100 100 90 72 68 72 65 48 49 51 50 44 46 45 44 53 50 49 32 27 19 13 9 9 6
65 73 40 30 24 7 6 5 8 12 23 19 15 18 32 65 95 100 96 100 100 100 88 96 93 100 99 96 100 100 99 83 68 72 73 57 50 51 52 52 44 46 48 53 56 52 52 46 50 24 19 14 11 9
52 47 35 24 21 8 8 5 8 14 22 20 18 17 53 93 100 100 100 100 100 92 91 92 100 100 100 100 98 100 96 80 74 71 63 55 52 53 53 52 41 45 46 49 48 50 55 53 60 47 30 17 13 10
28 25 27 11 13 8 8 6 9 20 24 21 23 45 84 89 100 100 100 100 100 98 98 100 100 100 100 98 98 96 95 84 78 76 61 54 55 57 54 53 48 48 51 52 50 52 53 57 65 63 49 32 21 10
18 17 16 7 7 8 8 6 10 26 25 21 32 54 90 95 100 96 99 100 100 100 100 100 100 100 100 100 99 100 98 86 80 68 59 56 57 54 54 52 49 47 51 45 43 53 53 55 65 70 69 50 31 18
12 11 7 6 6 7 6 6 9 29 28 29 44 60 83 100 84 100 97 100 100 100 100 100 100 100 100 100 97 93 98 98 82 71 59 60 57 52 54 56 51 54 48 45 44 52 49 54 66 64 73 55 44 23
8 8 4 4 5 5 4 5 7 26 31 42 62 75 91 99 99 100 100 100 100 100 100 100 100 98 83 88 88 94 93 87 86 67 60 62 56 54 56 59 53 53 48 48 45 44 54 65 58 67 65 52 39 21
7 5 3 3 3 4 3 4 6 24 26 44 77 87 100 100 99 83 98 100 100 100 100 99 98 93 86 94 92 92 83 87 81 68 61 60 57 56 59 61 59 57 48 50 49 44 61 55 51 64 60 58 48 30
5 3 2 2 2 3 3 4 7 18 24 42 66 94 98 100 87 81 96 100 96 94 98 96 84 89 96 89 89 91 91 86 77 65 63 63 60 58 61 62 62 53 49 47 47 60 51 56 51 61 61 59 50 38
4 2 2 2 2 3 3 4 8 16 24 63 81 100 93 88 83 84 93 98 89 100 95 81 80 95 93 90 99 98 89 85 80 69 69 66 64 61 66 62 60 55 50 46 52 64 50 64 58 56 60 62 63 58
2 2 2 2 2 2 2 4 9 19 26 46 76 100 100 96 75 61 87 94 88 90 90 86 86 85 96 99 100 93 85 83 77 73 74 72 66 66 67 69 62 53 49 47 54 68 66 66 61 53 60 70 76 58
2 2 2 2 2 2 3 6 12 17 21 56 100 100 100 85 73 50 81 87 77 86 96 98 98 100 100 100 98 94 86 78 71 68 71 70 68 70 72 72 62 52 54 54 63 71 66 84 61 57 59 68 78 78
2 2 2 2 2 3 5 10 15 27 56 74 94 100 99 73 54 76 100 93 99 100 100 89 88 100 100 99 95 92 87 78 66 61 70 74 73 77 77 71 59 53 51 54 54 60 65 65 59 51 59 75 75 80
2 2 2 2 3 4 5 9 17 29 44 74 91 100 81 66 78 98 100 96 100 91 83 97 100 100 100 98 95 90 86 75 62 69 78 83 82 81 77 66 55 56 56 54 54 58 64 59 60 58 61 65 73 75
2 2 2 3 5 6 9 14 21 29 40 64 100 100 100 100 100 100 100 98 72 88 100 98 100 100 100 88 89 91 85 77 84 89 87 89 79 76 75 59 54 51 51 48 49 62 72 55 56 56 61 62 70 77
2 2 3 5 6 9 11 21 27 37 54 87 100 99 100 92 87 100 100 93 92 100 100 100 100 100 85 93 94 86 83 89 96 84 89 95 73 75 65 58 52 48 52 52 57 62 83 75 56 56 55 62 68 83
2 3 4 5 7 11 19 30 39 53 76 86 100 100 100 100 97 98 100 100 100 100 100 100 100 87 99 99 93 95 95 93 89 85 98 91 75 66 61 61 54 53 55 59 71 80 82 77 59 54 53 58 72 92
4 4 5 6 10 19 41 59 75 84 99 100 100 100 100 100 100 100 100 100 100 100 100 100 100 100 100 93 98 94 86 94 92 96 94 79 71 63 62 54 55 60 61 67 77 82 67 66 62 57 54 63 76 78
5 6 8 16 35 46 57 69 92 100 100 100 100 100 99 100 100 100 100 100 100 100 100 100 100 100 95 97 100 91 90 98 100 96 86 75 71 66 66 62 66 63 68 74 93 77 76 57 54 51 57 58 69 77
9 10 19 31 53 60 80 97 94 100 100 100 100 100 92 100 100 100 100 100 100 100 100 100 100 94 98 100 93 93 99 100 100 99 81 74 69 65 60 57 56 62 76 82 82 66 58 57 52 46 60 58 75 83
9 10 37 74 94 100 100 100 100 100 100 100 100 100 100 100 100 100 100 100 100 100 100 100 100 100 100 93 87 87 91 95 100 92 79 73 64 65 58 63 65 78 83 91 79 75 58 51 47 55 52 69 82 88
8 17 59 92 100 100 100 100 100 100 100 100 100 100 100 100 100 100 100 100 100 100 100 100 100 100 100 100 94 100 97 98 98 78 75 66 64 63 64 74 76 91 88 92 76 58 54 48 52 51 70 74 81 81
41 89 100 100 100 100 100 100 100 100 100 100 100 100 100 100 100 100 100 100 100 100 100 100 100 100 100 100 100 100 99 98 90 68 65 70 68 72 71 78 83 82 90 76 74 62 51 52 50 61 72 77 77 54
97 100 100 100 100 100 100 100 100 100 100 100 100 100 100 100 100 100 100 100 100 100 100 100 100 100 100 100 100 86 86 88 71 71 69 68 67 66 81 83 83 92 89 77 67 56 50 49 56 74 77 77 60 34
100 100 100 100 100 100 100 100 100 100 100 100 100 100 100 100 100 100 100 100 100 100 100 100 100 100 100 100 100 91 86 81 77 88 83 76 70 84 83 92 87 90 76 73 58 54 53 62 66 80 81 68 33 22
100 100 100 100 100 100 100 100 100 100 100 100 100 100 100 100 100 100 100 100 100 100 100 100 100 100 100 99 95 88 84 89 90 85 86 80 88 82 85 87 81 72 67 59 54 51 58 67 72 75 67 47 19 10
100 100 100 100 100 100 100 100 100 100 100 100 100 100 100 100 100 100 100 100 100 100 100 100 100 100 100 98 94 98 89 88 88 94 94 90 80 78 80 77 70 66 64 58 50 60 64 79 84 63 46 20 8 4
100 100 100 100 100 100 100 100 100 100 100 100 100 100 100 100 100 100 100 100 100 100 100 100 100 100 100 97 98 98 98 98 93 86 83 81 81 81 78 69 66 70 54 56 60 63 74 70 54 33 14 8 5 3
100 100 100 100 100 100 100 100 100 100 100 100 100 100 100 100 100 100 100 100 100 100 100 100 100 100 100 98 97 100 98 86 82 83 85 76 73 70 71 64 66 56 58 57 67 62 70 42 40 14 7 4 4 3
100 100 100 100 100 100 100 100 100 100 100 100 100 100 100 100 100 100 100 100 100 100 100 100 100 100 99 94 93 94 92 87 82 77 69 65 65 60 65 63 63 64 66 65 66 70 46 51 21 8 5 4 4 4
100 100 100 100 100 100 100 100 100 100 100 100 97 97 99 100 100 100 100 100 100 100 100 100 100 100 98 99 99 94 88 84 72 63 62 59 59 60 62 68 67 63 61 63 60 47 32 18 7 4 4 4 4 4
100 100 100 100 100 100 100 100 100 100 100 100 100 100 100 100 100 100 100 100 100 100 100 100 100 98 92 91 89 86 75 74 65 64 63 59 60 60 66 67 61 64 59 52 37 23 13 7 4 4 4 4 4 5
100 100 100 100 100 100 100 100 100 100 100 100 100 100 100 100 100 100 100 100 100 100 100 99 99 99 95 87 82 74 68 70 62 57 57 58 62 65 69 75 63 47 41 29 16 11 6 4 4 4 4 5 5 5

GFSWCAN_250_rhum_105.txt.gz
RH
100 100 96 100 92 99 74 31 18 7 9 14 16 22 24 19 31 64 82 77 63 72 90 94 100 100 100 88 82 90 87 97 97 99 82 68 53 53 52 50 48 49 45 44 39 38 42 50 40 26 18 14 12 9
100 100 87 92 89 77 61 25 18 8 13 15 23 23 26 27 48 54 68 72 60 75 97 95 100 100 96 90 87 92 87 87 100 94 88 74 61 52 53 54 51 51 48 46 43 37 39 48 48 34 28 22 15 12
90 92 95 90 93 69 43 28 17 8 11 15 25 26 28 45 49 61 64 72 69 83 100 100 100 99 91 94 97 98 89 86 94 86 82 76 58 54 52 56 54 51 50 45 42 40 42 43 52 49 46 52 30 19
100 85 73 80 71 39 37 28 15 8 11 13 22 29 36 52 40 58 78 73 81 100 100 100 100 100 92 100 100 96 98 92 89 82 83 75 58 53 51 56 56 56 53 47 48 42 42 47 52 61 72 64 53 31
68 85 72 66 46 38 28 24 14 7 10 15 19 32 42 48 45 62 77 84 95 100 100 100 100 100 100 97 93 100 100 92 89 81 79 77 60 54 58 57 58 54 53 48 49 44 44 46 49 54 69 63 52 44
46 52 65 48 32 28 18 26 11 8 8 15 20 32 36 63 65 78 70 84 96 100 100 100 100 100 96 94 100 100 100 98 89 78 78 75 63 57 57 59 56 55 57 56 46 46 40 42 46 50 62 64 59 57
26 41 33 31 25 17 17 19 8 7 7 13 22 35 45 72 75 76 80 94 93 99 100 100 100 100 88 97 100 100 100 98 80 75 74 75 68 60 59 58 60 60 56 52 48 46 41 42 43 46 55 65 60 57
27 24 33 19 18 12 12 9 6 6 6 12 20 36 48 73 74 74 88 96 95 94 100 100 100 100 96 97 99 100 100 98 85 73 75 75 67 64 60 60 64 63 60 55 54 48 45 42 44 41 50 60 61 69
19 18 16 14 11 7 7 6 4 4 6 9 17 30 37 54 77 84 88 90 91 89 100 100 100 99 95 93 99 98 98 92 79 77 77 73 70 66 63 62 63 64 58 58 53 53 48 43 36 45 46 48 57 64
13 16 11 11 7 5 5 4 3 3 5 8 13 24 40 90 100 85 87 74 77 90 99 100 100 100 85 82 89 92 99 87 82 77 75 73 70 69 68 67 64 60 60 58 56 52 49 49 45 44 46 54 52 58
12 12 10 6 5 4 3 2 2 3 5 5 10 20 52 97 98 69 67 63 72 96 100 100 100 100 100 98 91 98 96 82 74 75 74 72 67 69 72 75 68 66 65 63 61 54 51 54 46 43 57 50 57 58
10 10 6 4 4 3 2 2 2 3 4 5 13 40 55 80 74 57 60 62 80 98 100 100 99 100 92 80 94 100 95 80 73 74 73 65 63 73 72 76 72 68 63 60 57 53 50 48 47 45 52 44 62 62
9 5 4 4 3 2 2 2 3 4 5 10 24 37 33 48 55 52 58 76 98 100 100 100 93 90 83 97 100 98 90 86 78 73 74 64 74 81 70 66 72 68 64 59 55 55 52 49 43 53 63 52 72 67
7 3 3 3 2 2 2 2 3 3 5 10 13 18 22 58 63 69 100 100 100 100 100 92 88 98 100 96 100 98 94 89 82 78 76 76 88 87 67 66 72 70 62 57 55 53 49 51 44 66 68 69 67 78
4 3 3 2 2 2 2 3 3 3 4 10 22 28 52 91 94 91 100 100 100 100 96 86 89 94 92 98 98 99 92 89 88 87 90 89 88 82 72 70 65 65 61 54 56 52 52 54 60 66 67 89 74 77
3 3 2 2 2 1 2 2 3 4 7 22 26 41 95 100 100 100 97 100 100 99 95 100 94 98 100 100 100 100 92 93 90 95 95 94 82 82 84 68 69 66 63 57 55 54 56 67 75 74 75 74 79 75
3 3 2 2 2 2 3 3 3 4 9 19 46 78 100 100 100 88 90 97 90 87 100 100 100 100 100 100 100 91 94 98 99 100 97 83 80 85 82 78 74 69 63 57 55 56 62 76 75 72 74 68 66 64
4 2 2 2 3 3 3 3 5 6 12 42 79 100 100 100 79 80 92 93 83 95 100 100 100 100 100 100 94 95 98 100 100 96 89 76 79 80 79 84 70 66 63 58 60 63 66 74 78 76 70 70 68 77
3 2 2 2 3 3 3 4 4 9 26 61 97 100 100 95 92 93 93 82 85 97 100 100 100 100 100 100 95 98 99 100 100 94 83 80 82 85 75 67 70 70 64 58 63 67 66 74 74 72 81 70 67 74
2 2 2 2 3 4 6 6 8 31 69 93 100 100 100 100 100 100 100 96 100 100 100 100 100 100 100 100 100 100 100 99 100 96 87 92 95 87 78 78 67 63 67 64 62 65 74 70 69 73 74 69 70 79
2 2 2 2 4 5 9 15 22 43 75 100 100 100 100 100 100 100 100 99 100 100 100 100 100 100 100 100 100 100 98 91 100 98 93 91 94 80 74 69 64 66 64 69 69 73 69 61 71 77 77 70 80 75
2 2 3 3 5 7 12 24 56 87 100 100 100 100 100 100 100 100 100 100 100 100 100 100 100 100 100 100 100 100 100 100 100 98 89 89 90 67 68 63 58 65 64 70 65 69 61 71 69 76 74 66 74 80
2 3 5 6 7 10 18 28 83 100 100 100 100 100 100 100 100 100 100 100 100 100 100 100 100 100 100 100 100 100 100 100 100 100 100 90 81 84 69 63 69 65 66 62 67 65 64 69 72 67 65 66 79 93
3 5 6 9 11 13 23 54 72 97 100 100 100 100 100 100 100 100 100 100 100 100 100 100 100 100 100 100 100 100 100 100 100 100 100 94 98 88 75 61 60 60 64 62 59 64 83 77 71 70 66 73 86 70
5 6 8 14 16 27 68 100 100 100 100 100 100 100 100 100 100 100 100 100 100 100 100 100 100 100 100 100 100 100 100 100 100 100 95 100 99 88 72 67 58 64 60 59 64 78 72 72 64 69 73 87 86 64
9 10 14 17 48 88 100 100 100 100 100 100 100 100 100 100 100 100 100 100 100 100 100 100 100 100 100 100 100 100 100 100 100 95 94 94 93 85 70 60 62 60 61 61 78 79 67 66 69 72 87 84 56 50
19 24 38 87 100 100 100 100 100 100 100 100 100 100 100 100 100 100 100 100 100 100 100 100 100 100 100 100 100 100 100 100 100 92 84 85 78 75 68 71 65 61 64 81 78 68 70 69 68 77 88 48 43 22
71 100 100 100 100 100 100 100 100 100 100 100 100 100 100 100 100 100 100 100 100 100 100 100 100 100 100 100 100 100 100 98 86 83 78 72 62 66 72 66 64 73 84 78 71 70 70 64 69 78 52 50 21 12
100 100 100 100 100 100 100 100 100 100 100 100 100 100 100 100 100 100 100 100 100 100 100 100 100 100 100 100 100 100 94 87 80 74 76 70 74 75 73 66 76 78 77 69 69 68 67 80 72 61 48 36 13 7
100 100 100 100 100 100 100 100 100 100 100 100 100 100 100 100 100 100 100 100 100 100 100 100 100 100 100 100 99 94 92 85 81 80 78 80 84 78 73 82 75 66 65 63 64 64 73 78 61 33 37 18 9 4
100 100 100 100 100 100 100 100 100 100 100 100 100 100 100 100 100 100 100 100 100 100 100 100 100 100 100 97 95 88 80 80 82 84 84 80 69 78 90 79 71 66 69 67 68 64 68 52 39 34 19 9 5 4
100 100 100 100 100 100 100 100 100 100 100 100 100 100 100 100 100 100 100 100 100 100 100 100 100 96 82 81 85 84 76 74 83 79 76 70 74 84 83 68 72 66 68 66 66 76 55 28 32 21 10 5 4 4
100 100 87 92 100 100 100 100 100 100 100 100 100 100 100 100 100 100 100 100 100 100 96 88 84 83 84 84 78 78 85 82 71 72 71 77 86 78 68 67 68 71 66 75 58 48 34 27 12 7 4 3 3 4

GFSWCAN_250_rhum_108.txt.gz
RH
100 100 100 100 100 98 66 63 53 23 42 31 17 18 20 33 29 19 41 74 81 77 92 100 96 90 84 89 77 85 95 98 97 95 85 82 73 58 54 51 50 48 45 41 40 41 39 44 45 52 37 26 21 20
98 100 100 100 97 100 69 47 59 50 29 36 17 30 21 20 33 40 47 70 82 96 98 100 98 100 94 95 71 72 87 92 96 96 90 84 79 61 51 49 55 52 49 43 42 43 42 38 48 52 39 36 32 27
100 100 100 100 100 78 60 38 46 56 33 40 27 32 29 26 27 41 64 67 74 92 100 100 100 100 100 90 82 81 83 83 96 98 92 90 81 60 56 50 56 54 52 45 44 43 43 38 45 46 49 50 40 38
100 100 100 100 98 75 42 28 61 58 35 45 36 22 37 34 29 31 63 61 69 92 99 100 99 100 92 94 92 96 88 83 95 100 95 92 84 64 60 54 57 55 55 50 48 45 46 43 44 49 50 47 48 43
100 100 100 91 86 48 32 25 49 56 41 34 34 16 36 38 34 34 64 62 72 85 99 100 100 100 90 95 92 89 88 91 100 100 97 96 88 74 64 58 57 56 59 54 50 46 46 44 46 45 48 43 47 51
100 100 87 94 58 26 19 20 42 40 31 32 31 21 15 44 37 38 69 73 82 82 100 96 99 99 98 92 89 92 90 94 100 100 99 95 83 75 66 63 61 59 61 55 53 48 48 44 45 43 45 48 47 56
100 100 98 58 31 16 13 22 52 42 28 33 27 24 12 28 27 39 60 80 83 88 100 100 98 100 100 94 92 84 87 92 92 95 97 90 84 78 73 62 63 61 59 59 56 50 46 45 47 43 42 41 49 58
100 100 65 29 15 12 13 21 24 21 19 36 24 24 12 13 21 46 70 60 78 90 100 100 100 100 98 89 89 92 92 87 86 89 95 87 84 83 76 64 62 62 57 59 56 51 50 46 49 43 48 51 49 51
100 99 26 15 10 11 14 15 15 16 17 24 20 10 10 9 18 35 75 69 65 89 100 100 96 100 100 89 88 89 93 98 97 92 91 87 83 86 76 69 66 68 60 58 57 53 51 51 46 48 50 53 50 55
56 13 12 10 10 10 13 11 10 12 12 16 12 6 8 9 24 32 53 80 55 88 100 100 99 100 97 95 85 85 96 100 100 96 93 85 81 83 77 71 70 75 63 60 56 53 50 52 48 45 47 57 53 51
12 11 10 9 9 12 10 9 9 9 8 9 7 6 7 8 20 23 34 59 48 81 100 100 100 97 96 100 99 91 97 99 98 92 92 85 85 84 74 70 77 71 63 62 61 57 56 52 48 43 45 56 71 56
10 8 8 9 10 10 9 8 8 7 7 6 4 4 5 7 9 9 14 34 47 76 100 100 100 100 100 96 90 94 100 100 92 88 80 85 89 82 69 74 76 64 63 61 62 63 60 57 51 46 46 59 68 66
8 7 8 8 9 8 8 7 7 6 5 3 2 2 3 5 5 6 10 23 58 94 100 100 100 100 100 97 92 93 98 100 88 78 78 82 89 79 78 82 76 67 61 61 65 64 64 57 50 49 49 57 68 64
7 7 7 7 8 7 7 6 6 5 3 2 2 2 3 2 5 9 28 74 100 100 100 100 100 100 98 90 97 100 100 100 82 75 83 86 94 83 90 95 87 72 65 64 68 64 60 54 52 52 53 56 73 72
6 6 6 6 6 6 5 5 4 3 2 2 2 2 3 4 9 41 78 100 100 100 100 100 100 100 92 99 100 100 100 97 83 84 84 93 92 93 100 97 91 75 69 72 69 65 63 57 57 60 57 58 76 72
6 6 6 5 5 5 5 4 3 2 2 2 2 3 5 9 19 74 92 100 100 100 83 89 98 96 98 100 100 100 100 97 96 92 90 94 93 100 98 95 80 76 67 68 64 60 60 60 57 64 58 60 74 65
6 5 5 5 4 4 4 3 2 2 2 2 3 4 8 16 52 97 100 100 100 85 86 100 100 98 100 100 100 100 98 96 100 89 94 100 99 98 97 93 79 70 66 66 66 66 57 58 60 62 58 60 72 79
5 5 5 4 4 4 3 2 2 2 3 3 4 6 11 24 68 100 100 100 79 85 100 99 97 90 100 100 100 100 96 100 96 90 100 100 96 99 94 89 79 68 62 57 58 57 59 58 63 56 58 60 67 78
4 4 4 4 4 3 2 2 2 3 3 3 4 10 16 46 84 100 100 72 74 94 99 94 98 97 100 100 100 100 100 100 100 99 100 100 100 99 90 89 75 63 66 64 58 58 62 60 64 55 54 65 70 81
4 4 4 4 4 3 2 2 3 3 4 5 6 16 40 84 100 100 75 68 77 92 94 96 100 100 100 100 100 100 100 100 100 95 96 100 100 100 93 79 65 61 68 67 65 67 63 70 69 54 56 62 69 81
5 4 4 4 3 2 2 3 3 5 5 7 9 19 59 100 100 100 74 72 87 97 97 100 100 100 100 100 100 100 100 100 100 98 100 100 100 100 95 75 74 71 76 83 87 83 81 79 67 57 57 56 76 82
4 4 4 3 2 2 3 5 6 6 5 7 19 34 66 88 100 100 99 80 94 89 100 100 100 100 100 100 100 100 100 100 100 100 100 100 100 100 96 81 86 77 96 96 94 89 78 68 58 53 58 59 83 74
4 4 3 2 2 3 4 5 6 6 8 11 28 65 100 100 100 100 89 98 100 84 96 100 100 100 100 100 100 100 100 100 100 100 100 100 100 97 85 81 90 94 98 99 89 76 69 60 54 51 64 62 90 73
3 3 2 2 2 3 4 4 6 8 15 18 45 92 100 100 100 93 100 100 100 87 100 100 100 100 100 100 100 100 100 100 100 100 100 100 96 95 89 85 97 100 98 91 86 72 63 54 48 49 53 68 92 89
2 2 2 3 3 4 4 5 6 12 31 55 67 100 100 100 100 100 100 100 100 100 100 100 100 100 100 100 100 100 100 100 100 100 100 100 97 90 98 98 95 95 91 91 73 64 65 50 45 46 64 75 89 82
2 3 4 4 4 4 4 6 10 30 70 85 96 100 100 100 100 100 100 100 100 100 99 100 100 100 100 100 100 100 100 100 100 100 100 99 95 92 92 91 88 92 89 80 68 68 55 50 42 54 71 80 82 83
4 5 5 5 5 5 7 10 13 27 69 88 91 100 100 100 100 100 100 100 100 100 98 99 100 100 100 100 100 100 100 100 100 100 100 100 95 91 91 85 86 92 85 78 65 57 56 42 51 62 74 77 85 81
7 7 6 6 7 9 12 16 23 45 74 79 98 100 100 100 100 100 100 100 100 100 100 100 100 100 100 100 100 100 100 100 100 100 100 100 98 87 80 82 90 86 80 70 66 52 45 54 63 71 72 76 72 68
8 8 8 9 11 16 19 28 43 73 100 100 100 100 100 100 100 100 100 100 100 100 100 100 100 100 100 100 100 100 100 100 100 100 100 96 84 82 82 82 82 77 70 68 57 51 52 62 66 69 76 66 68 47
10 11 11 13 17 23 40 76 89 100 100 100 100 100 100 100 100 100 100 100 100 100 100 100 100 100 100 100 100 100 100 100 100 100 94 81 80 75 74 80 79 77 66 56 51 53 61 70 63 73 82 70 43 28
14 15 17 20 28 43 60 95 100 100 100 100 100 100 100 100 100 100 100 100 100 100 100 100 100 100 100 100 100 100 100 95 89 82 76 74 76 81 81 79 80 66 55 52 60 65 67 72 84 80 53 38 25 16
22 29 33 52 74 96 100 100 100 100 100 100 100 100 100 100 100 100 100 100 100 100 100 100 100 100 100 99 92 86 79 79 84 84 84 90 88 78 79 72 63 55 57 69 72 74 75 86 72 52 51 25 16 8
33 64 80 94 100 100 100 100 100 100 100 100 100 100 100 100 100 100 100 100 100 100 100 100 100 100 100 100 100 98 97 99 98 91 84 82 81 78 70 63 62 70 76 75 77 77 83 69 57 35 29 17 8 6

GFSWCAN_250_rhum_111.txt.gz
RH
100 100 92 100 100 96 99 100 100 100 100 99 30 14 16 18 26 34 52 60 75 92 94 100 100 100 100 99 98 80 98 100 98 96 98 86 77 66 61 53 53 50 48 44 42 40 41 44 41 42 40 34 28 20
99 91 100 100 100 100 100 100 100 100 100 100 62 12 17 16 29 34 42 80 92 82 91 100 100 100 100 93 100 81 85 98 97 95 99 95 83 80 64 54 52 55 52 48 42 44 43 42 45 42 44 39 39 31
100 98 100 100 100 100 100 100 100 100 100 100 88 13 15 17 21 29 51 63 79 88 91 97 100 100 100 98 100 100 83 87 97 98 97 98 91 85 64 61 54 57 55 51 48 46 44 40 43 42 53 51 41 34
100 96 100 100 100 100 100 100 100 100 100 100 48 13 14 19 18 20 32 68 75 89 92 95 98 100 100 100 100 100 90 87 95 97 100 100 97 90 80 68 58 58 58 52 50 49 45 42 42 46 47 46 46 42
100 100 100 100 100 100 100 100 100 100 100 100 25 11 13 17 18 18 28 53 89 90 94 100 94 91 100 100 100 100 82 81 92 89 98 100 100 95 88 77 64 64 60 56 52 50 47 43 42 47 46 48 45 42
100 100 100 100 100 100 100 100 100 100 99 100 21 14 11 14 19 19 19 32 81 100 96 100 100 91 100 100 100 100 98 88 92 89 97 100 100 93 83 78 73 68 64 56 54 51 48 45 46 48 45 45 47 48
100 100 100 100 100 100 100 100 100 100 100 76 15 14 11 12 22 18 17 46 50 90 99 96 100 100 100 100 100 100 100 96 93 93 89 91 96 90 82 84 78 73 66 60 55 50 49 48 51 51 45 48 46 49
100 100 100 100 100 100 100 100 100 99 96 35 12 14 12 13 18 24 23 20 25 63 80 92 100 100 100 100 100 100 99 100 96 90 82 88 100 94 89 85 82 79 70 63 60 51 51 52 56 52 47 46 48 50
100 100 100 100 100 100 100 100 82 36 51 16 11 12 12 14 17 25 27 13 20 32 74 100 100 100 100 100 100 100 100 98 93 89 87 91 98 92 94 87 89 87 74 65 65 55 53 55 58 55 52 50 50 52
100 100 100 100 100 100 100 95 46 25 18 11 11 11 10 14 16 20 21 11 10 20 49 100 99 100 100 100 100 100 100 99 90 95 92 87 91 89 99 97 96 91 76 64 64 58 53 53 54 53 50 50 51 54
100 100 100 100 100 85 72 73 14 13 11 10 10 10 9 11 13 20 12 8 7 14 30 95 96 100 100 100 100 100 100 100 90 96 98 97 100 100 100 99 99 91 79 68 68 63 58 54 51 52 53 51 50 52
100 100 89 94 60 62 50 14 11 10 8 9 8 8 8 9 11 14 9 8 5 12 30 80 98 100 100 100 100 100 94 95 95 96 98 100 100 98 99 100 98 89 90 72 75 72 66 57 54 55 54 49 50 54
84 40 34 30 35 36 11 11 9 8 8 7 7 7 8 8 8 8 7 8 7 9 39 84 100 100 100 100 100 100 87 98 100 97 100 88 100 97 98 100 93 85 80 78 88 78 71 58 55 59 53 49 53 50
48 15 22 30 20 10 10 8 7 7 6 6 6 6 6 6 8 9 11 10 8 9 43 100 100 100 100 100 100 87 98 100 100 100 99 99 100 96 95 100 96 93 77 84 90 83 73 63 60 53 51 50 52 54
13 15 16 12 9 8 7 6 6 6 5 5 5 5 5 6 7 7 8 7 7 9 51 100 100 94 100 100 94 99 91 98 100 100 98 100 100 100 98 100 100 84 82 94 92 81 71 61 54 53 53 56 56 56
8 8 10 9 8 6 6 6 5 5 5 5 5 5 5 5 5 5 5 5 6 10 62 86 94 85 96 88 98 98 98 100 100 90 100 100 100 100 98 99 95 99 96 97 91 81 69 61 54 57 62 61 58 58
8 9 7 6 6 6 6 5 5 5 5 4 6 4 4 4 3 3 3 4 6 15 54 81 61 70 87 95 100 94 100 100 100 89 100 100 98 100 100 100 100 100 96 87 79 77 64 57 55 63 72 72 66 64
7 6 6 6 5 5 5 6 6 6 6 5 4 4 3 2 2 2 3 4 8 23 69 60 52 80 99 100 100 100 100 100 85 96 100 100 100 98 100 100 100 99 83 82 90 89 66 55 61 65 76 81 81 75
6 6 5 5 5 5 5 5 6 5 5 4 4 3 2 2 2 3 4 7 16 34 65 37 62 86 98 100 100 100 100 100 93 100 100 100 100 95 88 100 100 100 92 91 98 79 67 62 63 65 70 78 81 75
5 5 4 5 5 5 5 6 5 5 4 4 3 2 2 2 2 3 5 11 32 61 28 43 83 95 100 100 100 100 100 92 100 100 100 100 100 100 100 100 100 100 98 100 94 84 81 71 66 63 78 79 88 82
4 4 5 5 5 6 5 5 5 4 4 3 2 3 2 2 3 4 7 17 43 52 42 64 85 97 100 100 100 100 100 85 100 100 100 100 100 100 100 100 100 100 100 100 98 82 71 66 67 74 87 80 76 82
6 6 5 5 5 5 6 5 4 4 3 2 3 3 3 3 4 5 11 34 74 50 51 75 93 100 100 100 100 99 91 88 100 100 100 100 100 100 100 100 100 96 100 98 83 76 72 65 69 74 80 76 73 76
6 6 6 4 6 6 5 4 4 3 2 3 3 3 3 4 5 9 22 40 36 38 61 86 98 100 100 100 100 93 84 91 100 100 100 100 100 100 100 100 100 100 93 81 81 84 84 72 66 70 72 68 66 64
6 5 5 6 6 5 4 4 3 2 3 3 4 5 5 6 11 25 46 60 67 54 64 83 94 100 100 100 100 96 100 100 100 100 100 100 100 100 100 100 100 95 85 78 77 81 81 70 64 66 68 61 61 63
5 6 6 5 5 5 4 3 3 3 4 5 4 5 6 10 24 45 66 67 60 64 75 90 100 100 100 100 100 100 100 100 100 100 100 100 100 100 100 98 95 82 78 79 76 73 75 68 66 67 64 61 61 63
5 4 5 5 5 4 4 3 3 3 4 5 5 6 7 12 24 58 73 65 56 58 75 96 100 100 100 100 100 100 100 100 100 100 100 100 100 99 95 92 82 82 84 85 81 74 74 68 67 65 56 54 61 62
5 5 4 4 4 3 3 3 3 4 6 6 6 7 13 24 52 75 83 79 71 81 94 100 100 100 100 100 100 100 100 100 100 100 100 100 100 96 98 100 98 89 87 85 76 73 72 66 61 54 53 59 69 70
4 3 3 3 2 2 2 3 3 5 7 8 9 18 43 64 76 81 100 100 95 93 97 100 100 100 100 100 100 100 100 100 100 100 100 100 100 100 100 98 96 96 86 72 72 72 66 57 50 51 61 68 73 74
3 3 2 2 2 3 3 4 5 7 8 10 15 40 83 87 100 100 100 100 96 100 100 100 100 100 100 100 100 100 100 100 100 100 100 100 100 100 97 100 95 84 76 74 77 70 58 50 52 61 69 73 81 76
3 3 3 3 4 5 4 5 6 8 8 11 34 71 96 100 100 100 100 100 100 100 100 100 100 100 100 100 100 100 100 100 100 100 100 97 94 92 94 96 88 80 75 80 71 57 54 57 64 68 74 82 76 68
3 3 3 4 5 5 5 5 7 9 11 26 69 94 100 100 100 100 100 100 100 100 100 100 100 100 100 100 100 97 98 100 99 94 86 89 93 98 100 91 77 74 77 65 55 56 67 70 72 76 78 84 66 46
5 6 6 6 5 5 6 7 10 12 28 50 73 91 100 100 100 100 100 100 100 100 100 100 100 100 100 100 100 100 100 100 100 100 100 100 97 94 88 78 74 70 60 59 61 74 72 72 80 83 83 61 45 31
8 8 7 6 6 6 8 10 12 22 51 69 84 100 100 100 100 100 100 100 100 100 100 100 100 100 100 100 100 100 100 100 100 100 99 91 87 80 75 72 63 62 62 71 79 74 76 81 82 81 65 46 27 21

GFSWCAN_250_rhum_114.txt.gz
RH
100 100 100 100 95 100 97 100 100 100 100 100 100 100 100 100 97 99 18 22 39 45 73 90 100 100 100 98 95 98 100 100 99 100 98 96 85 84 66 66 58 49 52 51 47 43 41 38 35 33 30 32 34 32
100 100 100 100 100 92 100 90 98 100 100 96 100 100 100 100 97 99 23 17 32 51 64 87 93 98 100 100 100 100 100 100 91 94 98 99 95 87 86 70 67 57 53 54 51 46 43 40 38 36 33 36 33 35
100 100 100 100 100 94 100 76 100 100 100 97 100 100 100 100 100 100 32 14 20 50 74 77 96 100 100 100 100 99 100 100 100 96 97 100 97 92 90 85 70 66 61 58 54 52 47 44 42 40 39 39 36 38
99 100 100 100 100 92 72 100 100 100 100 100 100 100 100 100 100 100 38 14 19 23 63 88 90 100 100 100 100 99 100 100 100 99 100 98 98 94 92 92 91 81 72 65 60 58 53 48 44 42 44 41 44 40
100 96 94 100 100 100 98 100 100 100 100 100 100 100 100 100 100 99 46 13 17 20 38 77 93 97 100 100 100 100 94 95 88 98 100 94 96 96 90 94 93 90 83 79 72 64 60 51 48 45 45 44 41 46
98 100 100 92 100 100 100 100 100 100 100 100 100 100 100 100 100 81 46 15 13 19 20 41 70 85 100 100 100 100 100 100 99 91 100 98 94 94 90 91 91 90 86 87 83 72 66 60 52 48 46 46 43 49
100 100 100 100 100 100 100 100 100 100 100 100 100 100 100 94 97 54 39 14 10 12 20 22 46 74 85 100 100 99 100 100 100 100 100 100 97 95 91 88 96 94 89 92 91 80 71 66 58 52 50 47 46 44
100 100 100 100 100 100 100 100 100 100 100 100 100 100 80 91 76 43 23 13 10 11 14 20 29 67 86 97 100 100 100 100 98 100 99 100 99 96 90 100 94 96 97 98 98 88 74 68 64 58 56 50 49 44
100 100 100 100 100 100 100 100 100 100 100 99 95 100 93 69 42 28 18 12 9 10 12 20 27 46 65 92 100 100 100 100 100 100 92 98 100 98 90 93 93 97 100 100 99 93 77 74 69 64 62 53 50 44
100 100 100 100 100 100 100 98 100 100 100 88 100 100 99 44 30 17 11 9 9 10 12 22 29 32 60 85 100 100 100 100 100 100 92 99 100 85 100 90 92 100 100 100 99 92 79 80 76 70 66 62 53 50
100 100 100 100 100 100 100 100 100 100 100 100 100 100 75 24 24 14 8 9 9 9 14 23 39 32 49 75 94 100 100 100 100 100 95 100 88 90 100 90 91 96 99 100 100 92 80 82 78 70 72 66 57 52
100 78 100 100 100 100 100 100 100 100 98 100 96 77 26 14 13 8 8 10 10 10 15 22 31 39 43 63 85 100 96 88 98 100 99 100 75 100 100 99 98 95 97 100 100 95 84 83 76 72 75 69 64 54
18 19 94 100 100 100 100 100 52 50 75 78 50 34 10 9 9 9 8 10 10 12 16 22 36 34 37 50 75 94 96 88 91 100 100 100 81 100 100 98 100 97 100 100 100 100 91 85 85 81 83 77 67 52
15 20 26 28 26 32 65 36 49 55 38 41 26 9 8 8 9 9 9 8 10 12 17 17 23 22 18 34 51 66 88 83 89 100 100 100 84 100 100 100 100 98 100 100 100 98 89 95 98 96 87 83 65 51
11 12 13 13 13 41 54 40 21 23 23 19 9 7 8 8 7 8 9 8 10 12 12 14 16 22 13 15 27 43 66 76 84 100 100 100 80 100 100 100 100 98 96 100 98 94 95 99 100 93 83 83 76 56
10 9 11 21 25 25 16 16 18 16 8 9 8 7 7 7 8 8 8 9 9 10 9 9 11 11 9 6 12 28 60 90 100 100 100 100 93 100 100 100 100 100 95 92 98 95 100 100 100 91 79 87 78 64
12 10 18 21 13 10 12 12 10 8 8 7 7 6 6 6 7 8 7 7 8 7 8 9 8 9 8 6 10 19 68 100 100 100 100 100 92 95 100 100 100 100 100 94 99 100 100 100 100 88 89 94 82 72
10 13 12 10 10 9 9 9 8 7 6 6 6 6 5 5 6 7 7 7 6 6 8 7 7 8 7 6 15 54 98 100 100 100 100 89 75 80 100 100 100 100 100 100 100 100 100 100 100 96 100 96 90 70
9 9 10 10 10 9 8 8 7 6 5 5 5 5 4 5 6 6 6 6 5 5 6 6 6 7 7 7 24 66 89 100 100 100 100 95 87 86 92 96 99 100 100 100 100 100 100 100 94 98 96 91 79 70
10 10 10 9 8 8 7 7 6 5 5 6 5 5 6 6 5 5 4 4 4 5 5 5 6 7 7 9 27 63 84 100 100 100 100 99 100 96 83 87 95 99 100 100 100 100 99 100 100 100 98 86 72 63
8 8 8 8 8 6 5 5 6 6 5 5 5 5 5 5 4 4 3 3 3 3 3 4 4 6 7 9 29 66 88 95 100 100 100 97 92 80 85 100 98 95 100 100 100 100 100 98 100 99 92 75 67 61
7 7 7 6 5 5 6 7 7 6 6 6 6 6 5 4 4 4 3 2 2 2 3 3 5 5 8 13 38 67 89 92 100 100 97 93 99 100 94 98 99 100 100 100 100 100 100 100 100 98 84 69 64 61
6 6 5 5 5 6 7 7 7 8 8 6 5 5 5 4 4 2 2 3 3 3 3 4 5 7 13 38 66 73 92 94 100 97 99 99 99 97 100 100 100 100 100 100 100 100 100 100 94 86 77 69 61 57
7 6 6 6 7 8 8 8 8 10 9 6 5 4 4 4 3 2 3 4 4 4 4 6 6 10 32 73 79 85 100 100 100 100 100 100 98 94 99 100 100 100 100 100 100 100 100 93 91 85 76 65 60 59
6 5 6 7 8 8 7 8 9 9 7 6 5 4 4 4 3 4 5 5 5 6 6 7 7 18 40 61 76 96 100 100 100 96 100 99 95 100 100 100 100 100 100 100 100 100 100 92 86 82 71 67 61 59
5 6 7 9 8 8 9 8 8 7 6 5 5 4 4 4 5 6 4 4 5 7 7 9 17 36 52 58 75 98 100 100 100 100 100 100 100 100 100 100 100 100 100 100 100 93 88 87 84 74 70 62 58 61
6 8 11 10 8 8 7 6 6 6 5 5 5 4 4 6 8 7 6 5 7 8 12 25 38 49 51 62 79 98 100 100 100 100 100 100 100 100 100 100 100 100 100 100 100 96 97 88 73 74 67 55 62 59
8 8 8 7 6 6 5 5 5 5 5 5 4 4 6 7 9 8 7 8 10 18 38 61 73 64 56 73 96 100 100 100 100 100 100 100 100 100 100 100 100 100 100 100 100 100 92 77 77 72 58 61 59 59
6 6 6 5 4 4 4 4 4 4 4 4 4 6 6 8 8 10 13 23 40 59 68 97 88 70 80 92 100 100 100 100 100 100 100 100 100 100 100 100 100 100 100 100 94 87 77 80 72 58 62 62 61 58
5 5 4 4 4 4 4 4 4 4 4 3 4 6 7 8 9 26 46 56 82 97 100 90 71 79 99 100 100 100 100 100 100 100 100 100 100 100 100 100 100 100 100 88 81 81 82 67 57 59 59 62 58 61
4 4 4 4 4 3 3 3 3 3 3 4 4 6 7 9 15 54 71 81 100 100 95 88 91 96 99 100 100 100 100 100 100 100 100 100 100 96 96 100 93 83 87 92 90 77 62 61 59 59 62 60 61 72
4 4 4 3 3 3 2 3 3 3 4 5 5 6 7 13 38 54 80 100 98 88 95 96 98 100 97 98 99 99 100 98 100 100 100 97 97 100 97 89 86 93 89 80 69 64 62 57 60 62 60 62 71 69
4 3 3 4 4 4 4 4 4 4 4 6 7 7 9 15 45 71 84 81 94 95 96 97 96 98 100 94 94 97 97 96 100 100 100 99 92 86 84 84 81 79 75 69 70 68 64 59 61 60 65 73 71 74

GFSWCAN_250_rhum_120.txt.gz
RH
100 100 100 100 100 99 95 87 90 80 74 83 99 99 79 99 100 100 73 100 100 82 96 100 100 100 99 75 29 34 60 65 94 93 86 91 90 95 90 98 99 97 95 84 67 64 69 75 76 72 69 65 57 53
100 100 100 100 100 100 100 90 100 97 100 86 100 100 100 100 92 90 79 100 97 88 75 100 96 100 97 89 63 18 46 68 70 93 98 86 87 87 99 99 97 99 100 99 91 84 79 78 78 82 78 70 65 59
97 97 99 100 87 100 100 95 100 100 100 100 100 100 100 100 100 80 92 89 80 91 97 88 94 100 100 93 59 46 19 58 80 83 94 97 94 91 87 90 88 98 100 100 100 93 91 86 83 86 85 82 69 66
41 54 61 75 70 57 98 100 100 100 86 99 98 100 100 91 75 75 85 90 76 84 93 100 88 100 100 87 58 61 17 26 64 87 94 94 98 99 93 98 86 82 96 99 100 100 95 90 88 90 94 93 83 73
63 65 51 57 79 85 78 100 88 94 94 100 100 100 96 86 90 100 71 69 84 87 91 95 98 100 100 89 38 50 33 15 33 72 96 94 94 99 98 100 87 99 86 89 96 100 97 95 91 91 98 100 96 79
100 97 80 100 82 87 98 100 100 100 100 100 100 100 100 100 100 100 98 84 77 89 100 90 100 100 100 100 31 38 44 20 14 42 76 93 98 82 97 100 72 88 100 98 87 94 100 95 98 87 91 100 98 88
100 100 100 100 100 100 100 100 100 100 100 100 100 100 100 100 100 100 99 77 74 91 87 98 100 100 100 100 50 24 47 25 14 14 47 82 92 75 98 100 64 83 100 88 94 91 90 98 96 93 82 86 94 88
100 100 100 100 100 100 100 100 100 100 100 100 100 100 100 98 100 100 100 84 77 80 90 100 100 100 100 100 55 25 40 23 16 12 18 47 80 79 91 100 89 87 96 75 92 96 88 95 95 91 85 84 94 90
100 100 100 100 100 100 100 100 100 100 100 100 100 100 98 99 100 100 100 92 86 95 100 100 100 100 100 100 32 18 30 29 13 12 12 16 38 91 100 100 100 75 86 87 79 94 93 94 91 90 86 85 91 93
100 100 100 100 100 100 100 100 100 100 100 100 100 100 100 100 100 100 100 90 87 98 100 100 100 100 96 95 18 13 14 20 12 13 11 11 22 88 100 100 100 75 100 98 81 77 83 94 84 82 78 77 78 89
100 100 100 100 100 100 100 100 100 100 100 100 100 100 100 100 100 100 100 96 86 97 98 100 100 94 80 44 14 13 14 12 10 14 12 11 19 96 100 100 100 68 93 100 75 83 81 86 85 76 78 78 74 80
14 19 27 46 84 100 100 100 86 98 100 100 100 100 90 100 91 100 99 69 49 44 65 95 53 39 22 13 12 13 11 12 10 10 10 12 42 70 100 100 100 77 76 100 74 100 84 83 85 79 73 77 82 88
9 10 13 16 30 44 33 25 37 55 76 66 45 20 28 62 54 60 32 24 31 45 35 25 38 27 13 10 10 11 11 12 10 10 14 19 35 53 100 100 100 96 81 99 72 94 91 94 90 84 68 66 80 88
7 9 10 10 11 12 12 14 13 14 30 25 17 18 20 15 11 18 26 26 24 17 20 32 33 13 10 9 10 16 11 11 11 11 18 19 26 33 58 100 98 100 100 99 84 86 85 96 100 96 75 65 69 78
6 7 8 8 9 11 11 13 13 15 16 18 25 20 14 16 11 16 19 16 15 15 21 17 13 10 10 10 14 12 11 12 14 15 13 12 20 20 36 66 66 85 100 100 92 81 86 82 94 99 89 78 65 70
4 5 6 7 8 9 10 12 12 12 13 13 16 12 16 16 16 15 15 13 13 13 14 10 9 8 9 12 12 13 14 18 13 9 8 8 14 15 19 43 39 58 87 100 93 84 84 81 85 93 99 93 82 83
4 4 5 6 8 9 10 10 10 11 10 9 9 11 14 14 14 14 15 16 13 13 12 8 8 8 10 14 16 16 16 12 10 9 9 9 11 13 14 28 35 38 58 99 98 86 78 75 73 83 94 98 100 95
4 4 5 6 6 7 7 8 10 10 10 9 9 13 14 13 14 15 14 14 15 13 10 8 7 8 12 14 13 11 11 8 8 7 7 7 9 12 12 16 33 42 42 78 98 88 87 80 72 71 92 96 98 93
4 5 5 6 6 8 9 9 9 9 9 10 12 12 12 14 14 13 13 11 10 9 7 7 8 13 15 12 11 8 9 7 7 6 6 6 8 10 10 11 23 38 36 59 92 98 88 83 69 72 90 90 94 94
4 5 5 6 7 7 6 6 8 8 9 10 10 10 11 12 11 10 10 11 9 6 6 10 13 14 12 10 8 7 8 7 6 6 5 5 7 9 9 10 17 32 39 55 87 96 96 91 80 74 87 90 95 97
4 4 4 5 5 5 6 6 7 7 8 8 9 8 9 9 10 14 14 8 6 8 10 13 14 10 7 7 6 6 6 6 6 5 5 6 7 9 9 11 13 29 41 36 65 90 95 98 87 78 78 86 96 100
4 5 5 5 5 5 4 5 6 6 7 7 7 8 8 10 12 10 8 7 9 13 16 11 9 7 5 6 5 5 6 5 5 5 5 6 8 9 9 10 11 23 34 42 49 66 84 98 90 79 80 87 97 100
5 5 5 5 4 4 5 5 6 6 6 7 7 8 10 11 13 11 9 11 16 20 10 7 6 6 6 5 5 4 5 4 5 5 5 7 8 9 10 10 12 21 29 37 55 82 82 90 90 84 81 90 100 100
4 4 4 4 4 4 5 5 6 6 7 7 9 10 11 12 12 11 12 15 16 7 7 6 6 6 5 4 5 4 5 5 5 6 6 8 8 10 10 11 18 28 41 58 70 90 93 94 95 87 83 98 100 100
5 5 4 4 5 5 6 6 7 8 8 10 10 10 10 10 9 9 10 10 7 8 8 6 7 5 6 5 4 5 5 4 5 6 6 6 8 8 8 10 14 25 53 88 92 93 97 97 100 99 89 100 100 97
4 4 5 6 6 7 8 10 11 13 14 10 7 8 8 8 8 9 10 10 10 8 7 8 7 8 6 5 5 5 5 4 5 5 5 5 6 6 8 13 18 21 51 84 100 98 100 100 100 98 85 90 96 97
4 5 6 7 8 8 8 9 9 8 7 8 9 8 7 8 9 11 11 9 8 9 10 10 10 9 6 5 4 4 4 4 5 6 7 6 7 11 17 24 28 39 72 97 100 100 100 100 99 93 92 91 92 96
6 7 7 7 8 8 8 8 7 7 7 8 9 8 8 8 8 10 10 8 10 11 11 10 8 6 4 4 3 3 4 4 5 6 8 11 18 22 30 38 51 74 94 100 100 100 100 99 94 93 94 95 94 92
7 7 7 7 8 8 8 7 7 8 9 9 8 8 8 9 10 10 9 12 12 11 10 8 6 5 4 4 5 5 5 5 8 12 15 19 29 38 39 40 48 75 92 100 100 100 100 100 96 91 97 98 95 100
8 8 8 7 7 7 8 7 7 7 7 8 8 9 9 10 11 10 12 13 10 9 7 6 6 6 6 6 6 5 6 8 11 17 32 40 43 32 28 30 43 73 94 100 100 100 100 100 100 100 100 98 99 93
6 6 6 6 7 6 6 7 7 8 8 8 8 9 11 11 11 11 11 9 8 7 6 6 7 8 7 6 6 7 8 11 17 27 38 51 49 42 38 39 60 76 90 100 100 99 100 100 100 96 92 94 92 87
9 9 9 9 8 6 6 7 8 9 9 10 10 10 9 8 9 10 8 7 7 7 7 7 9 8 7 8 8 10 12 12 14 21 29 41 42 39 41 49 70 88 96 99 100 100 100 99 96 95 93 92 88 80
7 6 6 6 6 7 7 8 8 8 8 8 8 7 7 8 8 8 6 7 7 7 8 8 8 8 9 12 14 18 22 28 31 34 34 36 45 49 48 54 72 88 98 95 97 96 96 96 96 96 90 80 75 66

GFSWCAN_250_rhum_123.txt.gz
RH
96 97 61 57 79 82 83 90 82 65 56 55 67 68 82 81 100 97 92 86 87 84 100 97 84 82 66 93 86 95 96 99 82 45 21 59 88 86 84 78 66 72 82 87 85 83 80 83 88 86 76 66 64 63
100 100 79 65 52 52 55 59 65 57 50 68 83 68 91 100 86 87 71 74 89 100 100 96 88 81 59 100 82 100 92 100 100 83 35 24 58 78 91 79 82 68 65 72 84 83 82 81 89 87 86 82 70 69
85 86 50 46 56 59 59 58 58 56 64 77 100 100 88 100 99 90 74 97 87 99 100 98 91 82 72 84 88 96 94 99 99 98 45 30 28 69 80 90 82 82 74 68 71 81 77 81 88 94 87 86 88 80
53 50 47 60 66 89 92 96 93 100 80 77 83 85 89 100 100 94 94 100 99 87 100 100 100 100 100 100 85 89 82 89 99 100 49 37 22 33 82 81 90 87 89 80 67 77 72 72 76 84 92 88 82 86
56 63 75 96 98 97 98 100 100 100 100 99 93 98 100 100 100 99 97 100 100 95 84 100 100 100 100 96 90 87 80 70 65 100 58 46 28 18 35 75 100 83 80 91 85 68 74 67 72 72 73 88 88 81
100 100 100 100 100 100 100 100 100 100 100 100 100 100 100 100 100 100 100 100 94 90 100 100 100 100 100 100 100 93 58 55 45 89 73 54 36 16 17 81 100 99 80 84 97 73 82 69 69 70 64 73 77 87
100 100 100 100 100 100 100 100 100 100 100 100 100 100 100 100 100 100 100 100 100 100 100 100 100 100 100 100 100 97 43 38 34 71 92 35 52 17 17 51 100 100 84 86 98 88 84 85 82 66 68 61 68 81
100 100 100 100 100 100 100 100 100 100 100 100 100 100 100 100 100 97 100 100 100 100 100 100 100 100 100 100 100 100 33 28 25 42 78 28 49 29 20 70 97 71 97 68 97 96 75 90 92 79 76 68 67 76
100 100 100 100 100 100 100 100 100 100 100 100 100 100 100 97 100 100 100 100 100 95 100 100 100 100 100 100 100 86 19 21 20 25 36 23 82 74 36 36 64 36 57 71 70 100 94 81 72 94 91 74 76 73
61 89 100 100 100 100 100 100 100 100 100 100 100 100 100 100 100 100 100 100 100 100 98 100 100 100 100 100 94 41 21 18 16 21 16 19 52 100 63 19 18 38 38 78 75 94 100 87 72 89 87 88 85 87
26 19 25 30 46 100 100 100 100 100 100 100 100 100 100 100 100 100 100 100 100 96 100 100 100 100 100 90 63 39 18 12 12 17 17 22 62 87 67 27 11 11 11 15 52 86 100 99 77 77 74 82 84 95
10 10 12 14 24 38 52 84 100 100 72 84 100 100 100 100 80 60 49 47 52 100 100 100 100 100 96 48 67 46 25 14 12 14 19 22 55 57 48 15 11 10 9 8 13 50 96 100 80 82 73 69 78 81
8 9 10 10 11 12 12 13 14 16 21 40 68 84 100 78 18 70 19 21 95 100 73 90 95 64 45 37 68 28 14 13 11 15 16 17 25 43 30 15 11 10 9 9 9 16 59 99 98 94 90 68 71 80
5 6 7 7 8 9 10 12 13 12 13 18 29 46 57 20 13 14 32 38 68 80 30 44 49 45 26 29 28 18 13 13 12 15 25 15 15 25 26 18 11 11 10 9 9 12 25 62 79 87 96 95 78 78
4 4 4 5 6 6 7 9 10 10 11 14 13 12 12 11 13 20 64 70 65 43 24 34 37 33 25 24 17 13 13 12 15 20 20 14 14 19 18 16 11 11 10 9 8 12 22 39 67 80 91 94 98 79
3 3 4 4 5 5 6 8 8 9 10 11 11 10 12 12 13 24 35 35 32 27 17 24 32 27 26 17 12 12 14 15 30 16 15 15 14 17 15 16 13 11 12 9 8 10 16 31 42 76 92 93 97 98
2 3 4 4 4 5 6 6 6 7 8 8 7 8 10 12 11 13 15 13 16 20 19 18 17 29 38 11 11 15 16 17 18 16 12 14 15 16 15 14 14 11 10 10 8 9 12 23 33 58 79 80 92 93
3 3 4 4 4 5 4 4 5 5 5 6 7 9 10 10 12 13 12 13 17 18 18 18 23 19 17 14 43 36 15 14 15 19 13 14 16 13 14 13 14 13 11 10 9 8 10 14 22 34 52 73 91 97
4 4 4 4 4 4 4 4 4 4 4 5 6 8 9 9 11 12 13 14 14 16 16 14 15 21 34 52 47 13 13 17 19 18 16 21 17 13 13 13 12 10 10 10 9 8 8 10 14 26 44 60 85 99
4 4 4 4 4 4 3 3 4 4 4 5 6 7 8 10 11 12 12 13 13 13 13 12 17 73 63 28 13 12 12 10 13 13 16 17 16 13 12 12 9 7 8 7 8 8 7 8 10 22 32 50 71 79
4 4 4 4 4 3 3 3 4 4 4 5 6 7 8 9 10 11 12 12 11 12 12 17 31 32 14 10 10 9 8 10 16 24 26 18 11 9 8 7 6 6 6 7 7 6 6 7 9 14 31 52 62 75
4 4 4 4 3 3 3 3 4 4 4 5 5 6 8 8 9 10 11 12 11 11 15 16 15 11 9 10 8 8 10 15 20 19 13 10 9 7 6 5 6 5 6 6 6 6 6 7 9 13 26 46 66 79
4 4 4 4 3 3 3 4 4 4 5 6 7 7 8 9 10 11 10 10 10 12 11 11 9 10 9 7 10 17 18 13 10 9 8 6 6 5 5 4 4 5 5 5 6 5 6 8 10 16 28 48 74 86
4 4 3 3 3 3 4 4 4 5 6 6 6 7 7 8 9 9 8 10 10 9 10 9 8 8 9 14 18 15 12 9 6 5 5 4 4 5 4 4 5 5 5 6 6 6 8 9 12 20 30 58 91 100
4 4 3 4 4 4 4 5 6 6 6 7 8 8 9 9 9 9 10 10 8 8 7 7 8 13 17 16 10 8 6 5 4 5 5 4 4 5 5 5 6 6 6 6 6 7 9 11 14 27 46 78 100 100
4 4 5 5 5 5 5 6 6 7 7 7 7 8 8 8 8 8 10 8 7 7 10 14 15 16 14 10 7 5 5 6 6 6 6 6 5 5 5 5 6 6 6 6 7 8 10 14 25 49 91 100 100 100
6 6 6 6 6 6 7 7 8 7 7 7 8 8 7 7 8 10 10 8 10 12 14 15 15 11 8 6 5 6 6 6 7 6 5 5 5 5 5 5 5 6 7 8 11 13 16 24 43 65 73 93 100 97
7 7 7 7 7 7 8 7 7 7 7 7 7 8 8 9 11 10 11 12 11 11 11 9 10 10 6 5 6 7 7 7 6 5 5 4 4 6 6 6 7 9 10 13 17 29 43 52 55 65 74 85 92 99
8 7 8 8 7 6 7 7 7 7 7 7 8 9 10 11 9 10 10 9 8 7 8 12 12 8 6 8 8 8 6 5 5 5 4 4 4 5 6 7 8 10 12 14 17 22 40 54 63 76 90 99 100 100
7 7 7 6 6 6 7 6 6 6 7 7 8 8 9 8 8 9 8 7 9 12 14 14 10 9 10 9 8 7 6 6 5 4 4 4 4 5 8 9 11 12 17 24 33 46 62 77 90 100 100 100 100 100
7 6 6 6 6 6 6 6 6 7 8 8 7 7 7 7 7 8 10 12 12 13 14 11 10 10 9 8 7 6 6 6 6 5 5 6 6 10 13 13 19 28 37 44 55 74 82 95 100 100 100 100 100 100
6 6 6 6 6 6 6 6 6 6 7 7 7 7 8 10 13 14 12 11 11 12 12 10 10 9 8 7 7 7 7 8 7 7 7 8 12 22 27 35 44 53 60 69 78 86 97 100 100 100 100 100 100 100
8 8 8 7 7 7 7 7 7 7 8 9 10 10 11 12 11 10 10 12 13 12 10 9 8 8 8 7 7 9 9 10 9 10 12 18 21 37 54 67 71 74 79 83 85 86 96 100 100 100 100 100 100 100

GFSWCAN_250_rhum_126.txt.gz
RH
95 100 100 100 100 100 100 100 100 97 89 82 74 66 64 73 84 84 100 98 97 83 70 79 82 91 69 78 90 82 80 66 76 73 69 97 90 96 54 47 90 100 95 86 75 64 59 63 61 62 61 55 50 54
82 69 63 88 100 100 98 100 100 98 86 94 95 75 68 74 100 100 95 100 95 96 90 90 74 94 91 97 99 74 73 73 58 62 62 100 80 86 79 53 35 82 96 100 90 78 77 66 66 66 68 66 59 52
92 88 94 96 86 95 99 82 77 83 81 87 84 82 83 84 90 96 100 100 100 100 90 95 100 100 99 100 99 87 90 75 65 60 62 92 88 69 53 70 52 48 85 99 100 95 95 82 76 67 69 70 65 63
92 96 88 93 90 87 90 91 83 83 90 91 94 93 90 100 100 96 100 100 100 94 98 100 100 100 100 100 100 100 92 69 62 48 71 71 70 71 63 69 85 66 53 62 100 81 100 92 87 78 76 77 71 66
100 96 82 89 98 97 89 91 93 99 99 100 100 100 100 100 100 100 98 100 98 96 86 74 75 100 100 100 100 100 94 65 50 53 90 67 54 61 88 61 100 68 35 26 65 82 98 100 88 86 85 76 69 73
83 91 91 76 76 82 89 98 100 100 100 100 100 100 100 100 100 100 100 100 98 92 100 100 100 100 100 100 100 100 100 79 44 73 81 78 48 52 89 100 100 57 31 16 18 42 99 100 93 93 100 83 73 74
89 90 93 100 100 100 100 100 100 100 100 100 100 100 100 100 100 100 87 100 99 96 99 100 95 100 100 100 100 100 99 78 50 69 94 58 43 61 98 100 64 21 33 26 12 16 53 64 70 78 98 89 85 74
99 100 100 100 100 100 100 100 100 100 100 100 100 100 100 100 100 98 99 100 100 100 100 100 100 100 100 100 100 100 99 59 53 67 72 45 54 72 100 99 94 19 13 39 19 13 21 40 60 47 66 81 87 85
100 98 95 100 100 100 100 100 100 100 100 100 100 100 100 100 100 100 100 100 100 100 100 100 100 100 100 100 100 100 92 60 77 87 46 30 66 92 89 58 67 17 18 23 31 34 18 15 43 50 40 64 77 94
60 86 79 100 77 68 64 99 100 100 100 100 100 100 100 100 100 100 100 100 100 100 100 100 100 100 100 99 100 100 67 52 83 91 29 29 53 100 85 32 27 16 12 14 16 29 27 29 18 37 52 45 78 90
12 12 17 18 35 24 33 72 100 100 100 100 85 87 100 100 100 100 100 100 100 99 100 100 100 100 96 71 100 100 50 27 57 71 30 29 69 100 98 26 21 15 11 10 13 18 21 24 17 21 30 37 57 78
10 10 12 12 14 15 18 37 71 79 72 26 31 64 100 100 100 100 85 74 39 54 66 100 100 100 90 97 100 100 34 21 52 54 22 36 100 97 38 37 23 18 13 12 11 14 21 18 16 16 34 24 28 61
7 7 9 10 10 11 12 13 14 18 17 17 20 20 30 44 29 16 28 33 18 52 100 100 100 82 100 86 97 85 31 19 45 59 70 99 100 29 30 28 34 29 18 15 10 11 14 15 13 12 15 27 25 48
5 6 6 7 7 8 8 9 11 13 11 12 11 12 11 11 12 13 15 22 17 18 33 23 51 47 60 65 86 83 52 26 37 70 100 91 23 18 24 33 28 28 21 16 11 10 14 13 12 12 12 15 24 30
4 4 4 4 5 5 5 6 7 8 7 8 8 7 7 8 10 12 13 14 14 15 18 18 19 36 37 72 94 61 27 28 62 100 100 42 21 21 28 35 23 27 28 24 16 10 11 14 13 12 11 12 16 22
4 4 4 4 4 4 5 5 5 5 5 5 5 5 6 7 9 10 11 12 14 16 15 16 18 20 24 50 80 34 16 41 93 100 56 25 21 19 22 22 17 15 21 22 17 11 9 12 13 12 11 11 12 18
4 6 6 4 4 4 5 4 4 4 4 3 4 5 5 5 7 8 10 10 13 12 12 14 16 18 18 23 23 19 36 100 100 66 37 19 16 16 18 19 15 15 20 25 17 12 11 11 12 12 10 9 11 12
6 7 6 6 5 6 5 4 3 3 3 3 3 4 5 5 6 8 8 8 10 12 13 13 15 19 20 17 25 35 44 84 43 26 25 18 17 15 18 20 18 20 21 24 16 12 12 11 12 12 10 8 8 10
6 6 6 6 6 6 5 4 4 3 3 3 3 4 4 4 5 6 6 7 8 9 10 11 12 11 13 16 25 34 26 21 22 22 17 16 14 14 17 17 22 19 18 17 14 12 12 12 13 12 10 8 7 8
6 6 6 5 4 4 4 4 4 3 3 4 4 5 5 5 6 6 6 7 8 9 9 8 10 12 15 18 21 20 15 15 16 17 16 14 14 14 14 14 13 13 14 14 14 15 12 10 10 11 10 8 6 6
5 5 4 4 4 4 3 3 3 3 3 4 4 4 4 5 5 6 6 7 7 6 7 9 11 14 16 16 14 12 12 13 14 16 16 16 14 13 10 10 10 13 14 11 8 8 7 8 9 9 8 6 6 6
5 4 4 4 3 3 3 3 4 4 4 5 5 5 5 5 5 6 6 6 6 7 9 11 12 13 13 11 10 10 12 13 14 12 12 12 12 11 11 11 13 11 8 8 8 8 9 9 8 7 5 6 6 7
4 4 3 3 3 3 4 4 4 4 4 5 5 4 4 5 5 6 5 5 6 8 9 9 9 8 8 8 10 12 12 12 11 11 11 11 10 10 10 10 7 7 8 9 9 9 7 6 5 5 6 6 6 6
4 4 3 3 4 4 4 5 5 5 5 5 5 4 4 5 5 5 5 6 7 7 7 7 7 8 10 11 12 11 10 10 11 10 10 9 10 9 7 7 8 8 6 5 4 4 5 4 5 6 5 5 6 7
4 4 4 4 5 5 6 6 5 5 5 5 5 5 6 6 7 6 7 7 7 7 7 8 8 8 8 9 11 11 10 10 10 10 11 10 9 10 9 7 6 5 4 4 4 4 5 5 5 5 5 6 8 9
4 4 5 5 5 5 5 5 5 5 5 5 6 6 6 7 6 6 7 7 7 7 7 7 8 8 9 9 9 9 8 9 10 12 10 9 8 7 6 5 5 4 6 6 5 5 6 6 6 7 8 8 9 10
5 5 6 5 5 6 6 6 6 6 6 6 6 6 6 6 6 6 7 7 7 7 7 8 8 8 8 9 9 9 9 10 10 11 9 7 6 6 7 6 7 6 6 6 6 6 6 7 8 9 9 9 10 10
6 6 7 6 6 6 6 6 6 6 6 6 6 6 6 7 7 7 7 7 7 7 8 8 9 8 8 9 10 11 11 10 8 6 7 7 7 8 7 6 6 6 6 6 6 6 6 7 7 8 9 10 12 17
7 7 7 7 7 7 7 7 7 7 7 6 6 6 6 7 6 6 7 7 8 8 8 8 9 9 11 12 11 10 8 6 7 8 8 8 8 7 6 5 5 5 6 6 6 6 6 7 9 10 13 16 22 34
9 8 8 8 7 7 6 6 6 6 6 6 6 6 7 7 7 7 8 8 8 8 8 9 10 11 11 10 8 7 7 8 8 7 8 8 6 6 5 5 5 6 9 9 8 8 9 12 15 20 25 36 50 66
10 9 9 8 8 7 7 6 7 6 6 6 6 7 7 7 7 8 8 8 8 8 10 10 10 10 8 7 7 8 8 8 9 9 8 6 6 6 6 7 7 10 12 12 13 15 19 29 37 48 58 72 81 86
8 7 7 7 6 6 6 6 6 6 7 7 7 7 7 7 8 8 8 8 8 8 8 8 8 8 8 8 8 9 9 10 9 8 7 6 6 7 8 10 14 21 25 24 26 30 46 57 70 73 77 87 88 92
7 6 6 6 6 6 7 7 7 7 7 8 8 8 8 8 8 8 7 7 8 8 8 9 10 10 9 9 9 10 11 9 8 7 6 7 8 9 11 19 32 38 40 44 39 57 70 72 71 80 84 86 91 100

GFSWCAN_250_rhum_129.txt.gz
RH
100 100 100 100 100 100 100 100 100 100 100 100 100 100 100 100 100 100 100 100 100 100 94 92 76 83 78 64 74 91 79 56 75 86 94 84 77 74 99 70 47 48 43 39 28 50 80 89 81 82 70 63 50 44
100 100 100 100 100 100 100 100 100 100 100 100 100 100 100 100 100 100 100 100 100 100 100 89 80 81 99 81 64 88 90 68 52 53 83 87 81 85 79 100 64 44 37 53 41 22 38 73 82 93 90 86 70 61
98 98 95 99 100 100 100 100 100 100 100 100 100 100 100 100 100 100 100 100 100 100 100 98 85 82 100 94 55 100 100 82 65 54 79 94 81 86 85 98 100 46 49 45 46 41 26 32 49 76 86 87 94 75
84 90 92 86 75 60 73 94 100 100 100 98 88 94 100 100 100 100 100 100 100 100 99 100 92 82 100 98 83 91 80 74 74 60 76 100 97 70 89 100 100 53 51 51 38 31 44 42 37 53 60 76 88 87
67 65 65 74 82 66 72 90 91 95 96 91 87 95 99 100 100 100 100 100 100 100 95 91 93 97 95 100 99 100 80 76 79 52 79 100 100 62 77 100 100 51 47 50 44 35 40 48 27 25 40 61 82 83
56 53 51 62 72 80 80 75 80 79 83 72 82 92 100 100 100 100 100 100 100 100 100 99 100 100 100 100 100 100 92 93 90 63 84 100 100 61 89 100 100 53 47 48 37 32 38 33 66 51 21 23 60 74
68 70 79 93 74 74 79 81 88 72 77 81 97 95 100 100 100 100 100 100 100 100 100 100 100 100 100 100 100 100 96 99 81 83 96 100 92 82 100 100 84 43 41 48 47 29 30 19 26 49 52 28 24 41
87 91 94 89 100 100 100 100 100 100 100 100 100 100 100 100 100 100 100 100 100 100 100 100 100 100 99 100 95 100 100 88 84 100 99 88 98 79 99 100 81 39 40 34 36 23 19 19 16 18 36 46 37 30
83 89 94 100 96 100 100 100 100 100 100 100 100 100 100 100 100 100 100 100 100 100 100 100 100 100 100 100 100 97 100 97 100 100 98 70 94 98 100 100 90 46 34 33 22 19 16 15 19 16 15 37 48 32
77 72 71 27 60 50 40 38 22 62 49 72 100 100 100 100 100 100 100 100 100 100 100 100 100 100 100 100 100 87 100 100 100 100 71 64 74 100 100 95 44 40 37 25 23 25 28 21 15 14 14 11 23 40
11 10 11 9 10 10 10 12 14 15 17 24 49 86 67 69 90 53 56 60 66 85 85 76 71 100 100 100 98 100 100 100 80 58 50 48 97 100 100 69 46 39 43 40 25 24 28 37 19 14 14 13 11 21
6 6 8 7 8 8 9 10 10 12 13 13 14 21 35 24 19 20 20 19 19 20 20 26 73 100 100 100 67 95 100 82 62 49 50 72 100 100 64 52 35 50 60 56 35 23 25 51 36 19 14 11 12 13
5 5 5 5 5 6 7 8 9 10 10 11 12 11 12 12 11 12 14 14 15 17 21 27 90 100 98 49 46 64 44 34 39 30 61 100 100 85 47 57 56 51 55 41 41 24 22 40 52 46 22 13 11 12
5 5 4 5 5 5 6 6 7 8 8 8 9 8 8 8 7 8 11 14 15 16 19 18 27 43 30 26 29 17 16 17 25 24 100 100 100 59 36 43 49 47 37 41 38 35 20 22 40 62 30 16 12 10
6 6 5 5 5 5 5 5 6 6 6 6 6 6 6 6 6 7 8 10 12 13 15 17 17 16 19 18 18 15 12 13 21 54 100 100 100 99 47 45 58 60 40 35 29 27 21 18 31 37 24 14 12 9
6 6 6 6 6 6 5 5 4 4 4 4 4 4 5 5 5 6 8 10 12 12 12 12 13 13 14 15 13 11 12 14 23 75 100 100 100 94 60 44 52 53 29 28 24 23 23 19 23 29 19 16 12 9
5 6 6 6 6 5 5 4 4 3 3 3 3 4 4 4 5 6 7 7 8 8 9 10 9 10 9 10 10 10 13 19 39 60 68 100 58 38 34 50 59 51 32 31 21 21 20 17 20 26 27 24 14 10
6 6 6 5 5 5 4 4 4 3 3 3 3 4 4 4 4 4 6 6 6 6 7 7 8 6 6 6 8 12 16 20 28 54 62 29 20 26 21 20 24 27 34 29 20 17 19 17 16 23 20 22 17 10
5 5 5 4 4 4 4 4 3 3 4 4 4 4 5 5 5 5 5 5 6 6 5 5 4 4 6 8 12 14 16 18 19 21 17 16 19 34 31 21 24 26 32 22 16 16 17 17 15 16 18 17 14 10
4 4 4 4 4 4 4 4 4 4 5 5 6 7 6 6 6 4 4 5 5 5 4 4 4 6 8 10 11 12 14 16 16 13 12 14 19 20 20 22 27 23 17 15 14 14 14 13 13 14 14 14 12 9
4 4 4 4 3 3 4 4 5 5 5 6 6 6 6 7 6 7 8 8 5 4 4 5 6 7 8 8 10 11 12 12 10 10 11 11 12 15 17 16 16 14 12 13 13 12 12 12 12 12 12 8 10 9
4 4 4 4 4 4 5 5 5 5 6 7 7 6 7 7 7 7 7 5 4 6 8 8 8 7 6 7 8 8 7 7 8 9 9 11 13 12 12 13 12 11 11 12 12 11 11 10 9 8 8 8 11 10
4 4 4 4 4 5 6 6 6 6 7 7 7 6 6 7 7 7 5 6 9 10 9 7 7 7 7 6 6 7 7 7 8 8 10 11 12 12 11 10 10 11 11 10 10 10 9 8 7 8 9 8 8 7
4 4 4 4 5 6 6 7 7 6 6 7 7 7 7 7 6 5 6 7 7 6 6 6 6 5 5 5 6 7 7 7 8 9 10 10 10 10 9 10 10 9 10 9 8 7 7 9 9 7 6 6 5 5
4 4 5 6 7 7 7 6 6 6 6 6 7 7 6 5 5 5 6 7 6 6 5 5 5 6 6 6 7 7 7 8 8 9 8 8 10 10 9 10 10 9 7 6 6 8 7 6 5 5 5 5 6 5
5 7 7 7 7 6 6 6 6 6 5 6 6 6 6 6 6 6 6 6 6 5 5 6 7 7 7 7 7 7 7 7 7 8 8 8 9 10 9 8 7 6 6 8 7 6 5 5 6 6 6 6 6 5
7 6 6 5 5 5 5 6 6 6 6 6 6 5 6 6 6 6 5 4 5 5 6 6 6 6 6 6 6 6 6 7 8 8 8 8 8 8 8 6 6 8 7 6 6 7 6 7 6 6 6 6 6 6
6 6 6 6 6 5 5 5 6 6 6 6 6 6 6 6 6 6 6 6 6 6 7 7 7 6 6 6 7 8 8 8 8 7 7 7 7 6 7 7 7 6 6 7 7 7 6 6 6 6 6 7 7 8
6 6 6 6 6 6 6 6 6 6 6 6 6 6 7 7 7 7 7 7 7 7 7 6 7 7 7 8 7 7 7 7 8 8 7 7 7 7 7 6 7 8 8 7 6 6 6 7 8 9 11 9 9 10
7 7 7 7 7 7 7 7 6 6 6 6 6 6 6 7 7 7 6 6 6 7 7 7 7 8 8 8 8 8 8 7 7 7 8 8 7 7 7 8 9 8 7 6 6 8 11 11 12 15 14 11 10 14
8 8 8 8 8 8 8 8 7 7 7 7 7 7 7 7 6 6 7 6 6 7 7 8 8 8 7 7 7 6 7 8 8 7 7 7 8 9 10 9 7 7 7 7 9 12 11 12 14 16 16 14 14 18
8 8 7 7 7 7 7 7 7 8 8 7 7 7 7 7 7 8 7 7 7 7 7 7 7 7 7 7 8 8 8 8 7 7 8 10 10 9 8 7 8 8 10 16 18 16 16 18 17 17 21 26 39 60
7 7 7 7 7 7 8 8 8 8 8 8 7 7 7 8 8 7 7 7 7 7 7 7 7 8 8 8 8 8 7 7 8 9 10 10 9 8 9 9 9 13 19 19 18 19 20 25 31 22 39 61 64 59

GFSWCAN_250_rhum_132.txt.gz
RH
100 100 100 100 100 100 100 100 100 100 100 100 100 100 100 100 100 100 100 100 100 100 100 100 100 100 100 100 92 97 85 83 69 60 48 61 60 79 89 94 96 57 74 61 45 34 38 32 36 29 30 61 70 65
96 100 100 100 100 100 100 100 100 100 100 100 100 100 100 100 100 100 99 100 100 100 92 100 100 100 100 100 100 100 96 85 66 64 59 54 75 64 86 100 100 91 78 65 64 57 36 35 31 34 32 24 51 67
92 88 82 78 83 83 94 100 100 100 100 100 100 99 86 82 84 90 97 90 100 100 98 100 100 100 100 100 100 100 99 93 94 72 73 75 56 82 80 100 100 100 59 72 64 74 53 34 30 24 31 35 22 37
82 91 98 100 98 100 100 100 97 89 73 70 72 79 84 86 90 93 100 93 100 99 95 100 100 100 100 100 100 100 100 99 88 88 89 90 85 62 69 100 100 100 88 62 59 63 69 42 29 24 20 21 35 34
100 100 100 100 98 93 94 89 85 72 58 56 69 87 90 91 92 91 84 94 89 100 99 96 100 100 100 100 100 100 100 97 87 87 76 84 78 58 69 100 100 100 88 58 51 46 50 44 30 22 22 18 19 34
54 60 67 72 91 77 53 50 58 62 60 59 72 89 71 75 57 66 79 92 100 100 100 100 100 100 100 100 100 100 100 99 88 80 80 83 78 63 93 100 100 81 49 42 74 43 53 39 33 28 26 19 14 13
52 51 53 50 53 58 59 63 69 91 82 90 97 100 93 92 100 100 100 96 96 100 100 100 100 100 100 100 100 100 100 86 82 59 65 77 90 63 99 100 100 55 39 51 66 42 56 39 36 23 22 19 20 15
45 48 52 72 65 51 64 98 100 100 100 97 98 93 100 100 100 100 100 100 100 100 100 100 100 100 100 100 100 100 100 69 57 55 73 76 61 80 100 100 100 37 38 71 51 62 57 45 44 27 20 15 17 19
39 34 58 73 73 96 100 100 100 100 97 100 100 100 100 98 100 100 100 100 100 95 90 99 99 100 100 99 98 100 98 61 53 73 74 69 56 86 100 100 100 65 61 54 78 54 68 56 64 45 28 18 18 20
64 56 59 74 78 58 49 55 58 64 75 67 54 49 34 34 64 77 90 95 63 99 81 73 34 89 79 85 100 100 81 57 46 74 60 51 68 100 100 100 77 68 64 59 66 63 54 71 72 56 51 31 19 19
12 12 12 12 14 14 12 13 12 11 13 14 12 12 10 11 13 16 16 14 29 42 33 16 16 27 21 80 97 97 73 55 60 49 30 26 45 100 100 100 70 56 59 63 54 63 48 61 68 68 55 51 26 22
8 8 8 9 8 8 8 9 8 8 9 9 9 8 8 9 9 10 10 9 9 11 12 13 18 23 29 28 33 59 44 22 19 19 16 19 59 100 100 100 97 62 59 60 49 46 52 40 35 47 48 38 41 25
5 5 5 6 6 6 6 6 5 5 6 6 6 5 6 6 6 7 6 7 8 10 13 16 21 26 21 20 21 16 12 11 12 14 14 26 81 100 100 100 100 76 87 88 77 57 41 42 34 27 39 46 31 30
5 5 5 5 5 5 5 5 5 5 4 4 4 4 4 4 4 5 6 6 7 9 11 11 13 16 16 18 15 11 10 9 8 10 19 52 80 99 100 100 100 71 80 75 99 99 91 60 36 27 32 40 28 25
6 6 6 6 7 8 7 8 7 5 5 4 4 3 4 4 4 5 6 6 6 6 8 9 11 11 12 12 9 8 7 7 9 16 29 93 64 88 92 79 100 66 59 64 70 71 93 76 55 45 31 37 31 20
6 6 6 6 6 7 7 6 6 5 4 4 4 5 5 4 5 5 5 5 6 6 7 7 8 8 7 9 8 8 8 9 16 26 29 30 35 35 35 40 33 36 46 48 70 74 70 70 46 30 29 36 32 19
5 6 6 6 6 6 6 5 5 4 4 4 6 6 5 5 6 6 6 6 6 5 5 6 6 6 6 5 6 6 9 16 21 23 21 22 23 25 19 20 20 24 23 23 28 37 42 48 32 24 35 38 21 18
5 5 5 5 5 4 5 4 4 4 4 6 6 6 5 5 5 6 6 7 5 5 5 5 5 4 4 4 5 9 11 12 14 16 18 18 19 18 16 16 16 17 20 19 20 22 26 21 20 21 22 22 21 19
5 5 5 4 4 4 4 4 4 4 6 5 6 5 5 6 7 8 7 7 6 6 4 4 3 3 4 5 8 10 10 12 15 15 15 14 14 13 13 12 13 14 16 16 18 17 17 21 21 21 27 25 20 18
4 4 4 4 3 3 4 4 4 5 6 6 6 6 7 7 8 8 8 8 8 6 3 4 5 7 8 10 11 8 7 8 8 8 7 8 9 9 9 10 11 12 14 15 15 14 14 17 19 18 19 18 15 15
4 4 4 3 3 4 4 6 6 6 6 6 5 6 6 7 7 7 7 6 4 4 5 9 11 10 10 6 5 5 5 7 6 6 6 6 7 7 8 9 10 11 12 12 12 13 13 14 15 16 14 14 13 12
4 4 4 4 4 5 6 7 5 5 6 8 7 6 7 7 8 8 5 4 6 10 11 10 8 6 5 5 5 5 5 5 5 5 6 6 7 8 9 9 9 10 10 11 11 12 13 12 13 12 12 11 10 10
4 4 5 5 6 8 8 6 6 6 8 6 6 7 7 7 7 4 6 9 11 8 6 6 6 6 6 7 7 7 7 6 6 5 6 6 6 6 7 9 9 8 10 10 10 11 11 11 11 11 10 10 10 9
5 6 6 7 8 8 7 8 6 6 7 6 6 6 7 6 6 7 9 7 6 7 6 7 7 7 6 6 7 7 7 7 7 6 6 6 7 8 8 8 9 10 10 9 10 10 10 9 10 10 9 8 7 6
6 7 8 8 8 7 7 7 6 7 6 7 7 7 7 6 7 7 6 6 5 6 6 7 7 8 8 7 6 6 6 7 8 7 7 7 7 7 8 8 8 8 9 9 8 8 9 9 9 8 7 7 7 6
9 8 7 8 8 8 7 7 6 6 7 7 7 7 7 6 6 6 6 6 6 7 7 8 7 7 7 7 6 6 6 6 6 6 6 7 7 7 7 8 8 8 7 8 9 9 8 8 7 7 7 6 5 6
8 7 8 8 7 6 6 6 6 6 6 6 6 6 6 6 6 6 7 7 7 7 6 6 6 6 5 5 5 6 6 6 6 6 6 6 7 7 7 7 7 7 8 8 8 7 7 8 7 6 6 8 8 7
8 8 7 7 7 6 7 6 6 6 6 6 6 6 6 6 7 7 7 7 7 7 7 7 6 6 6 6 6 6 6 6 5 6 6 6 7 7 7 8 8 7 7 7 7 8 7 6 6 8 8 7 7 7
6 7 7 7 7 7 6 6 6 6 6 6 6 7 7 8 8 8 8 8 8 8 8 7 6 6 5 5 5 5 5 6 6 7 7 7 8 8 7 7 6 7 8 9 8 6 7 8 8 7 7 7 9 12
7 7 7 7 7 7 6 6 7 8 8 8 7 7 7 7 7 6 7 7 7 7 7 6 5 5 5 5 6 6 6 6 7 7 7 7 7 6 6 7 8 8 7 7 7 9 8 7 7 7 7 10 12 13
7 7 7 7 8 8 8 8 8 7 7 7 6 6 6 6 6 6 6 6 6 6 5 5 5 6 6 6 6 6 6 6 7 7 7 6 6 8 9 8 7 6 8 8 8 8 7 8 8 8 12 16 16 17
7 8 8 8 7 7 7 8 7 7 7 6 6 6 6 6 6 6 6 6 6 6 6 7 7 7 7 7 7 7 7 7 7 7 7 8 9 8 7 6 7 8 8 8 8 8 8 9 10 13 16 20 26 34
7 7 7 7 7 6 6 7 6 7 6 6 6 6 6 6 6 6 6 6 6 6 6 7 7 6 6 6 6 7 7 7 7 8 8 8 7 7 8 9 9 9 8 8 8 9 10 17 18 20 28 41 50 57